[[{"header":{"parameterUnit":"m.s-1","parameterCategory":1,"la1":31.0,"la2":29.5877,"lo1":-88.7671,"lo2":-86.6584,"dy":0.0162,"dx":0.0185,"nx":115,"ny":88,"refTime":"2023-05-14T06:00:00:Z","depth":0,"parameterNumber":2,"parameterNumberName":"U-component_of_WINDS"},"data":[0.0,0.0,0.0,0.0,0.0,0.0,0.0,0.0,0.0,0.0,0.0,0.0,0.0,0.0,0.0,0.0,0.0,0.0,0.0,0.0,0.0,0.0,0.0,0.0,0.0,0.0,0.0,0.0,0.0,0.0,0.0,0.0,0.0,0.0,0.0,0.0,0.0,0.0,0.0,0.0,0.0,0.0,0.0,0.0,0.0,0.0,0.0,0.0,0.0,0.0,0.0,0.0,0.0,0.0,0.0,0.0,0.0,0.0,0.0,0.0,0.0,0.0,0.0,0.0,0.0,0.0,0.0,0.0,0.0,0.0,0.0,0.0,0.0,0.0,0.0,0.0,0.0,0.0,0.0,0.0,0.0,0.0,0.0,0.0,0.0,0.0,0.0,0.0,0.0,0.0,0.0,0.0,0.0,0.0,0.0,0.0,0.0,0.0,0.0,0.0,0.0,0.0,0.0,0.0,0.0,0.0,0.0,0.0,0.0,0.0,0.0,0.0,0.0,0.0,0.0,0.0,0.0,0.0,0.0,0.0,0.0,0.0,0.0,0.0,0.0,0.0,0.0,0.0,0.0,0.0,0.0,0.0,0.0,0.0,0.0,0.0,0.0,0.0,0.0,0.0,0.0,0.0,0.0,0.0,0.0,0.0,0.0,0.0,0.0,0.0,0.0,0.0,0.0,0.0,0.0,0.0,0.0,0.0,0.0,0.0,0.0,0.0,0.0,0.0,0.0,0.0,0.0,0.0,0.0,0.0,0.0,0.0,0.0,0.0,0.0,0.0,0.0,0.0,0.0,0.0,0.0,0.0,0.0,0.0,0.0,0.0,0.0,0.0,0.0,0.0,0.0,0.0,0.0,0.0,0.0,0.0,0.0,0.0,0.0,0.0,0.0,0.0,0.0,0.0,0.0,0.0,0.0,0.0,0.0,0.0,0.0,0.0,0.0,0.0,0.0,0.0,0.0,0.0,0.0,0.0,0.0,0.0,0.0,0.0,0.0,0.0,0.0,0.0,0.0,0.0,0.0,0.0,0.0,0.0,0.0,0.0,0.0,0.0,0.0,0.0,0.0,0.0,0.0,0.0,0.0,0.0,0.0,0.0,0.0,0.0,0.0,0.0,0.0,0.0,0.0,0.0,0.0,0.0,0.0,0.0,0.0,0.0,0.0,0.0,0.0,0.0,0.0,0.0,0.0,0.0,0.0,0.0,0.0,0.0,0.0,0.0,0.0,0.0,0.0,0.0,0.0,0.0,0.0,0.0,0.0,0.0,0.0,0.0,0.0,0.0,0.0,0.0,0.0,0.0,0.0,0.0,0.0,0.0,0.0,0.0,0.0,0.0,0.0,0.0,0.0,0.0,0.0,0.0,0.0,0.0,0.0,0.0,0.0,0.0,0.0,0.0,0.0,0.0,0.0,0.0,0.0,0.0,0.0,0.0,0.0,0.0,0.0,0.0,0.0,0.0,0.0,0.0,0.0,0.0,0.0,0.0,0.0,0.0,0.0,0.0,0.0,0.0,0.0,0.0,0.0,0.0,0.0,0.0,0.0,0.0,0.0,0.0,0.0,0.0,0.0,0.0,0.0,0.0,0.0,0.0,0.0,0.0,0.0,0.0,0.0,0.0,0.0,0.0,0.0,0.0,0.0,0.0,0.0,0.0,0.0,0.0,0.0,0.0,0.0,0.0,0.0,0.0,0.0,0.0,0.0,0.0,0.0,0.0,0.0,0.0,0.0,0.0,0.0,0.0,0.0,0.0,0.0,0.0,0.0,0.0,0.0,0.0,0.0,0.0,0.0,0.0,0.0,0.0,0.0,0.0,0.0,0.0,0.0,0.0,0.0,0.0,0.0,0.0,0.0,0.0,0.0,0.0,0.0,0.0,0.0,0.0,0.0,0.0,0.0,0.0,0.0,0.0,0.0,0.0,0.0,0.0,0.0,0.0,0.0,0.0,0.0,0.0,0.0,0.0,0.0,0.0,0.0,0.0,0.0,0.0,0.0,0.0,0.0,0.0,0.0,0.0,0.0,0.0,0.0,0.0,0.0,0.0,0.0,0.0,0.0,0.0,0.0,0.0,0.0,0.0,0.0,0.0,0.0,0.0,0.0,0.0,0.0,0.0,0.0,0.0,0.0,0.0,0.0,0.0,0.0,0.0,0.0,0.0,0.0,0.0,0.0,0.0,0.0,0.0,0.0,0.0,0.0,0.0,0.0,0.0,0.0,0.0,0.0,0.0,0.0,0.0,0.0,0.0,0.0,0.0,0.0,0.0,0.0,0.0,0.0,0.0,0.0,0.0,0.0,0.0,0.0,0.0,0.0,0.0,0.0,0.0,0.0,0.0,0.0,0.0,0.0,0.0,0.0,0.0,0.0,0.0,0.0,0.0,0.0,0.0,0.0,0.0,0.0,0.0,0.0,0.0,0.0,0.0,0.0,0.0,0.0,0.0,0.0,0.0,0.0,0.0,0.0,0.0,0.0,0.0,0.0,0.0,0.0,0.0,0.0,0.0,0.0,0.0,0.0,0.0,0.0,0.0,0.0,0.0,0.0,0.0,0.0,0.0,0.0,0.0,0.0,0.0,0.0,0.0,0.0,0.0,0.0,0.0,0.0,0.0,0.0,0.0,0.0,0.0,0.0,0.0,0.0,0.0,0.0,0.0,0.0,0.0,0.0,0.0,0.0,0.0,0.0,0.0,0.0,0.0,0.0,0.0,0.0,0.0,0.0,0.0,0.0,0.0,0.0,0.0,0.0,0.0,0.0,0.0,0.0,0.0,0.0,0.0,0.0,0.0,0.0,0.0,0.0,0.0,0.0,0.0,0.0,0.0,0.0,0.0,0.0,0.0,0.0,0.0,0.0,0.0,0.0,0.0,0.0,0.0,0.0,0.0,0.0,0.0,0.0,0.0,0.0,0.0,0.0,0.0,0.0,0.0,0.0,0.0,0.0,0.0,0.0,0.0,0.0,0.0,0.0,0.0,0.0,0.0,0.0,0.0,0.0,0.0,0.0,0.0,0.0,0.0,0.0,0.0,0.0,0.0,0.0,0.0,0.0,0.0,0.0,0.0,0.0,0.0,0.0,0.0,0.0,0.0,0.0,0.0,0.0,0.0,0.0,0.0,0.0,0.0,0.0,0.0,0.0,0.0,0.0,0.0,0.0,0.0,0.0,0.0,0.0,0.0,0.0,0.0,0.0,0.0,0.0,0.0,0.0,0.0,0.0,0.0,0.0,0.0,0.0,0.0,0.0,0.0,0.0,0.0,0.0,0.0,0.0,0.0,0.0,0.0,0.0,0.0,0.0,0.0,0.0,0.0,0.0,0.0,0.0,0.0,0.0,0.0,0.0,0.0,0.0,0.0,0.0,0.0,0.0,0.0,0.0,0.0,0.0,0.0,0.0,0.0,0.0,0.0,0.0,0.0,0.0,0.0,0.0,0.0,0.0,0.0,0.0,0.0,0.0,0.0,0.0,0.0,0.0,0.0,0.0,0.0,0.0,0.0,0.0,0.0,0.0,0.0,0.0,0.0,0.0,0.0,0.0,0.0,0.0,0.0,0.0,0.0,0.0,0.0,0.0,0.0,0.0,0.0,0.0,0.0,0.0,0.0,0.0,0.0,0.0,0.0,0.0,0.0,0.0,0.0,0.0,0.0,0.0,0.0,0.0,0.0,0.0,0.0,0.0,0.0,0.0,0.0,0.0,0.0,0.0,0.0,0.0,0.0,0.0,0.0,0.0,0.0,0.0,0.0,0.0,0.0,0.0,0.0,0.0,0.0,0.0,0.0,0.0,0.0,0.0,0.0,0.0,0.0,0.0,0.0,0.0,0.0,0.0,0.0,0.0,0.0,0.0,0.0,0.0,0.0,0.0,0.0,0.0,0.0,0.0,0.0,0.0,0.0,0.0,0.0,0.0,0.0,0.0,0.0,0.0,0.0,0.0,0.0,0.0,0.0,0.0,0.0,0.0,0.0,0.0,0.0,0.0,0.0,0.0,0.0,0.0,0.0,0.0,0.0,0.0,0.0,0.0,0.0,0.0,0.0,0.0,0.0,0.0,0.0,0.0,0.0,0.0,0.0,0.0,0.0,0.0,0.0,0.0,0.0,0.0,0.0,0.0,0.0,0.0,0.0,0.0,0.0,0.0,0.0,0.0,0.0,0.0,0.0,0.0,0.0,0.0,0.0,0.0,0.0,0.0,0.0,0.0,0.0,0.0,0.0,0.0,0.0,0.0,0.0,0.0,0.0,0.0,0.0,0.0,0.0,0.0,0.0,0.0,0.0,2.0007,0.0,0.0,0.0,0.0,0.0,0.0,0.0,0.0,0.0,0.0,0.0,0.0,0.0,0.0,0.0,0.0,0.0,0.0,0.0,0.0,0.0,0.0,0.0,0.0,0.0,0.0,0.0,0.0,0.0,0.0,0.0,0.0,0.0,0.0,0.0,0.0,0.0,0.0,0.0,0.0,0.0,0.0,0.0,0.0,0.0,0.0,0.0,0.0,0.0,0.0,0.0,0.0,0.0,0.0,0.0,0.0,0.0,0.0,0.0,0.0,0.0,0.0,0.0,0.0,0.0,0.0,0.0,0.0,0.0,0.0,0.0,0.0,0.0,0.0,0.0,0.0,0.0,0.0,0.0,0.0,0.0,0.0,0.0,0.0,0.0,0.0,0.0,0.0,0.0,0.0,0.0,0.0,0.0,0.0,0.0,0.0,0.0,0.0,0.0,0.0,0.0,0.0,0.0,0.0,0.0,0.0,0.0,0.0,0.0,0.0,1.7371,1.7293,1.6842,1.7604,1.9713,0.0,0.0,0.0,0.0,0.0,0.0,0.0,0.0,0.0,0.0,0.0,0.0,0.0,0.0,0.0,0.0,0.0,0.0,0.0,0.0,0.0,0.0,0.0,0.0,0.0,0.0,0.0,0.0,0.0,0.0,0.0,0.0,0.0,0.0,0.0,0.0,0.0,0.0,0.0,0.0,0.0,0.0,0.0,0.0,0.0,0.0,0.0,0.0,0.0,0.0,0.0,0.0,0.0,0.0,0.0,0.0,0.0,0.0,0.0,0.0,0.0,0.0,0.0,0.0,0.0,0.0,0.0,0.0,0.0,0.0,0.0,0.0,0.0,0.0,0.0,0.0,0.0,0.0,0.0,0.0,0.0,0.0,0.0,0.0,0.0,0.0,0.0,0.0,0.0,0.0,0.0,0.0,0.0,0.0,0.0,0.0,0.0,0.0,0.0,0.0,0.0,0.0,0.0,0.0,0.0,0.0,0.0,0.0,0.0,0.0,0.0,0.0,1.6745,1.7309,1.9456,0.0,0.0,0.0,0.0,0.0,0.0,0.0,0.0,0.0,0.0,0.0,0.0,0.0,0.0,0.0,0.0,0.0,0.0,0.0,0.0,0.0,0.0,0.0,0.0,0.0,0.0,0.0,0.0,0.0,0.0,0.0,0.0,0.0,0.0,0.0,0.0,0.0,0.0,0.0,0.0,0.0,0.0,0.0,0.0,0.0,0.0,0.0,0.0,0.0,0.0,0.0,0.0,0.0,0.0,0.0,0.0,0.0,0.0,0.0,0.0,0.0,0.0,0.0,0.0,0.0,0.0,0.0,0.0,0.0,0.0,0.0,0.0,0.0,0.0,0.0,0.0,0.0,0.0,0.0,0.0,0.0,0.0,0.0,0.0,0.0,0.0,0.0,0.0,0.0,0.0,0.0,0.0,0.0,0.0,0.0,0.0,0.0,0.0,0.0,0.0,0.0,0.0,0.0,0.0,0.0,0.0,0.0,0.0,0.0,0.0,1.7903,2.015,1.9384,0.0,2.0326,0.0,0.0,0.0,0.0,0.0,0.0,0.0,0.0,0.0,0.0,0.0,0.0,0.0,0.0,0.0,0.0,0.0,0.0,0.0,0.0,0.0,0.0,0.0,0.0,0.0,0.0,0.0,0.0,0.0,0.0,0.0,0.0,0.0,0.0,0.0,0.0,0.0,0.0,0.0,0.0,0.0,0.0,0.0,0.0,0.0,0.0,0.0,0.0,0.0,0.0,0.0,0.0,0.0,0.0,0.0,0.0,0.0,0.0,0.0,0.0,0.0,0.0,0.0,0.0,0.0,0.0,0.0,0.0,0.0,0.0,0.0,0.0,0.0,0.0,0.0,0.0,0.0,0.0,0.0,0.0,0.0,0.0,0.0,0.0,0.0,0.0,0.0,0.0,0.0,0.0,0.0,0.0,0.0,0.0,0.0,0.0,0.0,0.0,0.0,0.0,0.0,0.0,0.0,0.0,0.0,0.0,0.0,0.0,0.0,0.0,1.8758,1.9799,1.9988,2.0215,0.0,0.0,0.0,0.0,0.0,0.0,0.0,0.0,0.0,0.0,0.0,0.0,0.0,0.0,0.0,0.0,0.0,0.0,0.0,0.0,0.0,0.0,0.0,0.0,0.0,0.0,0.0,0.0,0.0,0.0,0.0,0.0,0.0,0.0,0.0,0.0,0.0,0.0,0.0,0.0,0.0,0.0,0.0,0.0,0.0,0.0,0.0,0.0,0.0,0.0,0.0,0.0,0.0,0.0,0.0,0.0,0.0,0.0,0.0,0.0,0.0,0.0,0.0,0.0,0.0,0.0,0.0,0.0,0.0,0.0,0.0,0.0,0.0,0.0,0.0,0.0,0.0,0.0,0.0,0.0,0.0,0.0,0.0,0.0,0.0,0.0,0.0,0.0,0.0,0.0,0.0,0.0,0.0,0.0,0.0,0.0,0.0,0.0,0.0,0.0,0.0,0.0,0.0,0.0,0.0,0.0,0.0,0.0,0.0,0.0,1.9895,1.977,1.9988,2.0609,2.0915,2.0867,0.0,0.0,0.0,0.0,0.0,0.0,0.0,0.0,0.0,0.0,0.0,0.0,0.0,0.0,0.0,0.0,0.0,0.0,0.0,0.0,0.0,0.0,0.0,0.0,0.0,0.0,0.0,0.0,0.0,0.0,0.0,0.0,0.0,0.0,0.0,0.0,0.0,0.0,0.0,0.0,0.0,0.0,0.0,0.0,0.0,0.0,0.0,0.0,0.0,0.0,0.0,0.0,0.0,0.0,0.0,0.0,0.0,0.0,0.0,0.0,0.0,0.0,0.0,0.0,0.0,0.0,0.0,0.0,0.0,0.0,0.0,0.0,0.0,0.0,0.0,0.0,0.0,0.0,0.0,0.0,0.0,0.0,0.0,0.0,0.0,0.0,0.0,0.0,0.0,0.0,0.0,0.0,0.0,0.0,0.0,0.0,0.0,0.0,0.0,0.0,0.0,0.0,0.0,0.0,0.0,0.0,0.0,0.0,2.2734,2.1361,2.09,2.163,2.1741,2.1739,0.0,0.0,0.0,0.0,0.0,0.0,0.0,0.0,0.0,0.0,0.0,0.0,0.0,0.0,0.0,0.0,0.0,0.0,0.0,0.0,0.0,0.0,0.0,0.0,0.0,0.0,0.0,0.0,0.0,0.0,0.0,0.0,0.0,0.0,0.0,0.0,0.0,0.0,0.0,0.0,0.0,0.0,0.0,0.0,0.0,0.0,0.0,0.0,0.0,0.0,0.0,0.0,0.0,0.0,0.0,0.0,0.0,0.0,0.0,0.0,0.0,0.0,0.0,0.0,0.0,0.0,0.0,0.0,0.0,0.0,0.0,0.0,0.0,0.0,0.0,0.0,0.0,0.0,0.0,0.0,0.0,0.0,0.0,0.0,0.0,0.0,0.0,0.0,0.0,0.0,0.0,0.0,0.0,0.0,0.0,0.0,0.0,0.0,0.0,0.0,0.0,0.0,0.0,0.0,0.0,0.0,0.0,0.0,0.0,2.1402,2.1384,2.1759,2.2586,2.2647,2.2099,0.0,0.0,0.0,0.0,0.0,0.0,0.0,0.0,0.0,0.0,0.0,0.0,0.0,0.0,0.0,0.0,0.0,0.0,0.0,0.0,0.0,0.0,0.0,0.0,0.0,0.0,0.0,0.0,0.0,0.0,0.0,0.0,0.0,0.0,0.0,0.0,0.0,0.0,0.0,0.0,0.0,0.0,0.0,0.0,0.0,0.0,0.0,0.0,0.0,0.0,0.0,0.0,0.0,0.0,0.0,0.0,0.0,0.0,0.0,0.0,0.0,0.0,0.0,0.0,0.0,0.0,0.0,0.0,0.0,0.0,0.0,0.0,0.0,0.0,0.0,0.0,0.0,0.0,0.0,0.0,0.0,0.0,0.0,0.0,0.0,0.0,0.0,0.0,0.0,0.0,0.0,0.0,0.0,0.0,0.0,0.0,0.0,0.0,0.0,0.0,0.0,0.0,0.0,0.0,0.0,0.0,0.0,0.0,0.0,2.1351,0.0,2.2791,2.3071,2.311,2.2271,0.0,0.0,0.0,0.0,0.0,0.0,0.0,0.0,0.0,0.0,0.0,0.0,0.0,0.0,0.0,0.0,0.0,0.0,0.0,0.0,0.0,0.0,0.0,0.0,0.0,0.0,0.0,0.0,0.0,0.0,0.0,0.0,0.0,0.0,0.0,0.0,0.0,0.0,0.0,0.0,0.0,0.0,0.0,0.0,0.0,0.0,0.0,0.0,0.0,0.0,0.0,0.0,0.0,0.0,0.0,0.0,0.0,0.0,0.0,0.0,0.0,0.0,0.0,0.0,0.0,0.0,0.0,0.0,0.0,0.0,0.0,0.0,0.0,0.0,0.0,0.0,0.0,0.0,0.0,0.0,0.0,0.0,0.0,0.0,0.0,0.0,0.0,0.0,0.0,0.0,0.0,0.0,0.0,0.0,0.0,0.0,0.0,0.0,0.0,0.0,0.0,0.0,0.0,0.0,0.0,0.0,0.0,0.0,2.1396,2.2984,2.3828,2.3844,2.3143,2.3118,2.2298,0.0,0.0,0.0,0.0,0.0,0.0,0.0,0.0,0.0,0.0,0.0,0.0,0.0,0.0,0.0,0.0,0.0,0.0,0.0,0.0,0.0,0.0,0.0,0.0,0.0,0.0,0.0,0.0,0.0,0.0,0.0,0.0,0.0,0.0,0.0,0.0,0.0,0.0,0.0,0.0,0.0,0.0,0.0,0.0,0.0,0.0,0.0,0.0,0.0,0.0,0.0,0.0,0.0,0.0,0.0,0.0,0.0,0.0,0.0,0.0,0.0,0.0,0.0,0.0,0.0,0.0,0.0,0.0,0.0,0.0,0.0,0.0,0.0,0.0,0.0,0.0,0.0,0.0,0.0,0.0,0.0,0.0,0.0,0.0,0.0,0.0,0.0,0.0,0.0,0.0,0.0,0.0,0.0,0.0,0.0,0.0,0.0,0.0,0.0,0.0,0.0,0.0,0.0,0.0,0.0,0.0,0.0,0.0,0.0,2.2241,2.2478,2.306,2.3922,2.3369,2.2762,0.0,0.0,0.0,0.0,0.0,0.0,0.0,0.0,0.0,0.0,0.0,0.0,0.0,0.0,0.0,0.0,0.0,0.0,0.0,0.0,0.0,0.0,0.0,0.0,0.0,0.0,0.0,0.0,0.0,0.0,0.0,0.0,0.0,0.0,0.0,0.0,0.0,0.0,0.0,0.0,0.0,0.0,0.0,0.0,0.0,0.0,0.0,0.0,0.0,0.0,0.0,0.0,0.0,0.0,0.0,0.0,0.0,0.0,0.0,0.0,0.0,0.0,0.0,0.0,0.0,0.0,0.0,0.0,0.0,0.0,0.0,0.0,0.0,0.0,0.0,0.0,0.0,0.0,0.0,0.0,0.0,0.0,0.0,0.0,0.0,0.0,0.0,0.0,0.0,0.0,0.0,0.0,0.0,0.0,0.0,0.0,0.0,0.0,0.0,0.0,0.0,0.0,0.0,0.0,0.0,0.0,0.0,0.0,0.0,2.2416,2.2925,2.3299,2.3413,2.3467,2.3038,2.211,0.0,0.0,0.0,0.0,0.0,0.0,0.0,0.0,0.0,0.0,0.0,0.0,0.0,0.0,0.0,0.0,0.0,0.0,0.0,0.0,0.0,0.0,0.0,0.0,0.0,0.0,0.0,0.0,0.0,0.0,0.0,0.0,0.0,0.0,0.0,0.0,0.0,0.0,0.0,0.0,0.0,0.0,0.0,0.0,0.0,0.0,0.0,0.0,0.0,0.0,0.0,0.0,0.0,0.0,0.0,0.0,0.0,0.0,0.0,0.0,0.0,0.0,0.0,0.0,0.0,0.0,0.0,0.0,0.0,0.0,0.0,0.0,0.0,0.0,0.0,0.0,0.0,0.0,0.0,0.0,0.0,0.0,0.0,0.0,0.0,0.0,0.0,0.0,0.0,0.0,0.0,0.0,0.0,0.0,0.0,0.0,0.0,0.0,0.0,0.0,0.0,0.0,0.0,0.0,0.0,0.0,0.0,0.0,2.3338,2.4919,2.4589,2.2191,2.3558,2.321,0.0,0.0,0.0,0.0,0.0,0.0,0.0,0.0,0.0,0.0,0.0,0.0,0.0,0.0,0.0,0.0,0.0,0.0,0.0,0.0,0.0,0.0,0.0,0.0,0.0,0.0,0.0,0.0,0.0,0.0,0.0,0.0,0.0,0.0,0.0,0.0,0.0,0.0,0.0,0.0,0.0,0.0,0.0,0.0,0.0,0.0,0.0,0.0,0.0,0.0,0.0,0.0,0.0,0.0,0.0,0.0,0.0,0.0,0.0,0.0,0.0,0.0,0.0,0.0,0.0,0.0,0.0,0.0,0.0,0.0,0.0,0.0,0.0,0.0,0.0,0.0,0.0,0.0,0.0,0.0,0.0,0.0,0.0,0.0,0.0,0.0,0.0,0.0,0.0,0.0,0.0,0.0,0.0,0.0,0.0,0.0,0.0,0.0,0.0,0.0,0.0,0.0,0.0,0.0,0.0,0.0,0.0,0.0,0.0,2.5975,2.6425,2.6031,2.4743,2.5027,2.4863,0.0,0.0,0.0,0.0,0.0,0.0,0.0,0.0,0.0,0.0,0.0,0.0,0.0,0.0,0.0,0.0,0.0,0.0,0.0,0.0,0.0,0.0,0.0,0.0,0.0,0.0,0.0,0.0,0.0,0.0,0.0,0.0,0.0,0.0,0.0,0.0,0.0,0.0,0.0,0.0,0.0,0.0,0.0,0.0,0.0,0.0,0.0,0.0,0.0,0.0,0.0,0.0,0.0,0.0,0.0,0.0,0.0,0.0,0.0,0.0,0.0,0.0,0.0,0.0,0.0,0.0,0.0,0.0,0.0,0.0,0.0,0.0,0.0,0.0,0.0,0.0,0.0,0.0,0.0,0.0,0.0,0.0,0.0,0.0,0.0,0.0,0.0,0.0,0.0,0.0,0.0,0.0,0.0,0.0,0.0,0.0,0.0,0.0,0.0,0.0,0.0,0.0,0.0,0.0,0.0,0.0,0.0,0.0,2.6108,2.6992,2.7376,2.7298,2.6751,2.6659,2.589,0.0,0.0,0.0,0.0,0.0,0.0,0.0,0.0,0.0,0.0,0.0,0.0,0.0,0.0,0.0,0.0,0.0,0.0,0.0,0.0,0.0,0.0,0.0,0.0,0.0,0.0,0.0,0.0,0.0,0.0,0.0,0.0,0.0,0.0,0.0,0.0,0.0,0.0,0.0,0.0,0.0,0.0,0.0,0.0,0.0,0.0,0.0,0.0,0.0,0.0,0.0,0.0,0.0,0.0,0.0,0.0,0.0,0.0,0.0,0.0,0.0,0.0,0.0,0.0,0.0,0.0,0.0,0.0,0.0,0.0,0.0,0.0,0.0,0.0,0.0,0.0,0.0,0.0,0.0,0.0,0.0,0.0,0.0,0.0,0.0,0.0,0.0,0.0,0.0,0.0,0.0,0.0,0.0,0.0,0.0,0.0,0.0,0.0,0.0,0.0,0.0,0.0,0.0,0.0,0.0,0.0,0.0,0.0,2.6044,2.6988,2.7843,2.8212,2.8068,2.8084,2.6525,0.0,0.0,0.0,0.0,0.0,0.0,0.0,0.0,0.0,0.0,0.0,0.0,0.0,0.0,0.0,0.0,0.0,0.0,0.0,0.0,0.0,0.0,0.0,0.0,0.0,0.0,0.0,0.0,0.0,0.0,0.0,0.0,0.0,0.0,0.0,0.0,0.0,0.0,0.0,0.0,0.0,0.0,0.0,0.0,0.0,0.0,0.0,0.0,0.0,0.0,0.0,0.0,0.0,0.0,0.0,0.0,0.0,0.0,0.0,0.0,0.0,0.0,0.0,0.0,0.0,0.0,0.0,0.0,0.0,0.0,0.0,0.0,0.0,0.0,0.0,0.0,0.0,0.0,0.0,0.0,0.0,0.0,0.0,0.0,0.0,0.0,0.0,0.0,0.0,0.0,0.0,0.0,0.0,0.0,0.0,0.0,0.0,0.0,0.0,0.0,0.0,0.0,0.0,0.0,0.0,0.0,0.0,0.0,2.5436,2.6962,2.7848,2.7943,2.72,2.7774,2.7082,0.0,0.0,0.0,0.0,0.0,0.0,0.0,0.0,0.0,0.0,0.0,0.0,0.0,0.0,0.0,0.0,0.0,0.0,0.0,0.0,0.0,0.0,0.0,0.0,0.0,0.0,0.0,0.0,0.0,0.0,0.0,0.0,0.0,0.0,0.0,0.0,0.0,0.0,0.0,0.0,0.0,0.0,0.0,0.0,0.0,0.0,0.0,0.0,2.564,0.0,0.0,0.0,0.0,0.0,0.0,0.0,0.0,0.0,0.0,0.0,0.0,0.0,0.0,0.0,0.0,0.0,0.0,0.0,0.0,0.0,0.0,0.0,0.0,0.0,0.0,0.0,0.0,0.0,0.0,0.0,0.0,0.0,0.0,0.0,0.0,0.0,0.0,0.0,0.0,0.0,0.0,0.0,0.0,0.0,0.0,0.0,0.0,0.0,0.0,0.0,0.0,0.0,0.0,0.0,0.0,0.0,0.0,0.0,2.5657,2.6958,2.744,2.743,2.6928,2.6892,2.6409,0.0,0.0,0.0,0.0,0.0,0.0,0.0,0.0,0.0,0.0,0.0,0.0,0.0,0.0,0.0,0.0,0.0,0.0,0.0,0.0,0.0,0.0,0.0,0.0,0.0,0.0,0.0,0.0,0.0,0.0,0.0,0.0,0.0,0.0,0.0,0.0,0.0,0.0,0.0,0.0,0.0,0.0,0.0,0.0,0.0,0.0,0.0,0.0,0.0,0.0,0.0,0.0,0.0,0.0,0.0,0.0,0.0,0.0,0.0,0.0,0.0,0.0,0.0,0.0,0.0,0.0,0.0,0.0,0.0,0.0,0.0,0.0,0.0,0.0,0.0,0.0,0.0,0.0,0.0,0.0,0.0,0.0,0.0,0.0,0.0,0.0,0.0,0.0,0.0,0.0,0.0,0.0,0.0,0.0,0.0,0.0,0.0,0.0,0.0,0.0,0.0,0.0,0.0,0.0,0.0,0.0,0.0,2.5564,2.5916,2.6768,2.6913,2.6875,2.6699,2.6037,2.5599,2.5428,0.0,0.0,0.0,0.0,0.0,0.0,0.0,0.0,0.0,0.0,0.0,0.0,0.0,0.0,0.0,0.0,0.0,0.0,0.0,0.0,0.0,0.0,0.0,0.0,0.0,0.0,0.0,0.0,0.0,0.0,0.0,0.0,0.0,0.0,0.0,0.0,0.0,0.0,2.2831,2.3533,0.0,0.0,0.0,0.0,0.0,0.0,0.0,0.0,2.5473,0.0,0.0,0.0,0.0,0.0,0.0,0.0,0.0,0.0,0.0,0.0,0.0,0.0,0.0,0.0,0.0,0.0,0.0,0.0,0.0,0.0,0.0,0.0,0.0,0.0,0.0,0.0,0.0,0.0,0.0,0.0,0.0,0.0,0.0,0.0,0.0,0.0,0.0,0.0,0.0,0.0,0.0,0.0,0.0,0.0,0.0,0.0,0.0,0.0,0.0,0.0,0.0,0.0,0.0,0.0,0.0,2.5689,2.499,2.5035,2.5898,2.6562,2.6562,2.5859,2.6264,2.6158,2.5418,0.0,0.0,0.0,0.0,0.0,0.0,0.0,0.0,0.0,0.0,0.0,0.0,0.0,0.0,0.0,0.0,0.0,0.0,0.0,0.0,0.0,0.0,0.0,0.0,0.0,0.0,0.0,0.0,0.0,0.0,0.0,0.0,0.0,0.0,0.0,0.0,0.0,0.0,0.0,2.2125,2.248,0.0,0.0,0.0,0.0,0.0,0.0,0.0,0.0,2.3603,0.0,0.0,0.0,0.0,0.0,0.0,0.0,0.0,0.0,0.0,0.0,0.0,0.0,0.0,0.0,0.0,0.0,0.0,0.0,0.0,0.0,0.0,0.0,0.0,0.0,0.0,0.0,0.0,0.0,0.0,0.0,0.0,0.0,0.0,0.0,0.0,0.0,0.0,0.0,0.0,0.0,0.0,0.0,0.0,0.0,0.0,0.0,0.0,0.0,0.0,0.0,0.0,0.0,0.0,0.0,2.5602,2.4853,2.4838,2.5664,2.6035,2.6044,2.562,2.5479,2.5415,0.0,0.0,0.0,0.0,0.0,0.0,0.0,0.0,0.0,0.0,0.0,0.0,0.0,0.0,0.0,0.0,0.0,0.0,0.0,0.0,0.0,0.0,0.0,0.0,0.0,0.0,0.0,0.0,0.0,0.0,0.0,0.0,0.0,0.0,0.0,0.0,0.0,0.0,0.0,0.0,2.2164,2.2569,2.2988,0.0,0.0,0.0,0.0,0.0,0.0,2.4957,2.4541,0.0,0.0,0.0,0.0,0.0,0.0,0.0,0.0,0.0,0.0,0.0,0.0,0.0,0.0,0.0,0.0,0.0,0.0,0.0,0.0,0.0,0.0,0.0,0.0,0.0,0.0,0.0,0.0,0.0,0.0,0.0,0.0,0.0,0.0,0.0,0.0,0.0,0.0,0.0,0.0,0.0,0.0,0.0,0.0,0.0,0.0,0.0,0.0,0.0,0.0,0.0,0.0,0.0,0.0,0.0,2.5644,2.4839,2.4819,2.5644,2.5625,2.5506,2.5351,2.4735,2.4639,0.0,0.0,0.0,0.0,0.0,0.0,0.0,0.0,0.0,0.0,0.0,0.0,0.0,0.0,0.0,0.0,0.0,0.0,0.0,0.0,0.0,0.0,0.0,0.0,0.0,0.0,0.0,0.0,0.0,0.0,0.0,0.0,0.0,0.0,0.0,0.0,0.0,0.0,0.0,0.0,0.0,2.3101,2.3309,2.3902,0.0,0.0,0.0,0.0,2.5648,2.5546,0.0,0.0,0.0,0.0,0.0,0.0,0.0,0.0,0.0,0.0,0.0,0.0,0.0,0.0,0.0,0.0,0.0,0.0,0.0,0.0,0.0,0.0,0.0,0.0,0.0,0.0,0.0,0.0,0.0,0.0,0.0,0.0,0.0,0.0,0.0,0.0,0.0,0.0,0.0,0.0,0.0,0.0,0.0,0.0,0.0,0.0,0.0,0.0,0.0,0.0,0.0,0.0,0.0,0.0,0.0,0.0,2.5625,2.4844,2.4824,2.5644,2.5566,2.5174,2.4476,2.4928,2.4848,0.0,0.0,0.0,0.0,0.0,0.0,0.0,0.0,0.0,0.0,0.0,0.0,0.0,0.0,0.0,0.0,0.0,0.0,0.0,0.0,0.0,0.0,0.0,0.0,0.0,0.0,0.0,0.0,0.0,0.0,0.0,0.0,0.0,0.0,0.0,0.0,0.0,0.0,0.0,0.0,0.0,2.3281,2.4062,2.4247,2.4644,0.0,0.0,2.4815,2.5496,2.4962,0.0,0.0,0.0,0.0,0.0,0.0,0.0,0.0,0.0,0.0,0.0,0.0,0.0,0.0,0.0,0.0,0.0,0.0,0.0,0.0,0.0,0.0,0.0,0.0,0.0,0.0,0.0,0.0,0.0,0.0,0.0,0.0,0.0,0.0,0.0,0.0,0.0,0.0,0.0,0.0,0.0,0.0,0.0,0.0,0.0,0.0,0.0,0.0,0.0,0.0,0.0,0.0,0.0,0.0,0.0,2.4336,2.5586,2.4355,2.4316,2.5625,2.5137,2.4645,2.4322,2.4514,2.4437,0.0,0.0,0.0,0.0,0.0,0.0,0.0,0.0,0.0,0.0,0.0,0.0,0.0,0.0,0.0,0.0,0.0,0.0,0.0,0.0,0.0,0.0,0.0,0.0,0.0,0.0,0.0,0.0,0.0,0.0,0.0,0.0,0.0,0.0,0.0,0.0,0.0,0.0,0.0,0.0,0.0,0.0,2.43,2.4329,0.0,0.0,0.0,2.5271,2.56,0.0,0.0,0.0,0.0,0.0,0.0,0.0,0.0,0.0,0.0,0.0,0.0,0.0,0.0,0.0,0.0,0.0,0.0,0.0,0.0,0.0,0.0,0.0,0.0,0.0,0.0,0.0,0.0,0.0,0.0,0.0,0.0,0.0,0.0,0.0,0.0,0.0,0.0,0.0,0.0,0.0,0.0,0.0,0.0,0.0,0.0,0.0,0.0,0.0,0.0,0.0,0.0,0.0,0.0,0.0,0.0,0.0,2.5625,2.4004,2.3965,2.5605,2.4785,2.4199,2.3995,2.388,0.0,0.0,0.0,0.0,0.0,0.0,0.0,0.0,0.0,0.0,0.0,0.0,0.0,0.0,0.0,0.0,0.0,0.0,0.0,0.0,0.0,0.0,0.0,0.0,0.0,0.0,0.0,2.0684,0.0,0.0,0.0,0.0,0.0,0.0,0.0,0.0,0.0,0.0,0.0,0.0,0.0,0.0,2.465,2.4703,2.4665,2.4884,0.0,0.0,2.5705,2.5701,2.5698,2.5703,0.0,0.0,0.0,0.0,0.0,0.0,0.0,0.0,0.0,0.0,0.0,0.0,0.0,0.0,0.0,0.0,0.0,0.0,0.0,0.0,0.0,0.0,0.0,0.0,0.0,0.0,0.0,0.0,0.0,0.0,0.0,0.0,0.0,0.0,0.0,0.0,0.0,0.0,0.0,0.0,0.0,0.0,0.0,0.0,0.0,0.0,0.0,0.0,0.0,0.0,0.0,0.0,0.0,0.0,0.0,2.5566,2.4043,2.4004,2.5605,2.4766,2.3918,2.3126,2.3014,2.2964,0.0,0.0,0.0,0.0,0.0,0.0,0.0,0.0,0.0,0.0,0.0,0.0,0.0,0.0,0.0,0.0,0.0,0.0,0.0,0.0,0.0,0.0,0.0,0.0,0.0,0.0,0.0,0.0,0.0,0.0,0.0,0.0,0.0,0.0,0.0,0.0,0.0,0.0,0.0,0.0,0.0,2.5531,2.5609,2.5564,2.5557,0.0,0.0,2.5707,2.5707,2.57,2.5703,2.57,0.0,0.0,0.0,0.0,0.0,0.0,0.0,0.0,0.0,0.0,0.0,0.0,0.0,0.0,0.0,0.0,0.0,0.0,0.0,0.0,0.0,0.0,0.0,0.0,0.0,0.0,0.0,0.0,0.0,0.0,0.0,0.0,0.0,0.0,0.0,0.0,0.0,0.0,0.0,0.0,0.0,0.0,0.0,0.0,0.0,0.0,0.0,0.0,0.0,0.0,0.0,0.0,0.0,2.3945,2.5644,2.4004,2.3965,2.5586,2.4824,2.4176,2.3809,2.3722,2.3653,0.0,0.0,0.0,0.0,0.0,0.0,0.0,0.0,0.0,0.0,0.0,0.0,0.0,0.0,0.0,0.0,0.0,0.0,0.0,0.0,0.0,0.0,0.0,0.0,0.0,0.0,0.0,0.0,2.2538,2.3532,2.5047,0.0,0.0,0.0,0.0,0.0,0.0,0.0,0.0,0.0,0.0,2.5663,2.5699,2.5676,0.0,0.0,2.5696,2.5699,2.5689,2.5703,2.5703,2.5693,2.5705,0.0,0.0,0.0,0.0,0.0,0.0,0.0,0.0,0.0,0.0,0.0,0.0,0.0,0.0,0.0,0.0,0.0,0.0,0.0,0.0,0.0,0.0,0.0,0.0,0.0,0.0,0.0,0.0,0.0,0.0,0.0,0.0,0.0,0.0,0.0,0.0,0.0,0.0,0.0,0.0,0.0,0.0,0.0,0.0,0.0,0.0,0.0,0.0,0.0,0.0,0.0,0.0,2.4238,2.5684,2.4238,2.4199,2.5664,2.4863,2.4391,2.4316,2.4031,2.3936,0.0,0.0,0.0,0.0,0.0,0.0,0.0,0.0,0.0,0.0,0.0,0.0,0.0,0.0,0.0,0.0,0.0,0.0,0.0,0.0,0.0,0.0,0.0,0.0,0.0,0.0,0.0,0.0,2.3945,2.4921,2.5269,0.0,0.0,0.0,0.0,0.0,0.0,0.0,0.0,0.0,0.0,2.5691,2.5699,2.5703,2.5703,2.5694,2.5698,2.57,2.5693,2.5696,2.5704,2.5705,0.0,0.0,0.0,0.0,0.0,0.0,0.0,0.0,0.0,0.0,0.0,0.0,0.0,0.0,0.0,0.0,0.0,0.0,0.0,0.0,0.0,0.0,0.0,0.0,0.0,0.0,0.0,0.0,0.0,0.0,2.0354,0.0,0.0,0.0,0.0,0.0,0.0,0.0,0.0,0.0,0.0,0.0,0.0,0.0,0.0,0.0,0.0,0.0,0.0,0.0,0.0,0.0,0.0,2.4805,2.5684,2.4805,2.4785,2.5644,2.4863,2.4436,2.4407,2.3592,2.3525,2.4284,0.0,0.0,0.0,0.0,0.0,0.0,0.0,0.0,0.0,0.0,0.0,0.0,0.0,0.0,0.0,0.0,0.0,0.0,0.0,0.0,0.0,0.0,0.0,0.0,0.0,0.0,2.4238,2.5137,2.5332,0.0,0.0,0.0,0.0,0.0,0.0,0.0,0.0,0.0,0.0,2.5687,2.5703,2.5696,2.5697,2.5703,2.57,2.5694,2.5691,2.5699,2.5693,2.5705,0.0,0.0,0.0,0.0,0.0,0.0,0.0,0.0,0.0,0.0,0.0,0.0,0.0,0.0,0.0,0.0,0.0,0.0,0.0,0.0,0.0,0.0,0.0,0.0,0.0,0.0,0.0,2.2843,2.2547,0.0,0.0,0.0,0.0,0.0,0.0,0.0,0.0,0.0,0.0,0.0,2.5278,2.557,0.0,0.0,0.0,0.0,0.0,0.0,0.0,0.0,0.0,0.0,0.0,0.0,2.4824,2.5605,2.4844,2.4805,2.5664,2.541,2.5249,2.5191,2.4934,2.4864,2.5098,0.0,0.0,0.0,0.0,0.0,0.0,0.0,0.0,0.0,0.0,0.0,0.0,0.0,0.0,0.0,0.0,0.0,0.0,0.0,0.0,0.0,0.0,0.0,0.0,0.0,2.4316,0.0,0.0,0.0,0.0,0.0,0.0,0.0,0.0,0.0,0.0,0.0,2.6353,2.5785,2.5691,2.5693,2.5693,2.5703,2.5698,0.0,0.0,0.0,0.0,0.0,0.0,0.0,0.0,0.0,0.0,0.0,0.0,0.0,0.0,2.5705,2.5703,2.5668,2.5658,2.5694,0.0,0.0,0.0,0.0,0.0,0.0,0.0,0.0,0.0,0.0,0.0,0.0,0.0,0.0,2.3773,0.0,2.3182,0.0,0.0,0.0,0.0,0.0,0.0,0.0,0.0,2.5737,2.6007,2.5707,2.6007,2.599,0.0,2.5703,2.5703,0.0,0.0,0.0,0.0,0.0,0.0,0.0,0.0,2.5137,2.5644,2.5137,2.5117,2.5664,2.5703,2.5684,2.5644,2.5644,2.5602,2.5548,2.546,2.5415,0.0,0.0,0.0,0.0,0.0,0.0,0.0,0.0,0.0,0.0,0.0,0.0,0.0,0.0,0.0,0.0,0.0,0.0,0.0,0.0,0.0,0.0,0.0,2.5078,0.0,0.0,0.0,0.0,0.0,0.0,0.0,0.0,0.0,2.5746,2.6193,2.6327,2.5779,2.5693,2.5676,2.5689,0.0,0.0,0.0,0.0,0.0,0.0,0.0,2.569,2.5696,2.569,2.5693,2.5689,2.5689,2.5687,2.5693,0.0,0.0,2.5693,2.5668,2.5644,2.5693,2.5687,2.5697,2.5701,2.5604,2.5529,0.0,0.0,0.0,0.0,0.0,0.0,0.0,0.0,2.5776,2.5309,0.0,2.5223,0.0,0.0,0.0,0.0,0.0,2.5274,0.0,0.0,2.66,2.656,2.5886,2.6659,2.6582,2.5762,2.5762,2.5742,2.5703,2.5703,0.0,0.0,0.0,0.0,0.0,0.0,2.5703,2.5703,2.5684,2.5703,2.5703,2.5703,2.5703,2.5703,2.5703,2.5664,2.5605,2.5548,2.5486,2.5418,2.5397,0.0,0.0,0.0,0.0,0.0,0.0,0.0,0.0,0.0,0.0,0.0,0.0,0.0,0.0,0.0,0.0,0.0,0.0,0.0,0.0,2.5703,0.0,0.0,0.0,0.0,0.0,0.0,0.0,0.0,0.0,0.0,2.5785,2.5757,2.5729,2.571,0.0,0.0,0.0,0.0,2.5627,2.5701,2.5693,2.5697,2.5703,2.5703,2.5703,2.5693,0.0,0.0,2.5703,2.5698,2.5691,2.5699,2.5694,2.5691,2.5698,2.5699,2.5697,2.5691,2.5689,2.5707,2.5701,2.5625,2.5565,2.7979,0.0,0.0,0.0,0.0,2.6638,2.6989,2.7562,2.7554,2.709,2.6227,2.5843,0.0,0.0,0.0,0.0,0.0,0.0,2.6357,2.7498,2.7182,2.7183,2.7557,2.7812,2.7461,2.6641,2.6621,2.6309,2.5703,2.5703,2.5703,2.5703,0.0,0.0,0.0,0.0,2.5703,2.5703,2.5703,2.5703,2.5703,2.5703,2.5703,2.5703,2.5703,2.5703,2.5664,2.5602,2.5578,2.5534,2.5447,0.0,0.0,0.0,0.0,0.0,0.0,0.0,0.0,0.0,0.0,0.0,0.0,0.0,0.0,0.0,0.0,0.0,0.0,0.0,2.5703,2.57,2.5699,0.0,0.0,0.0,0.0,0.0,0.0,0.0,0.0,0.0,2.5824,2.6247,2.6412,0.0,0.0,2.5609,2.5632,2.5598,2.5629,2.5685,2.5689,0.0,2.5705,2.5701,2.5701,2.5693,2.5698,2.5701,2.569,2.5693,2.5702,2.5703,2.5697,2.5689,2.5691,2.57,2.5702,2.5702,2.5702,2.5683,2.5635,2.5583,2.5515,3.0467,2.825,2.7861,2.8041,2.8536,2.8556,2.8847,2.9338,2.9334,2.9043,2.8555,2.8362,2.7608,2.641,2.6091,0.0,0.0,0.0,2.7294,2.8281,2.8123,2.8142,2.8301,2.8633,2.8359,2.7539,2.7519,2.7246,2.6738,2.6387,2.623,2.6191,0.0,0.0,2.5703,2.5703,2.5703,2.5703,2.5703,2.5703,2.5703,2.5703,2.5859,2.6191,2.5879,2.5703,2.5703,2.5644,2.5611,2.5607,2.549,2.5451,0.0,0.0,0.0,0.0,0.0,0.0,0.0,0.0,0.0,0.0,0.0,2.6777,2.625,0.0,0.0,0.0,2.5898,2.5703,2.5703,2.6009,0.0,0.0,0.0,0.0,0.0,0.0,0.0,2.5795,2.6454,2.6685,2.5844,2.6451,2.6671,2.5785,2.5644,2.56,2.5609,0.0,2.5628,2.5687,2.5693,2.5693,2.5694,2.5705,2.5705,2.5701,2.5693,2.5701,2.5701,2.5699,2.5703,2.5703,2.5702,2.5697,2.5697,2.5676,2.5668,2.5682,2.5659,2.5609,2.5599,2.5545,2.5437,3.3359,3.2617,3.1791,3.1267,3.1012,3.1012,3.1038,3.1094,3.1094,3.1055,3.1074,3.1849,3.1239,2.9578,2.8758,0.0,2.8583,2.8408,2.8398,2.8633,2.9355,2.9277,2.8574,2.9394,2.9316,2.8398,2.8398,2.8359,2.8242,2.748,2.709,2.709,2.6309,2.5879,2.5801,2.582,2.5801,2.5801,2.5898,2.5918,2.5898,2.5918,2.6309,2.707,2.6328,2.5898,2.5801,2.5742,2.5684,2.5605,2.5554,2.5498,2.5514,0.0,0.0,0.0,0.0,0.0,0.0,0.0,0.0,0.0,0.0,0.0,0.0,0.0,0.0,0.0,2.6172,0.0,2.5703,2.6477,0.0,0.0,0.0,2.7968,2.7196,2.7095,2.677,2.5898,0.0,0.0,2.5824,2.6457,2.6659,2.5737,2.5609,2.5607,2.5604,2.5604,2.5642,2.5691,2.57,2.57,2.57,2.5696,2.5696,2.5703,2.5703,2.5703,2.5703,2.5703,2.5703,2.5703,2.5703,2.568,2.57,2.5621,2.56,2.5666,2.559,2.5529,2.5551,2.5476,2.5409,3.7266,3.707,3.6836,3.4881,3.1911,3.1892,3.2245,3.2793,3.2812,3.2461,3.1914,3.2109,3.1601,3.0527,2.9667,3.0018,3.1189,2.9196,2.9374,3.1191,3.0801,3.0469,3.0332,3.1172,3.0781,2.9355,2.9297,2.8945,2.832,2.8105,2.7988,2.7969,2.7793,2.7362,2.6706,2.6687,2.6693,2.6699,2.7344,2.7695,2.7695,2.7695,2.7773,2.7969,2.7773,2.7363,2.6719,2.668,2.6348,2.5723,2.5623,2.5846,2.6424,2.5846,0.0,0.0,0.0,0.0,0.0,0.0,0.0,0.0,0.0,2.7418,2.6113,0.0,2.6719,0.0,2.582,2.5703,2.5703,2.6484,0.0,0.0,2.7786,2.8222,2.8007,2.7982,2.7648,2.6797,2.7461,2.7419,2.5885,2.6452,2.6667,2.574,2.561,2.5596,2.5601,2.5653,2.5661,2.5629,2.5663,2.5703,2.5703,2.5703,2.5703,2.5703,2.5703,2.5703,2.5703,2.5703,2.5703,2.5684,2.5648,2.564,2.5619,2.5532,2.5466,2.5519,2.5531,2.5485,2.5446,2.5428,2.539,3.918,3.9141,3.8769,3.7226,3.5039,3.5059,3.5312,3.5703,3.5703,3.5469,3.5,3.4238,3.3418,3.2539,3.166,3.1816,3.2598,3.123,3.1348,3.2676,3.2246,3.2012,3.2012,3.2148,3.168,3.0762,3.0371,2.9941,2.9453,2.9082,2.8887,2.8867,2.8496,2.8242,2.8138,2.7756,2.7583,2.7574,2.8066,2.8476,2.8848,2.8496,2.8476,2.8848,2.8496,2.8086,2.7598,2.7571,2.7366,2.6876,2.6457,2.6598,2.7368,2.6611,2.6507,0.0,0.0,0.0,0.0,0.0,0.0,0.0,0.0,0.0,0.0,0.0,2.7051,2.582,2.6055,2.6269,2.6269,2.7402,2.8144,2.8178,2.8917,2.9312,2.8926,2.8885,2.8376,2.7168,2.8105,2.8222,2.6558,2.7022,2.7237,2.6346,2.5878,2.56,2.5577,2.5622,2.5654,2.5597,2.5664,2.5703,2.5703,2.5703,2.5703,2.5703,2.5703,2.5703,2.5703,2.5703,2.57,2.566,2.5619,2.5582,2.5543,2.5466,2.5409,2.5447,2.5432,2.5406,2.5399,2.539,2.5332,4.0332,4.0156,3.9394,3.9043,3.8926,3.8926,3.8809,3.8613,3.8613,3.8613,3.8496,3.7012,3.5918,3.5156,3.418,3.3789,3.3887,3.3555,3.3457,3.3555,3.3574,3.3516,3.3379,3.2812,3.2461,3.2324,3.1601,3.123,3.1211,3.0351,2.9941,2.9902,2.9062,2.9023,2.9707,2.9015,2.8633,2.863,2.8628,2.9062,2.9883,2.918,2.916,2.9844,2.9081,2.8553,2.8455,2.846,2.8403,2.8286,2.7563,2.7534,2.8275,2.7554,2.7439,0.0,2.8255,0.0,0.0,0.0,0.0,0.0,0.0,0.0,0.0,2.8125,2.75,2.5996,2.6641,2.7168,2.7168,2.8633,2.9609,2.9629,3.0386,3.0598,2.9863,2.9668,2.9023,2.75,2.8652,2.8965,2.7441,2.7925,2.8139,2.7283,2.6539,2.6081,2.5861,2.5746,2.5604,2.5597,2.5644,2.5703,2.5703,2.5703,2.5703,2.5703,2.5703,2.5703,2.5703,2.5703,2.5662,2.563,2.5582,2.5563,2.5505,2.5428,2.539,2.539,2.5341,2.5322,2.537,2.5351,2.5313,4.2578,4.1914,4.1758,4.1308,4.0723,4.0723,3.9902,3.8613,3.8613,3.8613,3.8594,3.8262,3.8008,3.7734,3.6211,3.5898,3.6445,3.4355,3.3789,3.4473,3.4453,3.4062,3.3457,3.3984,3.3867,3.3184,3.2988,3.291,3.291,3.2109,3.1699,3.168,3.084,3.0488,3.0642,0.0,0.0,0.0,3.0411,3.0792,3.1582,3.1465,3.1465,3.1601,3.078,0.0,2.932,2.9318,2.9032,2.8349,2.8129,0.0,0.0,0.0,0.0,0.0,0.0,0.0,0.0,0.0,0.0,0.0,2.9352,2.875,2.7402,2.7226,2.7109,2.6816,2.7559,2.8066,2.8066,2.8984,2.9609,2.9629,3.0371,3.082,3.0644,3.0039,2.9434,2.918,2.9394,2.9238,2.832,2.8808,2.9004,2.8182,2.7815,2.7636,2.7556,2.6428,2.5614,2.5541,2.5634,2.5703,2.5703,2.5703,2.5703,2.5703,2.5703,2.5703,2.5684,2.5654,2.5615,2.5601,2.5505,2.5447,2.5428,2.537,2.5332,2.5332,2.5313,2.5313,2.5313,2.5313,2.5313,4.3437,0.0,4.3047,4.2812,0.0,4.1973,4.1543,4.1055,4.0234,3.9648,3.9238,3.9258,3.9023,3.8535,3.7226,3.7129,3.7832,3.5664,3.5156,3.5937,3.5527,3.5117,3.4668,3.4687,3.4492,3.4043,3.3594,3.3379,3.3379,3.2969,3.2793,3.2773,3.1953,3.1543,3.1522,3.1107,3.0925,3.0919,3.0916,3.1097,3.1496,3.1517,3.1495,3.1446,3.1044,0.0,0.0,0.0,0.0,0.0,0.0,0.0,0.0,0.0,0.0,3.002,2.9757,2.9552,2.9572,2.9566,2.9765,3.0193,2.9824,2.9238,2.834,2.7891,2.7637,2.7656,2.8418,2.8945,2.8965,2.9726,3.0234,3.0273,3.0625,3.0918,3.0859,3.0527,3.0078,2.9726,2.998,2.9902,2.9043,2.9297,2.9434,2.8979,2.8437,2.8124,2.8037,2.7044,2.6083,2.5697,2.5658,2.5703,2.5703,2.5703,2.5703,2.5703,2.5703,2.5703,2.5703,2.5643,2.5601,2.5543,2.5466,2.539,2.537,2.5332,2.5313,2.5313,2.5313,2.5313,2.5313,2.5313,2.5313,4.4082,4.3926,4.3926,4.3848,4.3652,4.293,4.3027,4.3594,0.0,0.0,0.0,4.0566,4.0176,3.9453,3.8437,3.8379,3.8926,3.7266,3.6855,3.748,3.6797,3.6445,3.6406,3.5566,3.5156,3.5117,3.4277,3.3867,3.3848,3.3711,3.3633,3.3555,3.2812,3.2402,3.2344,3.1713,3.1333,3.1328,3.1196,3.1118,3.1114,3.1109,3.1081,3.104,3.0884,3.0786,3.0786,3.0786,3.0801,3.0767,3.0111,3.0063,3.0746,3.0174,3.0123,3.0767,3.0864,3.0923,3.0925,3.0916,3.0918,3.0918,3.0254,2.9766,2.9629,2.8945,2.8535,2.8535,2.9316,2.9824,2.9824,3.0449,3.0918,3.0898,3.0762,3.0703,3.0859,3.0742,3.0371,3.0,3.0449,3.0644,2.9941,2.9844,2.9839,2.9706,2.9026,2.8183,2.7928,2.7245,2.6498,2.5829,2.5703,2.5703,2.5703,2.5703,2.5703,2.5703,2.5703,2.5703,2.5684,2.5625,2.555,2.5524,2.5447,2.537,2.5313,2.5313,2.5313,2.5313,2.5313,2.5313,2.5313,2.5313,2.5313,4.5508,4.4824,4.4805,4.4394,4.3691,4.3574,4.3594,4.3672,4.3437,4.3281,4.3164,4.3164,4.3086,4.2891,4.1348,4.0703,4.0723,3.9023,3.8301,3.8418,3.8281,3.8223,3.8184,3.7344,3.6934,3.6875,3.6055,3.5644,3.5547,3.4883,3.4512,3.4414,3.3652,3.3223,3.3223,3.3105,3.3043,3.3049,3.2301,3.1933,3.1933,3.1921,3.1938,3.1893,3.1191,3.0799,3.0799,3.0801,3.08,3.08,3.0739,3.0771,3.0877,3.0782,3.0771,3.0859,3.0898,3.0918,3.0918,3.0918,3.0918,3.0898,3.0781,3.0391,2.9668,2.9492,2.9414,2.9453,3.0195,3.0703,3.0723,3.084,3.0918,3.0859,3.0234,3.0078,3.0781,3.0312,3.0098,3.0605,3.0801,3.0898,3.0703,3.0664,3.0644,3.0566,2.9771,2.8775,2.7585,2.6984,2.6558,2.5898,2.5703,2.5703,2.5703,2.5703,2.5703,2.5703,2.5703,2.5703,2.5703,2.5605,2.5531,2.5524,2.5409,2.5332,2.5313,2.5313,2.5313,2.5313,2.5313,2.5313,2.5313,2.5313,2.5313,4.6074,4.5723,4.5723,4.5469,4.5098,4.5117,4.4824,4.4473,4.4902,4.457,4.373,4.3711,4.3711,4.3555,4.1953,4.1445,4.1758,3.959,3.8867,3.9258,3.8828,3.8613,3.8574,3.8203,3.8008,3.7949,3.7129,3.6699,3.6621,3.582,3.5391,3.5332,3.4531,3.3867,3.3437,3.3379,3.3183,3.275,3.2343,3.2168,3.2168,3.2166,3.2165,3.2168,3.2148,3.2012,3.1582,3.1562,3.1348,3.0879,3.0879,3.0916,3.0914,3.0914,3.0916,3.0918,3.0918,3.1113,3.1582,3.1601,3.1797,3.2187,3.1406,3.0957,3.1016,3.0566,3.0312,3.0312,3.0684,3.0918,3.0918,3.0918,3.0918,3.0918,3.0527,3.0469,3.0762,3.0586,3.0469,3.084,3.0918,3.0918,3.0918,3.0918,3.0918,3.084,3.0114,2.9029,2.7762,2.7182,2.6652,2.5879,2.5703,2.5703,2.5703,2.5703,2.5703,2.5703,2.5703,2.5703,2.5703,2.5625,2.5566,2.5511,2.5409,2.5351,2.5313,2.5313,2.5313,2.5313,2.5313,2.5313,2.5313,2.5313,2.5313,4.6289,4.6289,4.6289,4.6289,4.6289,4.6289,4.5918,4.5371,4.6016,4.5547,4.4394,4.4297,4.4297,4.4141,4.2715,4.2402,4.2637,4.0742,4.0019,4.0351,3.9766,3.9355,3.918,3.9004,3.8887,3.8789,3.8008,3.7578,3.7519,3.6914,3.6582,3.6504,3.5723,3.4941,3.4297,3.4082,3.3574,3.2812,3.2773,3.2598,3.2207,3.2187,3.2285,3.25,3.2871,3.293,3.25,3.2305,3.1973,3.1504,3.1289,3.1172,3.1191,3.0996,3.0918,3.0918,3.1094,3.1582,3.2383,3.248,3.2656,3.3047,3.1953,3.1406,3.1777,3.1309,3.0918,3.0918,3.0898,3.0918,3.0918,3.0918,3.0918,3.0898,3.0703,3.0644,3.0859,3.0742,3.0703,3.084,3.0918,3.0918,3.0918,3.0918,3.0703,3.0215,2.9702,2.8907,2.7822,2.7044,2.6424,2.5918,2.5684,2.5703,2.5703,2.5703,2.5703,2.5703,2.5703,2.5703,2.5684,2.5644,2.5586,2.5517,2.5447,2.538,2.5313,2.5313,2.5313,2.5313,2.5313,2.5313,2.5313,2.5082,2.5024,4.6289,4.6289,4.6289,4.6289,4.6289,4.6289,4.623,4.6152,4.6269,4.625,4.5957,4.6055,4.5996,4.5937,4.5,4.459,4.4609,4.3672,4.2773,4.2168,4.209,4.166,4.0879,4.0137,3.9785,3.9668,3.8887,3.8476,3.8476,3.8359,3.832,3.8262,3.75,3.6973,3.6816,3.6113,3.5312,3.4492,3.4473,3.373,3.2305,3.2187,3.2539,3.3262,3.2676,3.2617,3.3262,3.2598,3.2519,3.3027,3.2441,3.209,3.2012,3.1348,3.0937,3.0996,3.166,3.2441,3.3203,3.3281,3.3027,3.2383,3.2207,3.1758,3.1172,3.0976,3.0918,3.0918,3.0918,3.0918,3.0918,3.0918,3.0918,3.0859,3.0293,3.0,3.0664,3.0195,3.0019,3.084,3.0918,3.0918,3.0918,3.0918,3.0312,2.9101,2.8769,2.8041,2.6618,2.61,2.593,2.5703,2.5664,2.5703,2.5703,2.5703,2.5703,2.5703,2.5703,2.5703,2.5684,2.5644,2.5559,2.555,2.5448,2.538,2.5332,2.5313,2.5313,2.5313,2.5313,2.5313,2.5236,2.4851,2.4466,4.6289,4.6289,4.6289,4.6289,4.6289,4.6289,4.6289,4.6289,4.6289,4.6289,4.6289,4.6289,4.6289,4.623,4.5391,4.5019,4.4941,4.4101,4.3516,4.3125,4.2637,4.2207,4.1855,4.1074,4.0684,4.0586,3.9785,3.9355,3.9277,3.8867,3.8613,3.8574,3.8223,3.7832,3.7324,3.6934,3.6113,3.4746,3.4707,3.4355,3.3769,3.3672,3.3828,3.416,3.4336,3.4297,3.416,3.3848,3.3594,3.3418,3.3086,3.291,3.291,3.2559,3.2383,3.2422,3.3203,3.3828,3.416,3.418,3.4023,3.3691,3.2754,3.2031,3.168,3.1211,3.0918,3.0918,3.0918,3.0918,3.0918,3.0918,3.0918,3.0859,3.0566,3.0508,3.0801,3.0586,3.0547,3.0879,3.0918,3.0918,3.0918,3.0918,3.0391,2.9238,2.8652,2.7754,2.6602,2.6019,2.5706,2.5664,2.5684,2.5703,2.5703,2.5703,2.5703,2.5703,2.5703,2.5703,2.5684,2.5684,2.5644,2.5586,2.5512,2.5428,2.539,2.5332,2.5313,2.5313,2.5313,2.5313,2.5313,2.5043,2.4543,4.6289,4.625,4.6289,4.6289,4.6289,4.6289,4.6289,4.6289,4.6289,4.6289,4.6289,4.6289,4.6289,4.6211,4.5625,4.5351,4.5254,4.4707,4.4277,4.4023,4.3379,4.3008,4.2715,4.1914,4.166,4.168,4.0781,4.0254,4.0215,3.9922,3.9551,3.9355,3.9297,3.8867,3.8066,3.7812,3.6816,3.5254,3.5254,3.5176,3.4805,3.4941,3.5059,3.5078,3.543,3.5449,3.5078,3.4844,3.4531,3.4141,3.3906,3.375,3.375,3.3535,3.3496,3.3769,3.4336,3.4805,3.5019,3.5059,3.4941,3.4629,3.334,3.2539,3.2383,3.1738,3.1406,3.1601,3.1387,3.123,3.0918,3.0918,3.0918,3.0918,3.0918,3.0918,3.0918,3.0918,3.0879,3.0918,3.0918,3.0918,3.0918,3.0879,3.0469,2.9316,2.8652,2.7832,2.6875,2.6054,2.5701,2.5687,2.5684,2.5703,2.5703,2.5703,2.5703,2.5703,2.5703,2.5703,2.5703,2.5703,2.5684,2.5605,2.5547,2.5495,2.5438,2.539,2.5332,2.5332,2.5332,2.5313,2.5313,2.5159,2.437,4.6211,4.6133,4.623,4.6289,4.6289,4.6289,4.6289,4.6289,4.6289,4.6289,4.6289,4.6289,4.6289,4.6289,4.6191,4.6211,4.6211,4.6094,4.5625,4.498,4.4805,4.4394,4.3613,4.2793,4.2754,4.3203,4.1836,4.1133,4.1172,4.1797,4.1836,4.1074,4.1016,4.0605,3.9668,3.8887,3.7695,3.6309,3.666,3.6387,3.5078,3.5547,3.5898,3.582,3.5195,3.5215,3.5703,3.5156,3.5039,3.582,3.5059,3.4648,3.457,3.3887,3.3867,3.4531,3.4707,3.5078,3.5762,3.5879,3.5547,3.4746,3.3887,3.334,3.3184,3.2578,3.2402,3.3125,3.2402,3.1738,3.1035,3.0918,3.0918,3.0918,3.0918,3.0918,3.0918,3.0918,3.0918,3.0918,3.0918,3.0918,3.0918,3.0918,3.0156,2.9043,2.8398,2.7832,2.6504,2.5879,2.5768,2.574,2.5723,2.5703,2.5703,2.5703,2.5703,2.5703,2.5703,2.5703,2.5703,2.5684,2.5664,2.5625,2.5605,2.555,2.5514,2.5466,2.5438,2.5418,2.537,2.5351,2.5313,2.4639,2.3918,4.6066,4.6133,4.625,4.6289,4.6289,4.6289,4.6289,4.6289,4.6289,4.6289,4.6289,4.6289,4.6289,4.6289,4.6289,4.6289,4.6289,4.6289,4.6133,4.5781,4.5254,4.4844,4.4492,4.3652,4.3359,4.3457,4.2519,4.1973,4.1992,4.2266,4.2266,4.2051,4.1953,4.1289,4.0078,3.9609,3.8828,3.7773,3.748,3.6973,3.6367,3.6133,3.6016,3.5996,3.5723,3.5684,3.5996,3.5684,3.5684,3.5996,3.5703,3.5527,3.5508,3.5234,3.5176,3.5488,3.5527,3.5664,3.5957,3.6016,3.5625,3.4805,3.4434,3.3965,3.3476,3.3125,3.291,3.2695,3.2441,3.1816,3.1152,3.0918,3.0918,3.0918,3.0918,3.0957,3.0918,3.0918,3.0918,3.0918,3.0918,3.0918,3.0918,3.0918,3.043,2.9414,2.9121,2.8516,2.7598,2.6914,2.6523,2.6387,2.6035,2.5703,2.5703,2.5703,2.5703,2.5703,2.5703,2.5703,2.5703,2.5703,2.5664,2.5664,2.5644,2.5605,2.5562,2.5522,2.5495,2.5429,2.5401,2.537,2.5313,2.487,2.4101,4.5929,4.6049,4.6171,4.623,4.623,4.6289,4.6289,4.6289,4.6289,4.6289,4.6289,4.6289,4.6289,4.6289,4.6289,4.6289,4.6289,4.6289,4.6289,4.625,4.5703,4.543,4.5273,4.4531,4.4258,4.4375,4.3652,4.3105,4.2891,4.3105,4.3105,4.2832,4.3066,4.2383,4.0976,4.0723,4.0176,3.9121,3.8437,3.793,3.7344,3.6738,3.6269,3.6055,3.6016,3.6016,3.6016,3.6016,3.6016,3.6016,3.6016,3.6016,3.6016,3.6016,3.6016,3.6016,3.5996,3.6016,3.6016,3.6016,3.5742,3.5176,3.4844,3.4492,3.4219,3.3984,3.3672,3.3398,3.2812,3.2285,3.1836,3.1504,3.1309,3.1309,3.1328,3.1445,3.1641,3.1484,3.1211,3.0976,3.0918,3.0918,3.0918,3.0918,3.0488,2.9726,2.9609,2.9238,2.8418,2.7832,2.7266,2.7012,2.6523,2.6055,2.582,2.5703,2.5703,2.5703,2.5703,2.5703,2.5703,2.5703,2.5703,2.5703,2.5684,2.5644,2.5625,2.5586,2.5517,2.5459,2.5426,2.5409,2.5351,2.5313,2.4351,4.5858,4.5935,4.6035,4.6094,4.6094,4.6211,4.6289,4.6269,4.6289,4.6289,4.6269,4.6289,4.6289,4.6289,4.6289,4.6289,4.6289,4.6289,4.6289,4.6269,4.623,4.6191,4.6133,4.5371,4.5293,4.5859,4.5293,4.4492,4.3769,4.4355,4.4375,4.3965,4.4433,4.3848,4.2363,4.2168,4.1484,4.0273,3.9805,3.8965,3.7539,3.7246,3.6797,3.6113,3.6016,3.6016,3.6016,3.6016,3.6016,3.6016,3.6016,3.6016,3.6016,3.6016,3.6016,3.6016,3.6016,3.6016,3.6016,3.6016,3.5996,3.5781,3.5215,3.5098,3.5469,3.5019,3.4805,3.5059,3.4082,3.3184,3.2988,3.2383,3.1973,3.2168,3.2109,3.248,3.2812,3.2578,3.1855,3.1113,3.0918,3.0918,3.0918,3.0918,3.0586,3.0,2.9746,2.9551,2.8828,2.8379,2.7891,2.7324,2.6719,2.6191,2.5918,2.5703,2.5703,2.5703,2.5703,2.5703,2.5703,2.5703,2.5703,2.5703,2.5703,2.5664,2.5664,2.5644,2.5605,2.5547,2.5518,2.5457,2.539,2.5178,2.437,4.5822,4.5834,4.5919,4.5959,4.5961,4.6106,4.6122,4.6069,4.6221,4.623,4.6191,4.6269,4.6289,4.6289,4.6289,4.6289,4.6289,4.6289,4.6289,4.6289,4.6289,4.6289,4.623,4.6016,4.5703,4.543,4.5156,4.4883,4.4707,4.4883,4.4844,4.4707,4.4863,4.4414,4.332,4.2695,4.2051,4.1582,4.0469,3.9316,3.8223,3.7598,3.6894,3.6133,3.6016,3.6016,3.6016,3.6016,3.6016,3.6016,3.6016,3.6016,3.6016,3.6016,3.6016,3.6016,3.6016,3.6016,3.6016,3.6016,3.6016,3.5957,3.5723,3.5723,3.5859,3.5195,3.4844,3.4961,3.3594,3.2578,3.2441,3.1797,3.166,3.2148,3.2676,3.2812,3.2637,3.1934,3.1269,3.0996,3.0918,3.0918,3.0918,3.0918,3.0781,3.0527,3.0449,3.0254,3.0,2.9043,2.8301,2.791,2.7109,2.6387,2.6094,2.5957,2.5957,2.5879,2.5801,2.5703,2.5703,2.5703,2.5703,2.5703,2.5703,2.5703,2.5703,2.5684,2.5644,2.5605,2.5565,2.5495,2.5389,2.4966,2.4389,4.5738,4.5738,4.5815,4.5866,4.5863,4.5971,4.5974,4.5927,4.6072,4.6113,4.6113,4.6191,4.6269,4.6289,4.6289,4.6289,4.6289,4.6289,4.6289,4.6289,4.6289,4.6289,4.6289,4.6289,4.6055,4.5605,4.5469,4.5488,4.5469,4.5488,4.5488,4.5488,4.5488,4.5058,4.418,4.332,4.2754,4.2285,4.1094,3.9824,3.875,3.8066,3.7226,3.6191,3.6016,3.6016,3.6016,3.6016,3.6016,3.6016,3.6016,3.6016,3.6016,3.6016,3.6016,3.6016,3.6016,3.6016,3.6016,3.6016,3.6016,3.6016,3.6016,3.6016,3.5859,3.5195,3.4726,3.4492,3.3223,3.2187,3.2129,3.1758,3.1797,3.2559,3.2754,3.2871,3.2519,3.2168,3.1719,3.1523,3.1133,3.0957,3.0918,3.0918,3.0918,3.0918,3.0918,3.0918,3.0703,2.9961,2.9258,2.8633,2.8086,2.7305,2.6406,2.625,2.623,2.6094,2.5957,2.5801,2.5703,2.5703,2.5703,2.5703,2.5703,2.5703,2.5703,2.5703,2.5664,2.5644,2.5605,2.5517,2.5441,2.5398,2.4803,4.5586,4.5605,4.5738,4.5776,4.5791,4.5863,4.5891,4.5869,4.5921,4.6033,4.6191,4.6172,4.625,4.6367,4.6504,4.6504,4.6406,4.6465,4.6504,4.6445,4.6367,4.6289,4.6289,4.6289,4.623,4.6191,4.6191,4.623,4.6152,4.6172,4.6289,4.6191,4.6133,4.5898,4.5039,4.4199,4.3379,4.2578,4.1699,4.043,3.8887,3.8691,3.7851,3.6289,3.6172,3.6133,3.6016,3.6016,3.6016,3.6016,3.6016,3.6016,3.6016,3.6016,3.6016,3.6016,3.6016,3.6016,3.6016,3.6016,3.6016,3.6016,3.6016,3.6016,3.5898,3.5234,3.4785,3.4805,3.3262,3.2246,3.2305,3.2148,3.25,3.3125,3.3027,3.2969,3.3379,3.332,3.2656,3.209,3.1484,3.0918,3.0918,3.0918,3.0918,3.0918,3.0918,3.0918,3.082,3.0332,2.9863,2.9297,2.8691,2.8066,2.7148,2.707,2.707,2.6992,2.668,2.6309,2.584,2.5703,2.5703,2.5703,2.5703,2.5703,2.5703,2.5703,2.5684,2.5664,2.5605,2.5547,2.5493,2.5441,2.5014,4.5586,4.5605,4.5642,4.5661,4.568,4.5776,4.5789,4.5712,4.5863,4.6291,4.6663,4.6339,4.6562,4.7226,4.7246,4.7266,4.7246,4.7246,4.7266,4.7148,4.6562,4.6328,4.6289,4.6289,4.6289,4.6289,4.6289,4.6289,4.6289,4.6289,4.6289,4.6289,4.6289,4.6211,4.584,4.5039,4.4238,4.3359,4.25,4.125,3.9844,3.9531,3.8691,3.7168,3.6973,3.6641,3.6094,3.6016,3.6016,3.6016,3.6016,3.6016,3.6133,3.6113,3.6094,3.6074,3.6016,3.6016,3.6016,3.6016,3.6016,3.6016,3.6016,3.6016,3.5976,3.5215,3.5078,3.5039,3.3652,3.2461,3.2832,3.2598,3.2715,3.3281,3.3711,3.4043,3.4043,3.3262,3.2402,3.2129,3.1484,3.1074,3.0996,3.0918,3.0918,3.0918,3.0918,3.0918,3.084,3.0449,2.9883,2.9453,2.8906,2.8476,2.8086,2.7988,2.7949,2.7949,2.7617,2.707,2.6406,2.5742,2.5723,2.5703,2.5703,2.5703,2.5703,2.5703,2.5684,2.5664,2.5664,2.5605,2.5547,2.5464,2.5013,4.5586,4.5586,4.5586,4.5797,4.6124,4.6219,4.6219,4.6163,4.6277,4.6584,4.6928,4.6687,4.7055,4.7932,4.7969,4.8008,4.8047,4.8066,4.8086,4.8008,4.7266,4.6699,4.6406,4.6289,4.6289,4.6289,4.6289,4.6289,4.6289,4.6289,4.6289,4.6289,4.6289,4.6289,4.6191,4.543,4.4766,4.4101,4.3066,4.1738,4.0547,4.0078,3.9199,3.8105,3.7851,3.7539,3.7148,3.7109,3.6992,3.6777,3.6641,3.6797,3.7324,3.6816,3.6562,3.6543,3.623,3.6016,3.6016,3.6016,3.6016,3.6016,3.6016,3.6016,3.5859,3.5215,3.5019,3.5059,3.3672,3.3144,3.3262,3.3281,3.3476,3.3984,3.4726,3.5059,3.4766,3.3906,3.3359,3.2988,3.2246,3.1445,3.1426,3.1152,3.0937,3.0918,3.0918,3.0918,3.0859,3.0351,2.9961,2.9609,2.957,2.9375,2.9043,2.8867,2.8848,2.8848,2.834,2.7812,2.709,2.6172,2.5801,2.5762,2.5723,2.5703,2.5703,2.5703,2.5684,2.5684,2.5703,2.5664,2.5586,2.5506,2.5026,4.572,4.574,4.574,4.6163,4.6817,4.6989,4.6931,4.6874,4.6852,4.6987,4.7137,4.7076,4.7602,4.861,4.8679,4.8711,4.8808,4.8828,4.8769,4.8574,4.8047,4.7422,4.6875,4.6426,4.6328,4.6289,4.6289,4.6289,4.6289,4.6289,4.6289,4.6289,4.6289,4.6289,4.6191,4.5547,4.5156,4.4687,4.3652,4.2578,4.1621,4.0859,4.0,3.9199,3.8516,3.8457,3.8398,3.8437,3.8301,3.7949,3.7617,3.8008,3.8867,3.793,3.7324,3.7051,3.6445,3.6016,3.6016,3.6016,3.6016,3.6016,3.6016,3.6016,3.5879,3.5371,3.5039,3.5156,3.4062,3.3672,3.3691,3.4219,3.457,3.4863,3.5547,3.5527,3.5039,3.4744,3.4703,3.459,3.3184,3.2344,3.1992,3.1523,3.0918,3.0918,3.0918,3.0918,3.0918,3.0703,3.0332,3.0,3.0156,3.0469,3.0098,2.9746,2.9746,2.9687,2.9004,2.8418,2.7871,2.7051,2.625,2.5898,2.6016,2.5898,2.5703,2.5703,2.5703,2.5703,2.5703,2.5664,2.5625,2.5547,2.5221,4.6605,4.6624,4.6644,4.6721,4.699,4.7548,4.749,4.6932,4.6949,4.7391,4.7719,4.7313,4.8039,4.9519,4.9478,4.9531,4.9556,4.9531,4.9297,4.873,4.873,4.8555,4.7988,4.709,4.6367,4.6348,4.6308,4.6289,4.6289,4.6289,4.6289,4.6289,4.6289,4.6289,4.623,4.6035,4.5644,4.5078,4.4531,4.3906,4.3066,4.2168,4.1308,4.0488,3.9355,3.8691,3.8613,3.8613,3.8867,3.9082,3.8809,3.8652,3.875,3.7969,3.7441,3.7168,3.6523,3.6016,3.6016,3.6016,3.6016,3.6016,3.6016,3.6016,3.6016,3.584,3.5703,3.5586,3.4961,3.4453,3.4453,3.457,3.5019,3.5508,3.5801,3.5898,3.5586,3.5061,3.4782,3.4394,3.3281,3.2109,3.2226,3.1621,3.1172,3.0996,3.0996,3.0957,3.1016,3.1113,3.0879,3.0625,3.0488,3.0742,3.0605,3.0293,3.0293,3.0293,2.9726,2.9082,2.8535,2.8242,2.7539,2.6894,2.6387,2.6211,2.6016,2.5703,2.5703,2.5703,2.5703,2.5664,2.5625,2.5566,2.5476,4.7471,4.7471,4.7451,4.7702,4.8105,4.8528,4.8221,4.7663,4.793,4.8103,4.8201,4.8068,4.8933,5.0183,5.024,5.024,5.0315,5.0364,5.0019,4.9473,4.9355,4.9219,4.8828,4.8027,4.7363,4.6953,4.6465,4.6328,4.6289,4.6308,4.6269,4.6211,4.6211,4.6211,4.6211,4.6211,4.6016,4.5625,4.5176,4.4746,4.4219,4.3027,4.2012,4.1308,4.0312,3.9805,3.9863,3.9844,4.0078,4.0273,4.0059,3.9805,3.9551,3.8633,3.7969,3.7715,3.666,3.6094,3.6016,3.6016,3.6016,3.6016,3.6016,3.6016,3.6016,3.6016,3.6016,3.5918,3.5605,3.5312,3.5312,3.5273,3.5566,3.5755,3.5903,3.584,3.5749,3.543,3.5193,3.495,3.4082,3.3516,3.3047,3.2285,3.2109,3.2207,3.2266,3.2226,3.2109,3.2129,3.1719,3.1406,3.1035,3.0898,3.0898,3.0801,3.0742,3.0684,3.0449,2.9844,2.9277,2.9121,2.8965,2.8066,2.7051,2.6738,2.6504,2.6133,2.5723,2.5703,2.5684,2.5684,2.5644,2.5566,2.5512,4.8182,4.8298,4.8298,4.874,4.9356,4.9509,4.9105,4.849,4.9067,4.8874,4.8529,4.9125,4.9702,5.0529,5.0644,5.0741,5.0837,5.0913,5.0532,5.0156,5.0156,4.9902,4.9453,4.9062,4.8476,4.7734,4.6992,4.6621,4.6543,4.6348,4.625,4.6133,4.6113,4.6113,4.6094,4.6113,4.6113,4.6035,4.5605,4.5293,4.4922,4.3574,4.2285,4.1308,4.1074,4.0937,4.0918,4.0957,4.1113,4.1191,4.1191,4.1113,4.0625,3.9609,3.8476,3.834,3.6973,3.6465,3.6367,3.6309,3.6269,3.6191,3.6035,3.6016,3.6016,3.6016,3.6016,3.6016,3.5898,3.5898,3.5996,3.5836,3.5834,3.5905,3.5796,3.5743,3.5719,3.5805,3.5688,3.5528,3.4681,3.4049,3.3899,3.3457,3.3418,3.3379,3.3418,3.3398,3.3242,3.2832,3.2285,3.1777,3.1309,3.0976,3.0918,3.0918,3.0918,3.0898,3.082,3.0469,2.998,2.9961,2.9648,2.8555,2.7715,2.7363,2.6797,2.6172,2.5879,2.5762,2.5703,2.5684,2.5644,2.5586,2.5546,4.8529,4.9183,4.9183,4.9279,4.951,5.0163,4.9913,4.9279,4.9336,4.9336,4.9202,4.9356,4.9952,5.051,5.0683,5.0702,5.076,5.0856,5.0852,5.0699,5.075,5.0636,5.046,4.998,4.9355,4.8535,4.7734,4.7324,4.7012,4.6699,4.623,4.6133,4.6075,4.6048,4.5997,4.6035,4.6094,4.6172,4.5996,4.5957,4.5566,4.4277,4.2617,4.1406,4.1191,4.1191,4.1191,4.1191,4.1191,4.1191,4.1191,4.0801,4.0195,3.9199,3.8437,3.7793,3.7305,3.6934,3.707,3.709,3.707,3.6934,3.6484,3.6094,3.6055,3.6074,3.6172,3.6113,3.6094,3.6055,3.6016,3.5949,3.5931,3.591,3.5856,3.5774,3.5662,3.5649,3.568,3.5597,3.4937,3.4446,3.4415,3.4291,3.4082,3.3965,3.3965,3.3965,3.3867,3.3184,3.2383,3.1894,3.1406,3.1133,3.0918,3.0918,3.0918,3.0918,3.0879,3.0879,3.0586,3.0723,3.0234,2.9238,2.8437,2.793,2.7246,2.6445,2.5957,2.5781,2.5742,2.5703,2.5664,2.5609,2.5565,4.9279,5.0048,5.0087,5.0067,5.0144,5.0491,5.0202,4.9548,4.9856,4.9817,4.9644,4.9856,5.0279,5.0625,5.0683,5.0683,5.0721,5.076,5.0818,5.0893,5.0957,5.1045,5.1068,5.0673,5.0391,4.9687,4.8769,4.7581,4.6875,4.6406,4.6113,4.5976,4.5941,4.5911,4.5866,4.5944,4.6025,4.6094,4.623,4.6269,4.6113,4.457,4.2891,4.166,4.1191,4.1191,4.1191,4.1191,4.1191,4.1191,4.1191,4.0723,4.0059,3.9473,3.8867,3.8086,3.7598,3.7559,3.7871,3.7949,3.7773,3.7305,3.6875,3.6699,3.668,3.6719,3.666,3.666,3.6641,3.6465,3.6055,3.5976,3.5825,3.5794,3.5739,3.5655,3.5584,3.5565,3.5565,3.5603,3.5264,3.5021,3.5079,3.4894,3.4633,3.4551,3.4527,3.4513,3.4469,3.3672,3.2773,3.2168,3.1699,3.1152,3.0976,3.1016,3.0898,3.0879,3.0996,3.0996,3.0898,3.0859,3.0684,3.0117,2.9394,2.8535,2.7851,2.7109,2.6484,2.582,2.5742,2.5684,2.5684,2.5652,2.5593,4.974,5.0683,5.0683,5.0683,5.0683,5.0683,5.0317,4.9894,5.0356,5.0279,4.9837,5.0337,5.0644,5.0683,5.0683,5.0683,5.0683,5.0702,5.076,5.0818,5.0856,5.0914,5.0991,5.101,5.0816,5.0157,4.9504,4.8022,4.7044,4.6289,4.5976,4.5871,4.5805,4.5796,4.5772,4.5838,4.5929,4.6045,4.6191,4.6191,4.5469,4.4258,4.2754,4.1387,4.1191,4.1191,4.1191,4.1191,4.1191,4.1191,4.1133,4.082,4.0078,3.9883,3.957,3.8887,3.8203,3.832,3.8613,3.8867,3.8516,3.7793,3.7617,3.748,3.7363,3.7363,3.7559,3.7559,3.7559,3.7363,3.6836,3.6269,3.6075,3.594,3.5801,3.5526,3.5526,3.5507,3.5507,3.5507,3.5507,3.5449,3.5366,3.5393,3.5098,3.5097,3.5091,3.5174,3.5042,3.4248,3.3398,3.2656,3.1992,3.1269,3.1055,3.1172,3.0996,3.0781,3.1055,3.123,3.1035,3.084,3.0644,3.0449,2.9883,2.9043,2.8418,2.7598,2.6699,2.6055,2.582,2.5684,2.5684,2.5664,2.5624,4.9202,5.0683,5.0683,5.0683,5.0683,5.0683,5.0644,5.0548,5.0625,5.0644,5.0433,5.0606,5.0683,5.0683,5.0683,5.0683,5.0683,5.0683,5.0702,5.0741,5.0741,5.076,5.0779,5.0875,5.0567,5.0113,4.9693,4.9146,4.7891,4.6599,4.5921,4.5823,4.5765,4.5757,4.568,4.5776,4.5819,4.5872,4.6046,4.5488,4.4238,4.3203,4.2266,4.1484,4.1191,4.1191,4.1191,4.1191,4.1191,4.1191,4.1191,4.0762,4.0059,3.9883,3.9883,3.9766,3.9648,3.9648,3.9746,3.9746,3.9375,3.8652,3.8437,3.8027,3.7949,3.8242,3.8574,3.8437,3.8437,3.8301,3.791,3.7422,3.7096,3.6588,3.6113,3.5738,3.5532,3.5507,3.5507,3.5507,3.5507,3.5507,3.5449,3.5526,3.5592,3.5624,3.5663,3.5705,3.5386,3.4474,3.3471,3.2575,3.2191,3.1524,3.129,3.1382,3.1309,3.0945,3.1003,3.132,3.1018,3.0751,3.0742,3.0488,2.9961,2.9316,2.8476,2.7598,2.6738,2.6172,2.5801,2.5703,2.5703,2.5664,2.5644,4.9125,5.0683,5.0683,5.0683,5.0683,5.0683,5.0683,5.0683,5.0683,5.0683,5.0683,5.0683,5.0683,5.0683,5.0683,5.0683,5.0683,5.0683,5.0683,5.0683,5.0683,5.0683,5.0721,5.0741,5.0471,5.0048,4.9298,4.8617,4.7901,4.7182,4.6333,4.5738,4.568,4.568,4.5605,4.5719,4.5786,4.5873,4.5879,4.5273,4.4023,4.3242,4.25,4.1289,4.1211,4.1191,4.1191,4.1191,4.1191,4.1191,4.1191,4.1055,4.0742,4.0644,4.0644,4.0625,4.0625,4.0625,4.0644,4.0605,4.0098,3.957,3.9297,3.916,3.9004,3.9453,3.9746,3.9375,3.9355,3.916,3.873,3.8144,3.7588,3.7038,3.6502,3.5949,3.5608,3.5526,3.5507,3.5507,3.5507,3.5507,3.5507,3.5526,3.5565,3.5559,3.5553,3.5541,3.5104,3.4268,3.3228,3.2145,3.1952,3.1758,3.1681,3.171,3.1758,3.1438,3.0857,3.1012,3.0799,3.0642,3.0667,3.0479,2.998,2.9277,2.8457,2.7617,2.6738,2.6191,2.5703,2.5703,2.5703,2.5703,2.5654,4.899,5.0375,5.0606,5.0683,5.0683,5.0683,5.0683,5.0683,5.0683,5.0683,5.0683,5.0683,5.0683,5.0683,5.0683,5.0683,5.0683,5.0683,5.0683,5.0683,5.0683,5.0683,5.0587,5.0548,5.0317,5.0375,4.926,4.8354,4.7777,4.7355,4.6719,4.5663,4.5605,4.5605,4.5605,4.568,4.5755,4.5857,4.5706,4.4961,4.3887,4.3418,4.248,4.1641,4.1191,4.1191,4.1191,4.1191,4.1191,4.1191,4.1191,4.1152,4.1094,4.1074,4.1074,4.1074,4.1074,4.1074,4.1074,4.1016,4.0703,4.0215,3.9941,3.9844,4.0234,4.0859,4.1035,4.0254,4.0234,3.9844,3.9318,3.8933,3.8229,3.7597,3.6925,3.6295,3.5738,3.5603,3.5507,3.5507,3.5507,3.5507,3.5507,3.5507,3.5507,3.5507,3.5468,3.5449,3.4872,3.4154,3.3397,3.2439,3.2316,3.2278,3.2228,3.2184,3.2199,3.191,3.1314,3.1018,3.0967,3.0779,3.0662,3.0369,2.997,2.918,2.832,2.7539,2.6758,2.6172,2.5703,2.5703,2.5703,2.5691,2.5626,4.8644,4.9567,5.0337,5.0625,5.0644,5.0683,5.0683,5.0587,5.0664,5.0683,5.0683,5.0683,5.0683,5.0683,5.0683,5.0683,5.0683,5.0683,5.0683,5.0683,5.0683,5.0683,5.0491,5.0067,4.9586,4.9567,4.8875,4.8048,4.7434,4.7395,4.6701,4.5836,4.5624,4.5586,4.5586,4.5624,4.5738,4.5726,4.5433,4.4758,4.3867,4.3183,4.2305,4.1562,4.123,4.1191,4.1211,4.1191,4.1191,4.1191,4.1191,4.1191,4.1191,4.1191,4.1191,4.1191,4.1172,4.1172,4.1172,4.1133,4.0762,4.0215,4.0019,4.0312,4.082,4.1035,4.1094,4.0976,4.084,4.082,4.0431,4.0026,3.9093,3.8254,3.7483,3.6642,3.6065,3.5603,3.5507,3.5507,3.5507,3.5507,3.5507,3.5507,3.5507,3.5507,3.5468,3.543,3.4916,3.4263,3.3763,3.3141,3.2961,3.2884,3.2884,3.2833,3.2699,3.2256,3.1679,3.1525,3.148,3.1207,3.0681,3.033,2.9902,2.9043,2.8281,2.7734,2.707,2.6152,2.5742,2.5898,2.5736,2.5602,2.5526,4.8298,4.8625,4.8971,4.9413,4.9952,5.0471,5.0394,5.0048,5.0452,5.0683,5.0683,5.0683,5.0683,5.0683,5.0683,5.0683,5.0683,5.0683,5.0683,5.0683,5.0683,5.0683,5.0394,4.9913,4.9413,4.9144,4.849,4.7722,4.7069,4.6933,4.6336,4.5701,4.5586,4.5586,4.5586,4.5605,4.5719,4.5745,4.5499,4.5051,4.4453,4.4062,4.3262,4.2051,4.1953,4.1641,4.1308,4.1211,4.1191,4.1211,4.1211,4.123,4.1191,4.1191,4.1191,4.1172,4.1133,4.1074,4.1093,4.1135,4.1013,4.0859,4.0664,4.0742,4.1133,4.1191,4.1191,4.1172,4.1109,4.1048,4.09,4.0505,3.9907,3.9008,3.8099,3.7199,3.643,3.5911,3.5545,3.5545,3.5507,3.5507,3.5507,3.5507,3.5507,3.5488,3.5468,3.532,3.482,3.4436,3.3955,3.3705,3.3526,3.3391,3.3372,3.3276,3.3141,3.2679,3.2141,3.1821,3.1648,3.1102,3.0621,3.0268,2.9902,2.9199,2.8594,2.8125,2.7363,2.6348,2.6133,2.6289,2.6006,2.5614,2.5455,4.7528,4.774,4.7759,4.824,4.9048,4.9663,4.9721,4.9567,5.001,5.0491,5.0683,5.0683,5.0683,5.0683,5.0683,5.0683,5.0683,5.0683,5.0683,5.0683,5.0683,5.0683,5.0298,4.9644,4.8856,4.8663,4.7759,4.6856,4.6396,4.6106,4.5913,4.574,4.5586,4.5586,4.5586,4.5605,4.568,4.577,4.5757,4.5281,4.457,4.4531,4.3887,4.2598,4.2285,4.2109,4.1738,4.1621,4.1465,4.1426,4.1387,4.1426,4.1289,4.1172,4.1148,4.1109,4.1051,4.0974,4.0984,4.1016,4.1089,4.0918,4.0918,4.0937,4.1062,4.1133,4.1133,4.1113,4.1032,4.0966,4.0947,4.0684,4.0145,3.9234,3.8849,3.8027,3.6944,3.6252,3.5834,3.557,3.5545,3.5507,3.5507,3.5507,3.5507,3.5507,3.5488,3.5243,3.4691,3.4384,3.4205,3.407,3.4032,3.391,3.3814,3.3718,3.366,3.3699,3.3051,3.202,3.1597,3.1133,3.08,3.0578,3.0117,2.9434,2.9023,2.8769,2.7715,2.6484,2.6484,2.658,2.6293,2.5889,2.5505,4.622,4.6894,4.6932,4.7375,4.8048,4.8162,4.8643,4.9221,4.9471,4.999,5.0625,5.0644,5.0644,5.0664,5.0683,5.0683,5.0683,5.0683,5.0683,5.0683,5.0683,5.0683,5.0106,4.9298,4.8394,4.799,4.7182,4.6317,4.5778,4.6164,4.6087,4.5778,4.5586,4.5586,4.5586,4.5586,4.568,4.5776,4.5791,4.5032,4.4492,4.4624,4.3984,4.3125,4.2734,4.2656,4.2402,4.2344,4.2148,4.1855,4.1973,4.1933,4.166,4.1314,4.1234,4.1293,4.115,4.0992,4.0872,4.0856,4.0915,4.0892,4.0867,4.084,4.0864,4.0918,4.1016,4.0991,4.0985,4.093,4.085,4.0696,4.0119,3.9677,3.9277,3.8507,3.7406,3.629,3.5834,3.5565,3.5526,3.5507,3.5507,3.5507,3.5507,3.5507,3.5507,3.5185,3.473,3.4595,3.4551,3.4584,3.4584,3.4372,3.4257,3.418,3.418,3.4314,3.3859,3.2721,3.1995,3.1661,3.1313,3.0976,3.0449,2.9844,2.9668,2.9512,2.8594,2.7754,2.6914,2.6745,2.6468,2.6102,2.5601,4.6278,4.6028,4.6028,4.6201,4.6586,4.7644,4.8279,4.8586,4.9144,4.9875,5.0414,5.0144,5.0202,5.051,5.0683,5.0683,5.0683,5.0683,5.0683,5.0664,5.0625,5.0683,5.0125,4.8971,4.8086,4.7702,4.6874,4.6009,4.5624,4.6047,4.5951,4.5643,4.5586,4.5586,4.5586,4.5586,4.5624,4.5661,4.5642,4.5447,4.5095,4.5191,4.4896,4.3809,4.3751,4.3549,4.3175,4.3164,4.2949,4.2598,4.2754,4.2499,4.2412,4.2179,4.199,4.2318,4.2414,4.2063,4.1694,4.1451,4.1238,4.1036,4.091,4.0938,4.0842,4.0831,4.0859,4.0909,4.0978,4.09,4.0735,4.0639,4.0239,3.9931,3.9431,3.8507,3.745,3.6353,3.5622,3.5545,3.5507,3.5507,3.5507,3.5507,3.5507,3.5507,3.5507,3.5507,3.5147,3.5166,3.518,3.5199,3.5141,3.4872,3.4661,3.443,3.4212,3.4154,3.3859,3.3189,3.2615,3.2237,3.1894,3.1601,3.0957,3.0332,3.0078,2.9863,2.9824,2.9219,2.8175,2.7238,2.6844,2.6237,2.5466,4.6124,4.5605,4.5586,4.5586,4.5817,4.7105,4.7798,4.8163,4.8721,4.9298,4.9606,4.9471,4.9683,5.0202,5.0548,5.0683,5.0683,5.0683,5.0337,5.0317,5.024,4.9952,4.9298,4.849,4.7721,4.7278,4.6471,4.5586,4.5586,4.5586,4.5605,4.5605,4.5586,4.5586,4.5586,4.5586,4.5586,4.5605,4.5586,4.5451,4.5343,4.5346,4.5324,4.4739,4.4473,4.4336,4.405,4.3916,4.3844,4.3596,4.3403,4.3173,4.3284,4.3072,4.2789,4.315,4.3162,4.2777,4.2409,4.2274,4.2079,4.1809,4.1562,4.1562,4.1601,4.1812,4.1544,4.1422,4.1186,4.0935,4.0812,4.0677,4.0392,4.0085,3.9738,3.8854,3.8142,3.7084,3.6276,3.6122,3.5699,3.5641,3.5603,3.5507,3.5507,3.5507,3.5507,3.5507,3.5507,3.5507,3.5507,3.5488,3.5468,3.5238,3.4853,3.4487,3.427,3.4039,3.3804,3.3557,3.3283,3.293,3.2578,3.209,3.1289,3.0625,3.0332,3.0156,3.0156,2.981,2.9032,2.8155,2.7373,2.6429,2.5505,4.5586,4.5586,4.5586,4.5586,4.574,4.6509,4.7298,4.8048,4.8067,4.8125,4.8221,4.899,4.9183,4.949,5.0164,5.0452,5.0414,5.0433,5.0067,4.9605,4.9451,4.8951,4.8317,4.7509,4.7221,4.674,4.6105,4.5586,4.5586,4.5586,4.5586,4.5586,4.5586,4.5586,4.5586,4.5586,4.5586,4.5586,4.5566,4.5374,4.5233,4.5351,4.5269,4.4934,4.4718,4.4732,4.4622,4.466,4.4326,4.4163,4.417,4.4007,4.3747,4.3355,4.3261,4.3299,4.3374,4.3201,4.3162,4.3124,4.3104,4.2951,4.3143,4.3162,4.2912,4.2698,4.2414,4.2078,4.1825,4.1347,4.1004,4.0754,4.0489,4.0354,4.0258,3.9662,3.9104,3.8296,3.7488,3.6911,3.6276,3.6065,3.6084,3.5968,3.5795,3.5757,3.5738,3.5507,3.5507,3.5507,3.5507,3.5488,3.5488,3.5488,3.5161,3.4808,3.4853,3.4808,3.4359,3.41,3.3857,3.3555,3.2969,3.2324,3.1484,3.0918,3.0605,3.0508,3.0527,3.0049,2.937,2.8597,2.7651,2.6534,2.5659,4.5586,4.5586,4.5586,4.5586,4.5624,4.5874,4.6778,4.7952,4.7548,4.7509,4.8105,4.774,4.8029,4.849,4.874,4.926,4.9356,4.926,4.9279,4.9009,4.868,4.8373,4.7854,4.7221,4.6971,4.6586,4.6105,4.5586,4.5586,4.5586,4.5586,4.5586,4.5586,4.5586,4.5586,4.5586,4.5586,4.5586,4.5586,4.5413,4.5278,4.547,4.5374,4.5259,4.5182,4.522,4.5297,4.5336,4.5143,4.525,4.4716,4.4514,4.5175,4.4489,4.4124,4.4778,4.4432,4.3951,4.397,4.397,4.3951,4.4105,4.4412,4.3989,4.3566,4.3239,4.3159,4.2852,4.2332,4.1793,4.1254,4.0927,4.0639,4.045,4.0296,3.9873,3.9315,3.8777,3.8027,3.7546,3.6911,3.6873,3.6834,3.643,3.6257,3.618,3.5968,3.5661,3.5507,3.5507,3.5507,3.5507,3.5507,3.5507,3.554,3.5284,3.5482,3.5559,3.5087,3.4805,3.4805,3.4375,3.3457,3.2539,3.166,3.1191,3.0879,3.0781,3.0566,3.0094,2.9427,2.8705,2.789,2.6794,2.5909,4.5586,4.5586,4.5586,4.5778,4.6009,4.574,4.6394,4.7336,4.674,4.6701,4.7067,4.699,4.7163,4.7625,4.8009,4.8452,4.8798,4.8491,4.8299,4.7988,4.7871,4.7391,4.7008,4.6701,4.6394,4.6163,4.597,4.5586,4.5586,4.5586,4.5586,4.5586,4.5586,4.5586,4.5586,4.5586,4.5586,4.5586,4.5586,4.5586,4.5586,4.5586,4.5586,4.5586,4.5586,4.5661,4.5719,4.5738,4.5757,4.5776,4.5084,4.5161,4.5661,4.5124,4.4893,4.5374,4.5143,4.4836,4.4816,4.4797,4.4797,4.4913,4.5259,4.4989,4.4624,4.4316,4.3989,4.3624,4.2854,4.2143,4.162,4.1116,4.0793,4.0489,4.0181,3.9854,3.9431,3.8988,3.8527,3.8084,3.7892,3.7873,3.7603,3.7123,3.6642,3.6411,3.6045,3.5622,3.5507,3.5507,3.5507,3.5507,3.5507,3.5507,3.554,3.5605,3.5681,3.5786,3.5716,3.5527,3.5644,3.4707,3.332,3.25,3.1816,3.1484,3.123,3.0723,3.0383,3.0044,2.9743,2.908,2.8236,2.7091,2.636,4.5586,4.5586,4.5586,4.599,4.6624,4.5913,4.6067,4.6663,4.599,4.5624,4.5836,4.6432,4.6721,4.6874,4.7298,4.7702,4.7855,4.7664,4.7375,4.6891,4.6852,4.6508,4.6084,4.5624,4.5836,4.5701,4.5586,4.5586,4.5586,4.5586,4.5586,4.5586,4.5586,4.5586,4.5586,4.5586,4.5586,4.5586,4.5586,4.5586,4.5586,4.5586,4.5586,4.5586,4.5586,4.5605,4.5605,4.5586,4.5586,4.5586,4.5586,4.5566,4.5547,4.5547,4.5547,4.5528,4.5451,4.5413,4.5355,4.5355,4.5413,4.547,4.5586,4.5451,4.5182,4.5066,4.4739,4.4374,4.3682,4.3104,4.2582,4.1639,4.1066,4.0796,4.0527,4.0277,3.9988,3.9623,3.9315,3.8969,3.8873,3.8834,3.8661,3.8219,3.7777,3.7084,3.6565,3.6103,3.5872,3.5892,3.568,3.5661,3.5526,3.5545,3.5586,3.5647,3.5732,3.5813,3.5919,3.5957,3.584,3.459,3.3008,3.2402,3.1914,3.1816,3.1562,3.0898,3.0508,3.0711,3.0292,2.9571,2.8621,2.7533,2.6783,4.5586,4.5586,4.5586,4.574,4.5874,4.5701,4.5701,4.5874,4.5701,4.5586,4.5643,4.5817,4.5951,4.6105,4.6241,4.6606,4.7027,4.6778,4.6604,4.6469,4.6313,4.6007,4.5661,4.5586,4.5586,4.5586,4.5586,4.5586,4.5586,4.5586,4.5586,4.5586,4.5586,4.5586,4.5586,4.5586,4.5586,4.5586,4.5586,4.5586,4.5586,4.5586,4.5586,4.5586,4.5586,4.5586,4.5586,4.5586,4.5586,4.5586,4.5586,4.5586,4.5586,4.5586,4.5586,4.5586,4.5586,4.5586,4.5586,4.5586,4.5586,4.5586,4.5586,4.5586,4.5566,4.5586,4.5413,4.5028,4.4566,4.3989,4.3278,4.222,4.1316,4.1085,4.095,4.0758,4.0566,4.0335,4.0104,3.9931,3.9815,3.97,3.9546,3.9238,3.8854,3.8373,3.7853,3.7411,3.7065,3.6873,3.6238,3.6065,3.5661,3.5617,3.5643,3.5707,3.5786,3.585,3.5957,3.5996,3.5976,3.5039,3.3887,3.2734,3.207,3.2012,3.1641,3.0723,3.0547,3.0879,3.0593,2.9751,2.9121,2.8159,2.739,4.5586,4.5586,4.5586,4.5586,4.5586,4.5586,4.5586,4.5586,4.5586,4.5586,4.5568,4.5476,4.5438,4.5513,4.5476,4.5686,4.622,4.5853,4.595,4.6007,4.5969,4.5738,4.5586,4.5586,4.5586,4.5586,4.5586,4.5586,4.5586,4.5586,4.5586,4.5586,4.5586,4.5586,4.5586,4.5586,4.5586,4.5586,4.5586,4.5586,4.5586,4.5586,4.5586,4.5586,4.5586,4.5586,4.5586,4.5586,4.5586,4.5586,4.5586,4.5586,4.5586,4.5586,4.5586,4.5586,4.5586,4.5586,4.5586,4.5586,4.5586,4.5586,4.5586,4.5586,4.5586,4.5586,4.5586,4.5201,4.4624,4.4047,4.3258,4.2277,4.1393,4.0912,4.12,4.1296,4.1239,4.1143,4.0719,4.0258,4.02,4.0181,3.9931,3.9469,3.9123,3.8873,3.8488,3.8142,3.7892,3.7796,3.7161,3.6565,3.6199,3.5757,3.5617,3.5734,3.5867,3.5935,3.6122,3.5762,3.5605,3.5469,3.4844,3.3301,3.2344,3.2285,3.1758,3.0898,3.0586,3.084,3.0425,2.9821,2.9283,2.8852,2.8335,4.547,4.5566,4.5586,4.5586,4.5586,4.5586,4.5586,4.5586,4.5586,4.5586,4.5549,4.5282,4.5322,4.5342,4.5263,4.5381,4.5476,4.5607,4.5663,4.568,4.5661,4.5586,4.5586,4.5586,4.5586,4.5586,4.5586,4.5586,4.5586,4.5586,4.5586,4.5586,4.5586,4.5586,4.5586,4.5586,4.5586,4.5586,4.5586,4.5586,4.5586,4.5586,4.5586,4.5586,4.5586,4.5586,4.5586,4.5586,4.5586,4.5586,4.5586,4.5586,4.5586,4.5586,4.5586,4.5586,4.5586,4.5586,4.5586,4.5586,4.5586,4.5586,4.5586,4.5586,4.5586,4.5586,4.5586,4.5297,4.4701,4.4066,4.3258,4.2431,4.1585,4.1046,4.145,4.1893,4.1912,4.1777,4.1162,4.0604,4.0585,4.0585,4.02,3.9738,3.9508,3.9258,3.8988,3.8604,3.8354,3.8392,3.8123,3.743,3.6873,3.6411,3.5958,3.5976,3.6211,3.654,3.6641,3.5859,3.5332,3.5488,3.4922,3.334,3.2617,3.2656,3.209,3.1269,3.1074,3.0918,3.0551,3.0161,2.9802,2.9429,2.9319,4.497,4.5586,4.5586,4.5586,4.5586,4.5586,4.5586,4.5586,4.5586,4.5586,4.5513,4.5263,4.5159,4.5201,4.5159,4.5222,4.5342,4.5495,4.5586,4.5586,4.5586,4.5586,4.5586,4.5586,4.5586,4.5586,4.5586,4.5586,4.5586,4.5586,4.5586,4.5586,4.5586,4.5586,4.5586,4.5586,4.5586,4.5586,4.5586,4.5586,4.5586,4.5586,4.5586,4.5586,4.5586,4.5586,4.5586,4.5586,4.5586,4.5586,4.5586,4.5586,4.5586,4.5586,4.5586,4.5586,4.5586,4.5586,4.5586,4.5586,4.5586,4.5586,4.5586,4.5586,4.5586,4.5586,4.5547,4.5451,4.4893,4.4316,4.3547,4.2662,4.1835,4.1643,4.1797,4.2277,4.2547,4.1931,4.1239,4.1008,4.095,4.0758,4.0431,4.0181,4.0181,4.0008,3.9988,3.9642,3.9508,3.9315,3.9027,3.8426,3.7733,3.7174,3.6758,3.6582,3.6758,3.7109,3.7168,3.6484,3.6035,3.5859,3.5039,3.3711,3.3164,3.3125,3.2441,3.1484,3.1367,3.1172,3.0859,3.0515,3.0191,2.9979,2.9841]},{"header":{"parameterUnit":"m.s-1","parameterCategory":1,"la1":31.0,"la2":29.5877,"lo1":-88.7671,"lo2":-86.6584,"dy":0.0162,"dx":0.0185,"nx":115,"ny":88,"refTime":"2023-05-14T06:00:00:Z","depth":0,"parameterNumber":3,"parameterNumberName":"V-component_of_WINDS"},"data":[0.0,0.0,0.0,0.0,0.0,0.0,0.0,0.0,0.0,0.0,0.0,0.0,0.0,0.0,0.0,0.0,0.0,0.0,0.0,0.0,0.0,0.0,0.0,0.0,0.0,0.0,0.0,0.0,0.0,0.0,0.0,0.0,0.0,0.0,0.0,0.0,0.0,0.0,0.0,0.0,0.0,0.0,0.0,0.0,0.0,0.0,0.0,0.0,0.0,0.0,0.0,0.0,0.0,0.0,0.0,0.0,0.0,0.0,0.0,0.0,0.0,0.0,0.0,0.0,0.0,0.0,0.0,0.0,0.0,0.0,0.0,0.0,0.0,0.0,0.0,0.0,0.0,0.0,0.0,0.0,0.0,0.0,0.0,0.0,0.0,0.0,0.0,0.0,0.0,0.0,0.0,0.0,0.0,0.0,0.0,0.0,0.0,0.0,0.0,0.0,0.0,0.0,0.0,0.0,0.0,0.0,0.0,0.0,0.0,0.0,0.0,0.0,0.0,0.0,0.0,0.0,0.0,0.0,0.0,0.0,0.0,0.0,0.0,0.0,0.0,0.0,0.0,0.0,0.0,0.0,0.0,0.0,0.0,0.0,0.0,0.0,0.0,0.0,0.0,0.0,0.0,0.0,0.0,0.0,0.0,0.0,0.0,0.0,0.0,0.0,0.0,0.0,0.0,0.0,0.0,0.0,0.0,0.0,0.0,0.0,0.0,0.0,0.0,0.0,0.0,0.0,0.0,0.0,0.0,0.0,0.0,0.0,0.0,0.0,0.0,0.0,0.0,0.0,0.0,0.0,0.0,0.0,0.0,0.0,0.0,0.0,0.0,0.0,0.0,0.0,0.0,0.0,0.0,0.0,0.0,0.0,0.0,0.0,0.0,0.0,0.0,0.0,0.0,0.0,0.0,0.0,0.0,0.0,0.0,0.0,0.0,0.0,0.0,0.0,0.0,0.0,0.0,0.0,0.0,0.0,0.0,0.0,0.0,0.0,0.0,0.0,0.0,0.0,0.0,0.0,0.0,0.0,0.0,0.0,0.0,0.0,0.0,0.0,0.0,0.0,0.0,0.0,0.0,0.0,0.0,0.0,0.0,0.0,0.0,0.0,0.0,0.0,0.0,0.0,0.0,0.0,0.0,0.0,0.0,0.0,0.0,0.0,0.0,0.0,0.0,0.0,0.0,0.0,0.0,0.0,0.0,0.0,0.0,0.0,0.0,0.0,0.0,0.0,0.0,0.0,0.0,0.0,0.0,0.0,0.0,0.0,0.0,0.0,0.0,0.0,0.0,0.0,0.0,0.0,0.0,0.0,0.0,0.0,0.0,0.0,0.0,0.0,0.0,0.0,0.0,0.0,0.0,0.0,0.0,0.0,0.0,0.0,0.0,0.0,0.0,0.0,0.0,0.0,0.0,0.0,0.0,0.0,0.0,0.0,0.0,0.0,0.0,0.0,0.0,0.0,0.0,0.0,0.0,0.0,0.0,0.0,0.0,0.0,0.0,0.0,0.0,0.0,0.0,0.0,0.0,0.0,0.0,0.0,0.0,0.0,0.0,0.0,0.0,0.0,0.0,0.0,0.0,0.0,0.0,0.0,0.0,0.0,0.0,0.0,0.0,0.0,0.0,0.0,0.0,0.0,0.0,0.0,0.0,0.0,0.0,0.0,0.0,0.0,0.0,0.0,0.0,0.0,0.0,0.0,0.0,0.0,0.0,0.0,0.0,0.0,0.0,0.0,0.0,0.0,0.0,0.0,0.0,0.0,0.0,0.0,0.0,0.0,0.0,0.0,0.0,0.0,0.0,0.0,0.0,0.0,0.0,0.0,0.0,0.0,0.0,0.0,0.0,0.0,0.0,0.0,0.0,0.0,0.0,0.0,0.0,0.0,0.0,0.0,0.0,0.0,0.0,0.0,0.0,0.0,0.0,0.0,0.0,0.0,0.0,0.0,0.0,0.0,0.0,0.0,0.0,0.0,0.0,0.0,0.0,0.0,0.0,0.0,0.0,0.0,0.0,0.0,0.0,0.0,0.0,0.0,0.0,0.0,0.0,0.0,0.0,0.0,0.0,0.0,0.0,0.0,0.0,0.0,0.0,0.0,0.0,0.0,0.0,0.0,0.0,0.0,0.0,0.0,0.0,0.0,0.0,0.0,0.0,0.0,0.0,0.0,0.0,0.0,0.0,0.0,0.0,0.0,0.0,0.0,0.0,0.0,0.0,0.0,0.0,0.0,0.0,0.0,0.0,0.0,0.0,0.0,0.0,0.0,0.0,0.0,0.0,0.0,0.0,0.0,0.0,0.0,0.0,0.0,0.0,0.0,0.0,0.0,0.0,0.0,0.0,0.0,0.0,0.0,0.0,0.0,0.0,0.0,0.0,0.0,0.0,0.0,0.0,0.0,0.0,0.0,0.0,0.0,0.0,0.0,0.0,0.0,0.0,0.0,0.0,0.0,0.0,0.0,0.0,0.0,0.0,0.0,0.0,0.0,0.0,0.0,0.0,0.0,0.0,0.0,0.0,0.0,0.0,0.0,0.0,0.0,0.0,0.0,0.0,0.0,0.0,0.0,0.0,0.0,0.0,0.0,0.0,0.0,0.0,0.0,0.0,0.0,0.0,0.0,0.0,0.0,0.0,0.0,0.0,0.0,0.0,0.0,0.0,0.0,0.0,0.0,0.0,0.0,0.0,0.0,0.0,0.0,0.0,0.0,0.0,0.0,0.0,0.0,0.0,0.0,0.0,0.0,0.0,0.0,0.0,0.0,0.0,0.0,0.0,0.0,0.0,0.0,0.0,0.0,0.0,0.0,0.0,0.0,0.0,0.0,0.0,0.0,0.0,0.0,0.0,0.0,0.0,0.0,0.0,0.0,0.0,0.0,0.0,0.0,0.0,0.0,0.0,0.0,0.0,0.0,0.0,0.0,0.0,0.0,0.0,0.0,0.0,0.0,0.0,0.0,0.0,0.0,0.0,0.0,0.0,0.0,0.0,0.0,0.0,0.0,0.0,0.0,0.0,0.0,0.0,0.0,0.0,0.0,0.0,0.0,0.0,0.0,0.0,0.0,0.0,0.0,0.0,0.0,0.0,0.0,0.0,0.0,0.0,0.0,0.0,0.0,0.0,0.0,0.0,0.0,0.0,0.0,0.0,0.0,0.0,0.0,0.0,0.0,0.0,0.0,0.0,0.0,0.0,0.0,0.0,0.0,0.0,0.0,0.0,0.0,0.0,0.0,0.0,0.0,0.0,0.0,0.0,0.0,0.0,0.0,0.0,0.0,0.0,0.0,0.0,0.0,0.0,0.0,0.0,0.0,0.0,0.0,0.0,0.0,0.0,0.0,0.0,0.0,0.0,0.0,0.0,0.0,0.0,0.0,0.0,0.0,0.0,0.0,0.0,0.0,0.0,0.0,0.0,0.0,0.0,0.0,0.0,0.0,0.0,0.0,0.0,0.0,0.0,0.0,0.0,0.0,0.0,0.0,0.0,0.0,0.0,0.0,0.0,0.0,0.0,0.0,0.0,0.0,0.0,0.0,0.0,0.0,0.0,0.0,0.0,0.0,0.0,0.0,0.0,0.0,0.0,0.0,0.0,0.0,0.0,0.0,0.0,0.0,0.0,0.0,0.0,0.0,0.0,0.0,0.0,0.0,0.0,0.0,0.0,0.0,0.0,0.0,0.0,0.0,0.0,0.0,0.0,0.0,0.0,0.0,0.0,0.0,0.0,0.0,0.0,0.0,0.0,0.0,0.0,0.0,0.0,0.0,0.0,0.0,0.0,0.0,0.0,0.0,0.0,0.0,0.0,0.0,0.0,0.0,0.0,0.0,0.0,0.0,0.0,0.0,0.0,0.0,0.0,0.0,0.0,0.0,0.0,0.0,0.0,0.0,0.0,0.0,0.0,0.0,0.0,0.0,0.0,0.0,0.0,0.0,0.0,0.0,0.0,0.0,0.0,0.0,0.0,0.0,0.0,0.0,0.0,0.0,0.0,0.0,0.0,0.0,0.0,0.0,0.0,0.0,0.0,0.0,0.0,0.0,0.0,0.0,0.0,0.0,0.0,0.0,0.0,0.0,0.0,0.0,0.0,0.0,0.0,0.0,0.0,0.0,0.0,0.0,0.0,0.0,0.0,0.0,0.0,0.0,0.0,0.0,0.0,0.0,0.0,0.0,0.0,0.0,0.0,0.0,0.0,0.0,0.0,0.0,0.0,0.0,0.0,0.0,0.0,0.0,0.0,0.0,0.0,0.0,0.0,0.0,0.0,0.0,0.0,0.0,0.0699,0.0,0.0,0.0,0.0,0.0,0.0,0.0,0.0,0.0,0.0,0.0,0.0,0.0,0.0,0.0,0.0,0.0,0.0,0.0,0.0,0.0,0.0,0.0,0.0,0.0,0.0,0.0,0.0,0.0,0.0,0.0,0.0,0.0,0.0,0.0,0.0,0.0,0.0,0.0,0.0,0.0,0.0,0.0,0.0,0.0,0.0,0.0,0.0,0.0,0.0,0.0,0.0,0.0,0.0,0.0,0.0,0.0,0.0,0.0,0.0,0.0,0.0,0.0,0.0,0.0,0.0,0.0,0.0,0.0,0.0,0.0,0.0,0.0,0.0,0.0,0.0,0.0,0.0,0.0,0.0,0.0,0.0,0.0,0.0,0.0,0.0,0.0,0.0,0.0,0.0,0.0,0.0,0.0,0.0,0.0,0.0,0.0,0.0,0.0,0.0,0.0,0.0,0.0,0.0,0.0,0.0,0.0,0.0,0.0,0.0,0.0645,0.0642,0.0662,0.0692,0.0731,0.0,0.0,0.0,0.0,0.0,0.0,0.0,0.0,0.0,0.0,0.0,0.0,0.0,0.0,0.0,0.0,0.0,0.0,0.0,0.0,0.0,0.0,0.0,0.0,0.0,0.0,0.0,0.0,0.0,0.0,0.0,0.0,0.0,0.0,0.0,0.0,0.0,0.0,0.0,0.0,0.0,0.0,0.0,0.0,0.0,0.0,0.0,0.0,0.0,0.0,0.0,0.0,0.0,0.0,0.0,0.0,0.0,0.0,0.0,0.0,0.0,0.0,0.0,0.0,0.0,0.0,0.0,0.0,0.0,0.0,0.0,0.0,0.0,0.0,0.0,0.0,0.0,0.0,0.0,0.0,0.0,0.0,0.0,0.0,0.0,0.0,0.0,0.0,0.0,0.0,0.0,0.0,0.0,0.0,0.0,0.0,0.0,0.0,0.0,0.0,0.0,0.0,0.0,0.0,0.0,0.0,0.0,0.0,0.0,0.0,0.0,0.0,0.0658,0.0718,0.0807,0.0,0.0,0.0,0.0,0.0,0.0,0.0,0.0,0.0,0.0,0.0,0.0,0.0,0.0,0.0,0.0,0.0,0.0,0.0,0.0,0.0,0.0,0.0,0.0,0.0,0.0,0.0,0.0,0.0,0.0,0.0,0.0,0.0,0.0,0.0,0.0,0.0,0.0,0.0,0.0,0.0,0.0,0.0,0.0,0.0,0.0,0.0,0.0,0.0,0.0,0.0,0.0,0.0,0.0,0.0,0.0,0.0,0.0,0.0,0.0,0.0,0.0,0.0,0.0,0.0,0.0,0.0,0.0,0.0,0.0,0.0,0.0,0.0,0.0,0.0,0.0,0.0,0.0,0.0,0.0,0.0,0.0,0.0,0.0,0.0,0.0,0.0,0.0,0.0,0.0,0.0,0.0,0.0,0.0,0.0,0.0,0.0,0.0,0.0,0.0,0.0,0.0,0.0,0.0,0.0,0.0,0.0,0.0,0.0,0.0,0.0508,0.0484,0.0635,0.0,0.1021,0.0,0.0,0.0,0.0,0.0,0.0,0.0,0.0,0.0,0.0,0.0,0.0,0.0,0.0,0.0,0.0,0.0,0.0,0.0,0.0,0.0,0.0,0.0,0.0,0.0,0.0,0.0,0.0,0.0,0.0,0.0,0.0,0.0,0.0,0.0,0.0,0.0,0.0,0.0,0.0,0.0,0.0,0.0,0.0,0.0,0.0,0.0,0.0,0.0,0.0,0.0,0.0,0.0,0.0,0.0,0.0,0.0,0.0,0.0,0.0,0.0,0.0,0.0,0.0,0.0,0.0,0.0,0.0,0.0,0.0,0.0,0.0,0.0,0.0,0.0,0.0,0.0,0.0,0.0,0.0,0.0,0.0,0.0,0.0,0.0,0.0,0.0,0.0,0.0,0.0,0.0,0.0,0.0,0.0,0.0,0.0,0.0,0.0,0.0,0.0,0.0,0.0,0.0,0.0,0.0,0.0,0.0,0.0,0.0,0.0,0.0655,0.0475,0.0698,0.0883,0.0,0.0,0.0,0.0,0.0,0.0,0.0,0.0,0.0,0.0,0.0,0.0,0.0,0.0,0.0,0.0,0.0,0.0,0.0,0.0,0.0,0.0,0.0,0.0,0.0,0.0,0.0,0.0,0.0,0.0,0.0,0.0,0.0,0.0,0.0,0.0,0.0,0.0,0.0,0.0,0.0,0.0,0.0,0.0,0.0,0.0,0.0,0.0,0.0,0.0,0.0,0.0,0.0,0.0,0.0,0.0,0.0,0.0,0.0,0.0,0.0,0.0,0.0,0.0,0.0,0.0,0.0,0.0,0.0,0.0,0.0,0.0,0.0,0.0,0.0,0.0,0.0,0.0,0.0,0.0,0.0,0.0,0.0,0.0,0.0,0.0,0.0,0.0,0.0,0.0,0.0,0.0,0.0,0.0,0.0,0.0,0.0,0.0,0.0,0.0,0.0,0.0,0.0,0.0,0.0,0.0,0.0,0.0,0.0,0.0,0.0521,0.0777,0.0698,0.081,0.0959,0.1139,0.0,0.0,0.0,0.0,0.0,0.0,0.0,0.0,0.0,0.0,0.0,0.0,0.0,0.0,0.0,0.0,0.0,0.0,0.0,0.0,0.0,0.0,0.0,0.0,0.0,0.0,0.0,0.0,0.0,0.0,0.0,0.0,0.0,0.0,0.0,0.0,0.0,0.0,0.0,0.0,0.0,0.0,0.0,0.0,0.0,0.0,0.0,0.0,0.0,0.0,0.0,0.0,0.0,0.0,0.0,0.0,0.0,0.0,0.0,0.0,0.0,0.0,0.0,0.0,0.0,0.0,0.0,0.0,0.0,0.0,0.0,0.0,0.0,0.0,0.0,0.0,0.0,0.0,0.0,0.0,0.0,0.0,0.0,0.0,0.0,0.0,0.0,0.0,0.0,0.0,0.0,0.0,0.0,0.0,0.0,0.0,0.0,0.0,0.0,0.0,0.0,0.0,0.0,0.0,0.0,0.0,0.0,0.0,0.005,0.0513,0.0867,0.1134,0.0854,0.0902,0.0,0.0,0.0,0.0,0.0,0.0,0.0,0.0,0.0,0.0,0.0,0.0,0.0,0.0,0.0,0.0,0.0,0.0,0.0,0.0,0.0,0.0,0.0,0.0,0.0,0.0,0.0,0.0,0.0,0.0,0.0,0.0,0.0,0.0,0.0,0.0,0.0,0.0,0.0,0.0,0.0,0.0,0.0,0.0,0.0,0.0,0.0,0.0,0.0,0.0,0.0,0.0,0.0,0.0,0.0,0.0,0.0,0.0,0.0,0.0,0.0,0.0,0.0,0.0,0.0,0.0,0.0,0.0,0.0,0.0,0.0,0.0,0.0,0.0,0.0,0.0,0.0,0.0,0.0,0.0,0.0,0.0,0.0,0.0,0.0,0.0,0.0,0.0,0.0,0.0,0.0,0.0,0.0,0.0,0.0,0.0,0.0,0.0,0.0,0.0,0.0,0.0,0.0,0.0,0.0,0.0,0.0,0.0,0.0,-0.042,0.0327,0.0902,0.1184,0.1137,0.1158,0.0,0.0,0.0,0.0,0.0,0.0,0.0,0.0,0.0,0.0,0.0,0.0,0.0,0.0,0.0,0.0,0.0,0.0,0.0,0.0,0.0,0.0,0.0,0.0,0.0,0.0,0.0,0.0,0.0,0.0,0.0,0.0,0.0,0.0,0.0,0.0,0.0,0.0,0.0,0.0,0.0,0.0,0.0,0.0,0.0,0.0,0.0,0.0,0.0,0.0,0.0,0.0,0.0,0.0,0.0,0.0,0.0,0.0,0.0,0.0,0.0,0.0,0.0,0.0,0.0,0.0,0.0,0.0,0.0,0.0,0.0,0.0,0.0,0.0,0.0,0.0,0.0,0.0,0.0,0.0,0.0,0.0,0.0,0.0,0.0,0.0,0.0,0.0,0.0,0.0,0.0,0.0,0.0,0.0,0.0,0.0,0.0,0.0,0.0,0.0,0.0,0.0,0.0,0.0,0.0,0.0,0.0,0.0,0.0,-0.0839,0.0,0.0995,0.126,0.1262,0.1216,0.0,0.0,0.0,0.0,0.0,0.0,0.0,0.0,0.0,0.0,0.0,0.0,0.0,0.0,0.0,0.0,0.0,0.0,0.0,0.0,0.0,0.0,0.0,0.0,0.0,0.0,0.0,0.0,0.0,0.0,0.0,0.0,0.0,0.0,0.0,0.0,0.0,0.0,0.0,0.0,0.0,0.0,0.0,0.0,0.0,0.0,0.0,0.0,0.0,0.0,0.0,0.0,0.0,0.0,0.0,0.0,0.0,0.0,0.0,0.0,0.0,0.0,0.0,0.0,0.0,0.0,0.0,0.0,0.0,0.0,0.0,0.0,0.0,0.0,0.0,0.0,0.0,0.0,0.0,0.0,0.0,0.0,0.0,0.0,0.0,0.0,0.0,0.0,0.0,0.0,0.0,0.0,0.0,0.0,0.0,0.0,0.0,0.0,0.0,0.0,0.0,0.0,0.0,0.0,0.0,0.0,0.0,0.0,-0.1449,-0.1054,0.0156,0.1041,0.1365,0.111,0.1071,0.0,0.0,0.0,0.0,0.0,0.0,0.0,0.0,0.0,0.0,0.0,0.0,0.0,0.0,0.0,0.0,0.0,0.0,0.0,0.0,0.0,0.0,0.0,0.0,0.0,0.0,0.0,0.0,0.0,0.0,0.0,0.0,0.0,0.0,0.0,0.0,0.0,0.0,0.0,0.0,0.0,0.0,0.0,0.0,0.0,0.0,0.0,0.0,0.0,0.0,0.0,0.0,0.0,0.0,0.0,0.0,0.0,0.0,0.0,0.0,0.0,0.0,0.0,0.0,0.0,0.0,0.0,0.0,0.0,0.0,0.0,0.0,0.0,0.0,0.0,0.0,0.0,0.0,0.0,0.0,0.0,0.0,0.0,0.0,0.0,0.0,0.0,0.0,0.0,0.0,0.0,0.0,0.0,0.0,0.0,0.0,0.0,0.0,0.0,0.0,0.0,0.0,0.0,0.0,0.0,0.0,0.0,0.0,0.0,-0.1409,-0.0294,0.0553,0.1044,0.1174,0.1193,0.0,0.0,0.0,0.0,0.0,0.0,0.0,0.0,0.0,0.0,0.0,0.0,0.0,0.0,0.0,0.0,0.0,0.0,0.0,0.0,0.0,0.0,0.0,0.0,0.0,0.0,0.0,0.0,0.0,0.0,0.0,0.0,0.0,0.0,0.0,0.0,0.0,0.0,0.0,0.0,0.0,0.0,0.0,0.0,0.0,0.0,0.0,0.0,0.0,0.0,0.0,0.0,0.0,0.0,0.0,0.0,0.0,0.0,0.0,0.0,0.0,0.0,0.0,0.0,0.0,0.0,0.0,0.0,0.0,0.0,0.0,0.0,0.0,0.0,0.0,0.0,0.0,0.0,0.0,0.0,0.0,0.0,0.0,0.0,0.0,0.0,0.0,0.0,0.0,0.0,0.0,0.0,0.0,0.0,0.0,0.0,0.0,0.0,0.0,0.0,0.0,0.0,0.0,0.0,0.0,0.0,0.0,0.0,0.0,-0.1077,-0.045,0.0254,0.1073,0.1795,0.2218,0.2275,0.0,0.0,0.0,0.0,0.0,0.0,0.0,0.0,0.0,0.0,0.0,0.0,0.0,0.0,0.0,0.0,0.0,0.0,0.0,0.0,0.0,0.0,0.0,0.0,0.0,0.0,0.0,0.0,0.0,0.0,0.0,0.0,0.0,0.0,0.0,0.0,0.0,0.0,0.0,0.0,0.0,0.0,0.0,0.0,0.0,0.0,0.0,0.0,0.0,0.0,0.0,0.0,0.0,0.0,0.0,0.0,0.0,0.0,0.0,0.0,0.0,0.0,0.0,0.0,0.0,0.0,0.0,0.0,0.0,0.0,0.0,0.0,0.0,0.0,0.0,0.0,0.0,0.0,0.0,0.0,0.0,0.0,0.0,0.0,0.0,0.0,0.0,0.0,0.0,0.0,0.0,0.0,0.0,0.0,0.0,0.0,0.0,0.0,0.0,0.0,0.0,0.0,0.0,0.0,0.0,0.0,0.0,0.0,-0.0306,-0.0381,0.0161,0.126,0.2684,0.378,0.0,0.0,0.0,0.0,0.0,0.0,0.0,0.0,0.0,0.0,0.0,0.0,0.0,0.0,0.0,0.0,0.0,0.0,0.0,0.0,0.0,0.0,0.0,0.0,0.0,0.0,0.0,0.0,0.0,0.0,0.0,0.0,0.0,0.0,0.0,0.0,0.0,0.0,0.0,0.0,0.0,0.0,0.0,0.0,0.0,0.0,0.0,0.0,0.0,0.0,0.0,0.0,0.0,0.0,0.0,0.0,0.0,0.0,0.0,0.0,0.0,0.0,0.0,0.0,0.0,0.0,0.0,0.0,0.0,0.0,0.0,0.0,0.0,0.0,0.0,0.0,0.0,0.0,0.0,0.0,0.0,0.0,0.0,0.0,0.0,0.0,0.0,0.0,0.0,0.0,0.0,0.0,0.0,0.0,0.0,0.0,0.0,0.0,0.0,0.0,0.0,0.0,0.0,0.0,0.0,0.0,0.0,0.0,0.0,-0.0283,0.0231,0.0454,0.0378,0.1257,0.2613,0.0,0.0,0.0,0.0,0.0,0.0,0.0,0.0,0.0,0.0,0.0,0.0,0.0,0.0,0.0,0.0,0.0,0.0,0.0,0.0,0.0,0.0,0.0,0.0,0.0,0.0,0.0,0.0,0.0,0.0,0.0,0.0,0.0,0.0,0.0,0.0,0.0,0.0,0.0,0.0,0.0,0.0,0.0,0.0,0.0,0.0,0.0,0.0,0.0,0.0,0.0,0.0,0.0,0.0,0.0,0.0,0.0,0.0,0.0,0.0,0.0,0.0,0.0,0.0,0.0,0.0,0.0,0.0,0.0,0.0,0.0,0.0,0.0,0.0,0.0,0.0,0.0,0.0,0.0,0.0,0.0,0.0,0.0,0.0,0.0,0.0,0.0,0.0,0.0,0.0,0.0,0.0,0.0,0.0,0.0,0.0,0.0,0.0,0.0,0.0,0.0,0.0,0.0,0.0,0.0,0.0,0.0,0.0,0.0513,0.0,0.0597,0.1192,0.1871,0.1047,0.1867,0.0,0.0,0.0,0.0,0.0,0.0,0.0,0.0,0.0,0.0,0.0,0.0,0.0,0.0,0.0,0.0,0.0,0.0,0.0,0.0,0.0,0.0,0.0,0.0,0.0,0.0,0.0,0.0,0.0,0.0,0.0,0.0,0.0,0.0,0.0,0.0,0.0,0.0,0.0,0.0,0.0,0.0,0.0,0.0,0.0,0.0,0.0,0.0,0.0,0.0,0.0,0.0,0.0,0.0,0.0,0.0,0.0,0.0,0.0,0.0,0.0,0.0,0.0,0.0,0.0,0.0,0.0,0.0,0.0,0.0,0.0,0.0,0.0,0.0,0.0,0.0,0.0,0.0,0.0,0.0,0.0,0.0,0.0,0.0,0.0,0.0,0.0,0.0,0.0,0.0,0.0,0.0,0.0,0.0,0.0,0.0,0.0,0.0,0.0,0.0,0.0,0.0,0.0,0.0,0.0,0.0,0.0,0.0,0.0739,0.0471,0.0668,0.1973,0.432,0.1841,0.1739,0.0,0.0,0.0,0.0,0.0,0.0,0.0,0.0,0.0,0.0,0.0,0.0,0.0,0.0,0.0,0.0,0.0,0.0,0.0,0.0,0.0,0.0,0.0,0.0,0.0,0.0,0.0,0.0,0.0,0.0,0.0,0.0,0.0,0.0,0.0,0.0,0.0,0.0,0.0,0.0,0.0,0.0,0.0,0.0,0.0,0.0,0.0,0.0,0.0,0.0,0.0,0.0,0.0,0.0,0.0,0.0,0.0,0.0,0.0,0.0,0.0,0.0,0.0,0.0,0.0,0.0,0.0,0.0,0.0,0.0,0.0,0.0,0.0,0.0,0.0,0.0,0.0,0.0,0.0,0.0,0.0,0.0,0.0,0.0,0.0,0.0,0.0,0.0,0.0,0.0,0.0,0.0,0.0,0.0,0.0,0.0,0.0,0.0,0.0,0.0,0.0,0.0,0.0,0.0,0.0,0.0,0.0,0.0,0.0833,0.0765,0.0425,0.1587,0.443,0.3903,0.4047,0.0,0.0,0.0,0.0,0.0,0.0,0.0,0.0,0.0,0.0,0.0,0.0,0.0,0.0,0.0,0.0,0.0,0.0,0.0,0.0,0.0,0.0,0.0,0.0,0.0,0.0,0.0,0.0,0.0,0.0,0.0,0.0,0.0,0.0,0.0,0.0,0.0,0.0,0.0,0.0,0.0,0.0,0.0,0.0,0.0,0.0,0.0,0.0,0.1793,0.0,0.0,0.0,0.0,0.0,0.0,0.0,0.0,0.0,0.0,0.0,0.0,0.0,0.0,0.0,0.0,0.0,0.0,0.0,0.0,0.0,0.0,0.0,0.0,0.0,0.0,0.0,0.0,0.0,0.0,0.0,0.0,0.0,0.0,0.0,0.0,0.0,0.0,0.0,0.0,0.0,0.0,0.0,0.0,0.0,0.0,0.0,0.0,0.0,0.0,0.0,0.0,0.0,0.0,0.0,0.0,0.0,0.0,0.0,0.0616,0.0883,0.0299,0.0778,0.2356,0.372,0.4657,0.0,0.0,0.0,0.0,0.0,0.0,0.0,0.0,0.0,0.0,0.0,0.0,0.0,0.0,0.0,0.0,0.0,0.0,0.0,0.0,0.0,0.0,0.0,0.0,0.0,0.0,0.0,0.0,0.0,0.0,0.0,0.0,0.0,0.0,0.0,0.0,0.0,0.0,0.0,0.0,0.0,0.0,0.0,0.0,0.0,0.0,0.0,0.0,0.0,0.0,0.0,0.0,0.0,0.0,0.0,0.0,0.0,0.0,0.0,0.0,0.0,0.0,0.0,0.0,0.0,0.0,0.0,0.0,0.0,0.0,0.0,0.0,0.0,0.0,0.0,0.0,0.0,0.0,0.0,0.0,0.0,0.0,0.0,0.0,0.0,0.0,0.0,0.0,0.0,0.0,0.0,0.0,0.0,0.0,0.0,0.0,0.0,0.0,0.0,0.0,0.0,0.0,0.0,0.0,0.0,0.0,0.0,0.0335,0.0339,0.0701,0.0235,0.0,0.0,0.245,0.4054,0.4484,0.0,0.0,0.0,0.0,0.0,0.0,0.0,0.0,0.0,0.0,0.0,0.0,0.0,0.0,0.0,0.0,0.0,0.0,0.0,0.0,0.0,0.0,0.0,0.0,0.0,0.0,0.0,0.0,0.0,0.0,0.0,0.0,0.0,0.0,0.0,0.0,0.0,0.0,0.0199,0.0308,0.0,0.0,0.0,0.0,0.0,0.0,0.0,0.0,0.167,0.0,0.0,0.0,0.0,0.0,0.0,0.0,0.0,0.0,0.0,0.0,0.0,0.0,0.0,0.0,0.0,0.0,0.0,0.0,0.0,0.0,0.0,0.0,0.0,0.0,0.0,0.0,0.0,0.0,0.0,0.0,0.0,0.0,0.0,0.0,0.0,0.0,0.0,0.0,0.0,0.0,0.0,0.0,0.0,0.0,0.0,0.0,0.0,0.0,0.0,0.0,0.0,0.0,0.0,0.0,0.0,0.0841,0.0709,0.0437,0.017,0.0058,0.0,0.0,0.0516,0.1944,0.4311,0.0,0.0,0.0,0.0,0.0,0.0,0.0,0.0,0.0,0.0,0.0,0.0,0.0,0.0,0.0,0.0,0.0,0.0,0.0,0.0,0.0,0.0,0.0,0.0,0.0,0.0,0.0,0.0,0.0,0.0,0.0,0.0,0.0,0.0,0.0,0.0,0.0,0.0,0.0,-0.0386,0.0049,0.0,0.0,0.0,0.0,0.0,0.0,0.0,0.0,0.2637,0.0,0.0,0.0,0.0,0.0,0.0,0.0,0.0,0.0,0.0,0.0,0.0,0.0,0.0,0.0,0.0,0.0,0.0,0.0,0.0,0.0,0.0,0.0,0.0,0.0,0.0,0.0,0.0,0.0,0.0,0.0,0.0,0.0,0.0,0.0,0.0,0.0,0.0,0.0,0.0,0.0,0.0,0.0,0.0,0.0,0.0,0.0,0.0,0.0,0.0,0.0,0.0,0.0,0.0,0.0,0.0391,0.0705,0.0542,0.0,0.0,0.0739,0.2298,0.2341,0.3121,0.0,0.0,0.0,0.0,0.0,0.0,0.0,0.0,0.0,0.0,0.0,0.0,0.0,0.0,0.0,0.0,0.0,0.0,0.0,0.0,0.0,0.0,0.0,0.0,0.0,0.0,0.0,0.0,0.0,0.0,0.0,0.0,0.0,0.0,0.0,0.0,0.0,0.0,0.0,0.0,-0.1016,-0.064,-0.015,0.0,0.0,0.0,0.0,0.0,0.0,0.2458,0.2688,0.0,0.0,0.0,0.0,0.0,0.0,0.0,0.0,0.0,0.0,0.0,0.0,0.0,0.0,0.0,0.0,0.0,0.0,0.0,0.0,0.0,0.0,0.0,0.0,0.0,0.0,0.0,0.0,0.0,0.0,0.0,0.0,0.0,0.0,0.0,0.0,0.0,0.0,0.0,0.0,0.0,0.0,0.0,0.0,0.0,0.0,0.0,0.0,0.0,0.0,0.0,0.0,0.0,0.0,0.0,0.0,0.0488,0.0487,0.0,0.0,0.1448,0.4356,0.4473,0.4567,0.0,0.0,0.0,0.0,0.0,0.0,0.0,0.0,0.0,0.0,0.0,0.0,0.0,0.0,0.0,0.0,0.0,0.0,0.0,0.0,0.0,0.0,0.0,0.0,0.0,0.0,0.0,0.0,0.0,0.0,0.0,0.0,0.0,0.0,0.0,0.0,0.0,0.0,0.0,0.0,0.0,-0.1413,-0.0712,-0.0469,0.0,0.0,0.0,0.0,0.1344,0.2011,0.0,0.0,0.0,0.0,0.0,0.0,0.0,0.0,0.0,0.0,0.0,0.0,0.0,0.0,0.0,0.0,0.0,0.0,0.0,0.0,0.0,0.0,0.0,0.0,0.0,0.0,0.0,0.0,0.0,0.0,0.0,0.0,0.0,0.0,0.0,0.0,0.0,0.0,0.0,0.0,0.0,0.0,0.0,0.0,0.0,0.0,0.0,0.0,0.0,0.0,0.0,0.0,0.0,0.0,0.0,0.0,0.0,0.0054,0.0,0.0,0.0,0.1429,0.4371,0.4508,0.4047,0.0,0.0,0.0,0.0,0.0,0.0,0.0,0.0,0.0,0.0,0.0,0.0,0.0,0.0,0.0,0.0,0.0,0.0,0.0,0.0,0.0,0.0,0.0,0.0,0.0,0.0,0.0,0.0,0.0,0.0,0.0,0.0,0.0,0.0,0.0,0.0,0.0,0.0,0.0,0.0,0.0,-0.2139,-0.1683,-0.1218,-0.0484,0.0,0.0,0.1192,0.1895,0.1965,0.0,0.0,0.0,0.0,0.0,0.0,0.0,0.0,0.0,0.0,0.0,0.0,0.0,0.0,0.0,0.0,0.0,0.0,0.0,0.0,0.0,0.0,0.0,0.0,0.0,0.0,0.0,0.0,0.0,0.0,0.0,0.0,0.0,0.0,0.0,0.0,0.0,0.0,0.0,0.0,0.0,0.0,0.0,0.0,0.0,0.0,0.0,0.0,0.0,0.0,0.0,0.0,0.0,0.0,0.0,0.0,0.0,0.0,0.0,0.0,0.0,0.1453,0.4453,0.4488,0.4254,0.0,0.0,0.0,0.0,0.0,0.0,0.0,0.0,0.0,0.0,0.0,0.0,0.0,0.0,0.0,0.0,0.0,0.0,0.0,0.0,0.0,0.0,0.0,0.0,0.0,0.0,0.0,0.0,0.0,0.0,0.0,0.0,0.0,0.0,0.0,0.0,0.0,0.0,0.0,0.0,0.0,0.0,-0.1646,-0.1488,0.0,0.0,0.0,0.1048,0.151,0.0,0.0,0.0,0.0,0.0,0.0,0.0,0.0,0.0,0.0,0.0,0.0,0.0,0.0,0.0,0.0,0.0,0.0,0.0,0.0,0.0,0.0,0.0,0.0,0.0,0.0,0.0,0.0,0.0,0.0,0.0,0.0,0.0,0.0,0.0,0.0,0.0,0.0,0.0,0.0,0.0,0.0,0.0,0.0,0.0,0.0,0.0,0.0,0.0,0.0,0.0,0.0,0.0,0.0,0.0,0.0,0.0,0.0,0.0,0.0,0.0,0.0,0.1374,0.4177,0.4264,0.0,0.0,0.0,0.0,0.0,0.0,0.0,0.0,0.0,0.0,0.0,0.0,0.0,0.0,0.0,0.0,0.0,0.0,0.0,0.0,0.0,0.0,0.0,0.0,0.0,0.0,0.0,0.0,0.0,0.0,0.0,0.0,0.0,0.0,0.0,0.0,0.0,0.0,0.0,0.0,0.0,0.0,-0.194,-0.1457,-0.1995,-0.1686,0.0,0.0,0.0954,0.1066,0.0505,0.0168,0.0,0.0,0.0,0.0,0.0,0.0,0.0,0.0,0.0,0.0,0.0,0.0,0.0,0.0,0.0,0.0,0.0,0.0,0.0,0.0,0.0,0.0,0.0,0.0,0.0,0.0,0.0,0.0,0.0,0.0,0.0,0.0,0.0,0.0,0.0,0.0,0.0,0.0,0.0,0.0,0.0,0.0,0.0,0.0,0.0,0.0,0.0,0.0,0.0,0.0,0.0,0.0,0.0,0.0,0.0,0.0,0.0,0.0,0.0,0.0,0.1149,0.3559,0.3645,0.3946,0.0,0.0,0.0,0.0,0.0,0.0,0.0,0.0,0.0,0.0,0.0,0.0,0.0,0.0,0.0,0.0,0.0,0.0,0.0,0.0,0.0,0.0,0.0,0.0,0.0,0.0,0.0,0.0,0.0,0.0,0.0,0.0,0.0,0.0,0.0,0.0,0.0,0.0,0.0,0.0,0.0,-0.1673,-0.1342,-0.3026,-0.3081,0.0,0.0,0.0898,0.0898,0.0393,0.0112,0.0393,0.0,0.0,0.0,0.0,0.0,0.0,0.0,0.0,0.0,0.0,0.0,0.0,0.0,0.0,0.0,0.0,0.0,0.0,0.0,0.0,0.0,0.0,0.0,0.0,0.0,0.0,0.0,0.0,0.0,0.0,0.0,0.0,0.0,0.0,0.0,0.0,0.0,0.0,0.0,0.0,0.0,0.0,0.0,0.0,0.0,0.0,0.0,0.0,0.0,0.0,0.0,0.0,0.0,0.0,0.0,0.0,0.0,0.0,0.0,0.0422,0.1352,0.2965,0.3852,0.0,0.0,0.0,0.0,0.0,0.0,0.0,0.0,0.0,0.0,0.0,0.0,0.0,0.0,0.0,0.0,0.0,0.0,0.0,0.0,0.0,0.0,0.0,0.0,0.0,0.0,0.0,0.0,0.0197,0.0411,0.0765,0.0,0.0,0.0,0.0,0.0,0.0,0.0,0.0,0.0,0.0,-0.0224,-0.0449,-0.1177,0.0,0.0,0.0617,0.0449,0.0841,0.101,0.101,0.0729,0.0954,0.0,0.0,0.0,0.0,0.0,0.0,0.0,0.0,0.0,0.0,0.0,0.0,0.0,0.0,0.0,0.0,0.0,0.0,0.0,0.0,0.0,0.0,0.0,0.0,0.0,0.0,0.0,0.0,0.0,0.0,0.0,0.0,0.0,0.0,0.0,0.0,0.0,0.0,0.0,0.0,0.0,0.0,0.0,0.0,0.0,0.0,0.0,0.0,0.0,0.0,0.0,0.0,0.0,0.0,0.0,0.0,0.0,0.0,0.0426,0.1381,0.3164,0.4059,0.0,0.0,0.0,0.0,0.0,0.0,0.0,0.0,0.0,0.0,0.0,0.0,0.0,0.0,0.0,0.0,0.0,0.0,0.0,0.0,0.0,0.0,0.0,0.0,0.0,0.0,0.0,0.0,0.0,0.0163,0.0496,0.0,0.0,0.0,0.0,0.0,0.0,0.0,0.0,0.0,0.0,0.0785,0.0449,0.0168,0.0168,0.0673,0.0505,0.0393,0.0729,0.1178,0.1403,0.0954,0.0,0.0,0.0,0.0,0.0,0.0,0.0,0.0,0.0,0.0,0.0,0.0,0.0,0.0,0.0,0.0,0.0,0.0,0.0,0.0,0.0,0.0,0.0,0.0,0.0,0.0,0.0,0.0,0.0,0.0,-0.2951,0.0,0.0,0.0,0.0,0.0,0.0,0.0,0.0,0.0,0.0,0.0,0.0,0.0,0.0,0.0,0.0,0.0,0.0,0.0,0.0,0.0,0.0,0.0,0.0,0.0,0.0,0.0,0.0,0.1334,0.4084,0.4426,0.4466,0.4446,0.0,0.0,0.0,0.0,0.0,0.0,0.0,0.0,0.0,0.0,0.0,0.0,0.0,0.0,0.0,0.0,0.0,0.0,0.0,0.0,0.0,0.0,0.0,0.0,0.0,0.0,0.0,0.0,0.0,0.0,0.0,0.0,0.0,0.0,0.0,0.0,0.0,0.0,0.0,0.0897,0.101,0.1178,0.0561,0.0168,0.0393,0.0673,0.0785,0.0449,0.0729,0.0954,0.0,0.0,0.0,0.0,0.0,0.0,0.0,0.0,0.0,0.0,0.0,0.0,0.0,0.0,0.0,0.0,0.0,0.0,0.0,0.0,0.0,0.0,0.0,0.0,0.0,0.0,0.0,-0.1748,-0.1775,0.0,0.0,0.0,0.0,0.0,0.0,0.0,0.0,0.0,0.0,0.0,-0.0883,-0.0893,0.0,0.0,0.0,0.0,0.0,0.0,0.0,0.0,0.0,0.0,0.0,0.0,0.0,0.0,0.0,0.0,0.0,0.0,0.0496,0.1486,0.1525,0.1957,0.2971,0.0,0.0,0.0,0.0,0.0,0.0,0.0,0.0,0.0,0.0,0.0,0.0,0.0,0.0,0.0,0.0,0.0,0.0,0.0,0.0,0.0,0.0,0.0,0.0,0.0,0.0,0.0,0.0,0.0,0.0,0.0,0.0,0.0,0.0,0.0,0.0,0.0,0.0863,0.09,0.0785,0.0729,0.0729,0.101,0.1122,0.0,0.0,0.0,0.0,0.0,0.0,0.0,0.0,0.0,0.0,0.0,0.0,0.0,0.0,0.0954,0.101,0.1682,0.2076,0.1572,0.0,0.0,0.0,0.0,0.0,0.0,0.0,0.0,0.0,0.0,0.0,0.0,0.0,0.0,-0.1298,0.0,-0.1672,0.0,0.0,0.0,0.0,0.0,0.0,0.0,0.0,-0.0505,-0.0681,-0.0898,-0.0681,-0.0567,0.0,-0.0168,0.0,0.0,0.0,0.0,0.0,0.0,0.0,0.0,0.0,0.0,0.0,0.0,0.0,0.0,0.0,0.0,0.0,0.0,0.0447,0.1395,0.2901,0.3968,0.0,0.0,0.0,0.0,0.0,0.0,0.0,0.0,0.0,0.0,0.0,0.0,0.0,0.0,0.0,0.0,0.0,0.0,0.0,0.0,0.0,0.0,0.0,0.0,0.0,0.0,0.0,0.0,0.0,0.0,0.0,0.0,0.0,0.0899,0.0972,0.1034,0.1069,0.1234,0.1177,0.0841,0.0,0.0,0.0,0.0,0.0,0.0,0.0,0.129,0.1178,0.129,0.1234,0.0841,0.0841,0.0897,0.0729,0.0,0.0,0.0729,0.1345,0.1737,0.1234,0.1346,0.1515,0.1459,0.2015,0.2627,0.0,0.0,0.0,0.0,0.0,0.0,0.0,0.0,-0.0506,-0.0442,0.0,-0.1598,0.0,0.0,0.0,0.0,0.0,-0.1712,0.0,0.0,-0.029,-0.0348,-0.0791,-0.0291,0.0,0.0,0.0,0.0,0.0,0.0,0.0,0.0,0.0,0.0,0.0,0.0,0.0,0.0,0.0,0.0,0.0,0.0,0.0,0.0,0.0,0.0,0.0,0.1395,0.2847,0.4425,0.4079,0.0,0.0,0.0,0.0,0.0,0.0,0.0,0.0,0.0,0.0,0.0,0.0,0.0,0.0,0.0,0.0,0.0,0.0,0.0,0.0,0.0,0.0,0.0,0.0,0.0,0.0,0.0,0.0,0.0,0.0,0.0,0.09,0.1125,0.1292,0.1291,0.0,0.0,0.0,0.0,0.0951,0.1066,0.0729,0.0561,0.101,0.101,0.101,0.1234,0.0,0.0,0.0168,0.0505,0.0785,0.0449,0.0673,0.0785,0.0505,0.0449,0.0561,0.0785,0.0841,0.0898,0.1066,0.1736,0.2462,-0.0733,0.0,0.0,0.0,0.0,-0.1804,-0.1828,-0.1746,-0.0481,-0.0118,-0.0401,-0.1354,0.0,0.0,0.0,0.0,0.0,0.0,-0.0748,-0.03,-0.0534,-0.0474,-0.024,-0.0061,0.0,0.0,0.0,0.0,0.0,0.0,0.0,0.0,0.0,0.0,0.0,0.0,0.0,0.0,0.0,0.0,0.0,0.0,0.0,0.0,0.0,0.0,0.0,0.0391,0.1845,0.433,0.4373,0.0,0.0,0.0,0.0,0.0,0.0,0.0,0.0,0.0,0.0,0.0,0.0,0.0,0.0,0.0,0.0,0.0,0.0,0.0,0.0,0.0393,0.0449,0.0,0.0,0.0,0.0,0.0,0.0,0.0,0.0,0.0,0.0902,0.1089,0.1326,0.0,0.0,0.1959,0.1624,0.1174,0.0895,0.0953,0.0841,0.0,0.0954,0.1066,0.1066,0.0729,0.1122,0.1459,0.129,0.0729,0.0224,0.0112,0.0561,0.0841,0.0785,0.0393,0.0224,0.0224,0.028,0.1009,0.2921,0.2858,0.2569,-0.0332,-0.0801,-0.1277,-0.1592,-0.1808,-0.1809,-0.1512,-0.1024,-0.032,0.0,0.0,-0.099,-0.1266,-0.0922,-0.1082,0.0,0.0,0.0,-0.0774,-0.0,-0.0368,-0.0368,0.0,0.0,0.0,0.0,0.0,0.0,0.0,0.0,0.0,0.0,0.0,0.0,0.0,0.0,0.0,0.0,0.0,0.0,0.0,0.0,0.0,0.0,0.0,0.0,0.0,0.0,0.0838,0.2635,0.3299,0.386,0.0,0.0,0.0,0.0,0.0,0.0,0.0,0.0,0.0,0.0,0.0,0.0175,0.0,0.0,0.0,0.0,0.0,0.0,0.0,0.0568,0.0,0.0,0.0,0.0,0.0,0.0,0.0,0.0563,0.075,0.0874,0.0902,0.0866,0.1223,0.2199,0.2244,0.2071,0.1959,0.0,0.1961,0.0897,0.0729,0.0729,0.0673,0.0954,0.0954,0.0336,0.0729,0.1066,0.1066,0.0449,0.0,0.0,0.028,0.0561,0.0561,0.1177,0.1345,0.028,0.0504,0.1679,0.4054,0.3761,0.3405,0.0,0.0,-0.0624,-0.116,-0.1625,-0.1625,-0.1016,0.0,0.0,0.0,0.0,-0.0625,-0.0818,-0.0839,-0.0816,0.0,-0.1686,-0.1675,-0.1054,0.0,0.0,0.0,0.0,0.0,0.0,0.0,0.0,0.0,0.0,0.0,0.0,0.0,0.0,0.0,0.0056,0.0,0.0056,0.0,0.0,0.0,0.0,0.0,0.0,0.0,0.0,0.0,0.0,0.0,0.0,0.0,0.1283,0.2736,0.4212,0.0,0.0,0.0,0.0,0.0,0.0,0.0,0.0,0.0,0.0,0.0,0.0,0.0,0.0,0.0,0.0,0.0,0.0,0.0636,0.0,0.0,0.0,0.0244,0.0772,0.0887,0.0643,0.0057,0.0,0.0,0.0902,0.0635,0.1047,0.2705,0.2805,0.2635,0.2465,0.3485,0.349,0.0785,0.0393,0.0393,0.0393,0.0617,0.0617,0.0,0.0,0.0,0.0,0.0,0.0,0.0,0.0168,0.0448,0.0393,0.2693,0.3655,0.0952,0.1341,0.2627,0.4104,0.4435,0.4366,0.0,0.0,-0.0161,-0.0304,-0.0418,-0.0417,-0.0281,0.0,0.0,0.0,0.0,-0.014,-0.0207,-0.02,-0.0194,-0.0262,-0.0408,-0.0446,-0.0256,0.0,0.0,0.0,0.0,0.0,0.0,0.0,0.0,0.0,0.0,0.0,0.0,0.0,0.0,0.0298,0.0816,0.0815,0.0582,0.0,0.0,0.0,0.0,0.0,0.0,0.0,0.0,0.0,0.0,0.0,0.0,0.0,0.0335,0.1298,0.3069,0.3863,0.0,0.0,0.0,0.0,0.0,0.0,0.0,0.0,0.0,0.0479,0.0057,0.0,0.0,0.0,0.0,0.0,0.0,0.0173,0.0,0.0,0.0606,0.0246,0.0244,0.0611,0.0664,0.0058,0.012,0.0419,0.0847,0.0808,0.0815,0.1068,0.2184,0.2916,0.2691,0.3263,0.3037,0.0895,0.0224,0.0112,0.0,0.0168,0.0,0.0,0.0,0.0,0.0,0.0,0.0,0.0,0.1962,0.3205,0.3373,0.4101,0.4262,0.353,0.2796,0.2679,0.4144,0.4484,0.4477,0.0,0.0,0.0,0.0,0.0,0.0,0.0,0.0,0.0,0.0,0.0,0.0,0.0,0.0,0.0,0.0,0.0,0.0,0.0,0.0,0.0,0.0,0.0,0.0,0.0,0.0,0.0,0.0,0.0,0.0,0.0,0.0,0.0,0.0185,0.0614,0.0969,0.0903,0.0481,0.0184,0.0,0.0,0.0,0.0,0.0,0.0,0.0,0.0,0.0602,0.0956,0.0997,0.0635,0.1103,0.2695,0.315,0.3196,0.0,0.0,0.0,0.0,0.0,0.0,0.0,0.0,0.0,0.0,0.0,0.0,0.0,0.0,0.0,0.0,0.0,0.0184,0.0553,0.0694,0.0512,0.0063,0.0315,0.0371,0.0,0.0,0.0123,0.0464,0.0708,0.0713,0.0287,0.2264,0.3655,0.3538,0.3772,0.3093,0.067,0.0112,0.0,0.0,0.0,0.0,0.0,0.0,0.0,0.0,0.0,0.0393,0.1794,0.3373,0.4511,0.4504,0.449,0.448,0.4373,0.3858,0.3627,0.4307,0.4477,0.4467,0.0,0.0,0.0,0.0,0.0,0.0,0.0,0.0,0.0,0.0,0.0,0.0,0.0,0.0,0.0,0.0,0.0,0.0,0.0,0.0,0.0,0.0,0.0,0.0,0.0,0.0,0.0,0.0,0.0,0.0,0.0,0.0,0.0,0.0,0.0065,0.0696,0.1062,0.1125,0.05,0.0127,0.0,0.0,0.0,0.0,0.019,0.0311,0.031,0.1429,0.2048,0.204,0.1384,0.1563,0.2847,0.2592,0.234,0.0,0.2845,0.0,0.0,0.0,0.0,0.0,0.0,0.0,0.0,0.0,0.0,0.0,0.0,0.0,0.0,0.0,0.0,0.0,0.053,0.0668,0.0065,0.0,0.0,0.0,0.0,0.0,0.0,0.0487,0.0553,0.0298,0.2322,0.4131,0.4502,0.4482,0.3485,0.067,0.0112,0.0,0.0,0.0,0.0,0.0,0.0,0.0,0.0,0.0,0.1457,0.3716,0.4396,0.4507,0.4497,0.4484,0.4477,0.4477,0.4411,0.4408,0.4473,0.447,0.4463,0.0,0.0,0.0,0.0,0.0,0.0,0.0,0.0,0.0,0.0,0.0,0.0,0.0,0.0,0.0,0.0,0.0,0.0,0.0,0.0,0.0,0.0,0.0,0.0,0.0,0.0,0.0,0.0,0.0,0.0,0.0,0.0,0.0,0.0133,0.0401,0.0,0.0,0.0,0.1062,0.0739,0.0,0.0,0.0,0.0,0.1142,0.0,0.1793,0.1472,0.1331,0.13,0.1413,0.0,0.0,0.0,0.0,0.0,0.0,0.0,0.0,0.0,0.0,0.0,0.0448,0.0125,0.0,0.0,0.0,0.0,0.0,0.0,0.0,0.0,0.0,0.0,0.0,0.0134,0.0,0.0,0.0,0.0,0.0,0.0,0.0,0.0126,0.0127,0.0246,0.1762,0.3455,0.4673,0.466,0.3828,0.2066,0.0727,0.0,0.0,0.0,0.0,0.0,0.0,0.0,0.0,0.2132,0.3543,0.4514,0.4497,0.4487,0.4484,0.4473,0.4467,0.4467,0.4463,0.4463,0.4463,0.4463,0.4463,0.0,0.0,0.0,0.0,0.0,0.0,0.0,0.0,0.0,0.0,0.0,0.0,0.0,0.0,0.0,0.0,0.0,0.0,0.0,0.0,0.0,0.0,0.0,0.0,0.0,0.0,0.0,0.0,0.0,0.0,0.0,0.0,0.0,0.0069,0.0275,0.0611,0.0877,0.108,0.1147,0.1018,0.0687,0.0619,0.0756,0.1098,0.1763,0.0,0.0,0.0,0.0,0.0,0.0,0.0,0.0,0.0,0.0,0.2165,0.2277,0.2131,0.1485,0.0516,0.013,0.0395,0.0195,0.0,0.0,0.0,0.0,0.0,0.0,0.0,0.0,0.0,0.0,0.0,0.0,0.0,0.0,0.0,0.0,0.0,0.0,0.0,0.0,0.0,0.0,0.1202,0.2113,0.3329,0.4755,0.4769,0.3724,0.1515,0.056,0.0,0.0,0.0,0.0,0.0,0.0,0.0,0.0,0.2469,0.4514,0.4504,0.449,0.4477,0.4473,0.4467,0.4463,0.4463,0.4463,0.4463,0.4463,0.4463,0.4463,0.0,0.0,0.0,0.0,0.0,0.0,0.0,0.0,0.0,0.0,0.0,0.0,0.0,0.0,0.0,0.0,0.0,0.0,0.0,0.0,0.0,0.0,0.0,0.0,0.0,0.0,0.0,0.0,0.0,0.0,0.0,0.0,0.0,0.0,0.0,0.0623,0.0957,0.1094,0.0953,0.0951,0.1087,0.1222,0.1425,0.1831,0.1821,0.1816,0.1816,0.1816,0.1547,0.094,0.1249,0.1444,0.1477,0.112,0.092,0.094,0.0943,0.0945,0.0877,0.0337,0.0,0.0,0.0,0.0,0.0,0.0,0.0,0.0,0.0,0.0,0.0,0.0,0.0,0.0,0.0,0.0,0.0,0.0,0.0,0.0,0.0,0.0,0.0,0.0,0.0521,0.1882,0.2795,0.3648,0.4925,0.4865,0.343,0.0733,0.0,0.0,0.0,0.0,0.0,0.0,0.0,0.0,0.0,0.2242,0.399,0.4501,0.4487,0.4473,0.4463,0.4463,0.4463,0.4463,0.4463,0.4463,0.4463,0.4463,0.4463,0.0,0.0,0.0,0.0,0.0,0.0,0.0,0.0,0.0,0.0,0.0,0.0,0.0,0.0,0.0,0.0,0.0,0.0,0.0,0.0,0.0,0.0,0.0,0.0,0.0,0.0,0.0,0.0,0.0,0.0,0.0,0.0,0.0,0.0,0.0,0.0072,0.0505,0.1082,0.0493,0.0139,0.0209,0.0906,0.0976,0.0348,0.0,0.0336,0.0336,0.0,0.0269,0.0134,0.0469,0.0806,0.1146,0.1075,0.0806,0.0202,0.0,0.0135,0.0,0.0,0.0,0.0,0.0,0.0,0.0,0.0,0.0,0.0,0.0,0.0,0.0,0.0,0.0,0.0,0.0,0.0,0.0,0.0,0.0,0.0,0.0,0.0,0.0,0.0,0.0,0.0,0.2998,0.5074,0.5175,0.488,0.3261,0.0,0.0,0.0,0.0,0.0,0.0,0.0,0.0,0.0,0.0,0.0,0.2965,0.4271,0.448,0.4467,0.4463,0.4463,0.4463,0.4463,0.4463,0.4463,0.4463,0.4463,0.4463,0.0,0.0,0.0,0.0,0.0,0.0,0.0,0.0,0.0,0.0,0.0,0.0,0.0,0.0,0.0,0.0,0.0,0.0,0.0,0.0,0.0,0.0,0.0,0.0,0.0,0.0,0.0,0.0,0.0,0.0,0.0,0.0,0.0,0.0,0.0,0.0,0.0145,0.05,0.0141,0.0,0.0,0.0351,0.0421,0.0,0.0,0.0,0.0,0.0,0.0,0.0,0.0135,0.0337,0.0472,0.0472,0.0337,0.0,0.0,0.0,0.0,0.0,0.0,0.0,0.0,0.0,0.0,0.0,0.0,0.0,0.0,0.0,0.0,0.0,0.0,0.0,0.0,0.0,0.0,0.0,0.0,0.0,0.0,0.0,0.0,0.0,0.0,0.0,0.3099,0.5315,0.5396,0.5099,0.3746,0.0,0.0,0.0,0.0,0.0,0.0,0.0,0.0,0.0,0.0,0.0,0.0,0.3984,0.448,0.447,0.4463,0.4463,0.4463,0.4463,0.4463,0.4463,0.4463,0.4463,0.4463,0.0,0.0,0.0,0.0,0.0,0.0,0.0,0.0,0.0,0.0,0.0,0.0,0.0,0.0,0.0,0.0,0.0,0.0,0.0,0.0,0.0,0.0,0.0,0.0,0.0,0.0,0.0,0.0,0.0,0.0,0.0,0.0,0.0,0.0,0.0,0.0,0.0,0.0,0.0,0.0,0.0,0.0,0.0,0.0,0.0,0.0,0.0,0.0,0.0,0.0,0.0,0.0,0.0,0.0,0.0,0.0,0.0,0.0,0.0,0.0,0.0,0.0,0.0,0.0,0.0,0.0,0.0,0.0,0.0,0.0,0.0,0.0,0.0,0.0,0.0,0.0,0.0,0.0,0.0,0.0,0.0,0.0,0.0,0.0,0.0,0.0,0.2468,0.4256,0.4968,0.4769,0.2894,0.0,0.0,0.0,0.0,0.0,0.0,0.0,0.0,0.0,0.0,0.0,0.0,0.3246,0.4258,0.4418,0.4463,0.4463,0.4463,0.4463,0.4463,0.4463,0.4463,0.4423,0.4412,0.0,0.0,0.0,0.0,0.0,0.0,0.0,0.0,0.0,0.0,0.0,0.0,0.0,0.0,0.0,0.0,0.0,0.0,0.0,0.0,0.0,0.0,0.0,0.0,0.0,0.0,0.0,0.0,0.0,0.0,0.0,0.0,0.0,0.0,0.0,0.0,0.0,0.0,0.0,0.0,0.0,0.0,0.0,0.0,0.0,0.0,0.0,0.0,0.0,0.0,0.0,0.0,0.0,0.0,0.0,0.0,0.0,0.0,0.0,0.0,0.0,0.0,0.0,0.0,0.0,0.0,0.0,0.0,0.0,0.0,0.0,0.0,0.0,0.0,0.0,0.0,0.0,0.0,0.0,0.0,0.0,0.0,0.0,0.0,0.0,0.0,0.0,0.1899,0.3563,0.2801,0.1189,0.0,0.0,0.0,0.0,0.0,0.0,0.0,0.0,0.0,0.0,0.0,0.0613,0.1955,0.3747,0.4418,0.4467,0.4463,0.4463,0.4463,0.4463,0.4463,0.445,0.4382,0.4314,0.0,0.0,0.0,0.0,0.0,0.0,0.0,0.0,0.0,0.0,0.0,0.0,0.0,0.0,0.0,0.0,0.0,0.0,0.0,0.0,0.0,0.0,0.0,0.0,0.0,0.0,0.0,0.0,0.0,0.0,0.0,0.0,0.0,0.0,0.0,0.0,0.0,0.0,0.0,0.0,0.0,0.0,0.0,0.0,0.0,0.0,0.0,0.0,0.0,0.0,0.0,0.0,0.0,0.0,0.0,0.0,0.0,0.0,0.0,0.0,0.0,0.0,0.0,0.0,0.0,0.0,0.0,0.0,0.0,0.0,0.0,0.0,0.0,0.0,0.0,0.0,0.0,0.0,0.0,0.0,0.0,0.0,0.0,0.0,0.0,0.0,0.0,0.0,0.0,0.2219,0.1967,0.0,0.0,0.0,0.0,0.0,0.0,0.0,0.0,0.0,0.0,0.0,0.0,0.0,0.2963,0.4369,0.4477,0.4467,0.4463,0.4463,0.4463,0.4463,0.4463,0.4416,0.4328,0.0,0.0,0.0,0.0,0.0,0.0,0.0,0.0,0.0,0.0,0.0,0.0,0.0,0.0,0.0,0.0,0.0,0.0,0.0,0.0,0.0,0.0,0.0,0.0,0.0,0.0,0.0,0.0,0.0,0.0,0.0,0.0,0.0,0.0,0.0,0.0,0.0,0.0,0.0,0.0,0.0,0.0,0.0,0.0,0.0,0.0,0.0,0.0,0.0,0.0,0.0,0.0,0.0,0.0,0.0,0.0,0.0,0.0,0.0,0.0,0.0,0.0,0.0,0.0,0.0,0.0,0.0,0.0,0.0,0.0,0.0,0.0,0.0,0.0,0.0,0.0,0.0,0.0,0.0,0.0,0.0,0.0,0.0,0.0,0.0,0.0,0.0,0.0,0.0,0.1765,0.2475,0.1346,0.0,0.0,0.0,0.0,0.0,0.0,0.0,0.0,0.0,0.0,0.0,0.0,0.0,0.4209,0.4428,0.4477,0.4467,0.4467,0.4467,0.4463,0.4463,0.4436,0.4297,0.0,0.0,0.0,0.0,0.0,0.0,0.0,0.0,0.0,0.0,0.0,0.0,0.0,0.0,0.0,0.0,0.0,0.0,0.0,0.0,0.0,0.0,0.0,0.0,0.0,0.0,0.0,0.0,0.0,0.0,0.0,0.0,0.0,0.0,0.0,0.0,0.0,0.0,0.0,0.0,0.0,0.0,0.0,0.0,0.0,0.0,0.0,0.0,0.0,0.0,0.0,0.0,0.0,0.0,0.0,0.0,0.0,0.0,0.0,0.0,0.0,0.0,0.0,0.0,0.0,0.0,0.0,0.0,0.0,0.0,0.0,0.0,0.0,0.0,0.0,0.0,0.0,0.0,0.0,0.0,0.0,0.0,0.0,0.0,0.0,0.0,0.0,0.0,0.0,0.0,0.1294,0.2479,0.0,0.0,0.0,0.0,0.0,0.0,0.0,0.0,0.0,0.0,0.0,0.0,0.0,0.3591,0.4212,0.449,0.4428,0.4425,0.4473,0.447,0.4463,0.4345,0.4164,-0.312,0.0,0.0,0.0,0.0,0.0,0.0,0.0,0.0,0.0,0.0,0.0,0.0,0.0,0.0,0.0,0.0,0.0,0.0,0.0,0.0,0.0,0.0,0.0,0.0,0.0,0.0,0.0,0.0,0.0,0.0,0.0,0.0,0.0,0.0,0.0,0.0,0.0,0.0,0.0,0.0,0.0,0.0,0.0,0.0,0.0,0.0,0.0,0.0,0.0,0.0,0.0,0.0,0.0,0.0,0.0,0.0,0.0,0.0,0.0,0.0,0.0,0.0,0.0,0.0,0.0,0.0,0.0,0.0,0.0,0.0,0.0,0.0,0.0,0.0,0.0,0.0,0.0,0.0,0.0,0.0,0.0,0.0,0.0,0.0,0.0,0.0,0.0,0.0,0.0,0.0,0.0,0.0,0.0,0.0,0.0,0.0,0.0,0.0,0.0,0.0,0.0,0.0,0.0,0.0,0.224,0.2687,0.3644,0.3697,0.3744,0.3796,0.4473,0.4463,0.4385,0.425,-0.5436,-0.1508,-0.0302,0.0,0.0,0.0,0.0,0.0,0.0,0.0,0.0,0.0,0.0,0.0,0.0,0.0,0.0,0.0,0.0,0.0,0.0,0.0,0.0,0.0,0.0,0.0,0.0,0.0,0.0,0.0,0.0,0.0,0.0,0.0,0.0,0.0,0.0,0.0,0.0,0.0,0.0,0.0,0.0,0.0,0.0,0.0,0.0,0.0,0.0,0.0,0.0,0.0,0.0,0.0,0.0,0.0,0.0,0.0,0.0,0.0,0.0,0.0,0.0,0.0,0.0,0.0,0.0,0.0,0.0,0.0,0.0,0.0,0.0,0.0,0.0,0.0,0.0,0.0,0.0,0.0,0.0,0.0,0.0,0.0,0.0,0.0,0.0,0.0,0.0,0.0,0.0,0.0,0.0,0.0,0.0,0.0,0.0,0.0,0.0,0.0,0.0,0.0,0.0,0.0,0.0,0.0,0.0,0.0,0.2738,0.2732,0.363,0.448,0.447,0.4463,0.4294,-0.6445,-0.3817,0.0,0.0,0.0,0.0,0.0,0.0,0.0,0.0,0.0,0.0,0.0,0.0,0.0,0.0,0.0,0.0,0.0,0.0,0.0,0.0,0.0,0.0,0.0,0.0,0.0,0.0,0.0,0.0,0.0,0.0,0.0,0.0,0.0,0.0,0.0,0.0,0.0,0.0,0.0,0.0,0.0,0.0,0.0,0.0,0.0,0.0,0.0,0.0,0.0,0.0,0.0,0.0,0.0,0.0,0.0,0.0,0.0,0.0,0.0,0.0,0.0,0.0,0.0,0.0,0.0,0.0,0.0,0.0,0.0,0.0,0.0,0.0,0.0,0.0,0.0,0.0,0.0,0.0,0.0,0.0,0.0,0.0,0.0,0.0,0.0,0.0,0.0,0.0,0.0,0.0,0.0,0.0,0.0,0.0,0.0,0.0,0.0,0.0,0.0,0.0,0.0,0.0,0.0,0.0,0.0,0.0,0.0,0.173,0.3077,0.4317,0.4477,0.444,0.4297,-0.7463,-0.6748,-0.5842,-0.4425,-0.261,-0.0805,-0.1006,-0.2414,-0.0908,0.0,0.0,0.0,0.0,0.0,0.0,0.0,0.0,0.0,0.0,0.0,0.0,0.0,0.0,0.0,0.0,0.0,0.0,0.0,0.0,0.0,0.0,0.0,0.0,0.0,0.0,0.0,0.0,0.0,0.0,0.0,0.0,0.0,0.0,0.0,0.0,0.0,0.0,0.0,0.0,0.0,0.0,0.0,0.0,0.0,0.0,0.0,0.0,0.0,0.0,0.0,0.0,0.0,0.0,0.0,0.0,0.0,0.0,0.0,0.0,0.0,0.0,0.0,0.0,0.0,0.0,0.0,0.0,0.0,0.0,0.0,0.0,0.0,0.0,0.0,0.0,0.0,0.0,0.0,0.0,0.0,0.0,0.0,0.0,0.0,0.0,0.0,0.0,0.0,0.0,0.0,0.0,0.0,0.0,0.0,0.0,0.0,0.0,0.0,0.0,0.0,0.2462,0.3413,0.4249,0.4402,0.43,-0.7962,-0.7962,-0.7975,-0.7059,-0.5327,-0.3618,-0.3316,-0.3917,-0.3323,-0.1913,0.0,0.0,0.0,0.0,0.0,0.0,0.0,0.0,0.0,0.0,0.0,0.0,0.0,0.0,0.0,0.0,0.0,0.0,0.0,0.0,0.0,0.0,0.0,0.0,0.0,0.0,0.0,0.0,0.0,0.0,0.0,0.0,0.0,0.0,0.0,0.0,0.0,0.0,0.0,0.0,0.0,0.0,0.0,0.0,0.0,0.0,0.0,0.0,0.0,0.0,0.0,0.0,0.0,0.0,0.0,0.0,0.0,0.0,0.0,0.0,0.0,0.0,0.0,0.0,0.0,0.0,0.0,0.0,0.0,0.0,0.0,0.0,0.0,0.0,0.0,0.0,0.0,0.0,0.0,0.0,0.0,0.0,0.0,0.0,0.0,0.0,0.0,0.0,0.0,0.0,0.0,0.0,0.0,0.0,0.0,0.0,0.0,0.0,0.0,0.0,0.0,0.2345,0.3067,0.4193,0.4318,-0.8038,-0.8041,-0.7962,-0.7969,-0.7766,-0.7572,-0.6348,-0.4922,-0.6556,-0.5041,0.0,0.0,0.0,0.0,0.0,0.0,0.0,0.0,0.0,0.0,0.0,0.0,0.0,0.0,0.0,0.0,0.0,0.0,0.0,0.0,0.0,0.0,0.0,0.0,0.0,0.0,0.0,0.0,0.0,0.0,0.0,0.0,0.0,0.0,0.0,0.0,0.0,0.0,0.0,0.0,0.0,0.0,0.0,0.0,0.0,0.0,0.0,0.0,0.0,0.0,0.0,0.0,0.0,0.0,0.0,0.0,0.0,0.0,0.0,0.0,0.0,0.0,0.0,0.0,0.0,0.0,0.0,0.0,0.0,0.0,0.0,0.0,0.0,0.0,0.0,0.0,0.0,0.0,0.0,0.0,0.0,0.0,0.0,0.0,0.0,0.0,0.0,0.0,0.0,0.0,0.0,0.0,0.0,0.0,0.0,0.0,0.0,0.0,0.0,0.0,0.0,0.0,0.2174,0.3519,0.4354,-0.8038,-0.8041,-0.7945,-0.7949,-0.7952,-0.7969,-0.7662,-0.7036,-0.7572,-0.7125,-0.5213,-0.1618,0.0,0.0,0.0,0.0,0.0,0.0,0.0,0.0,0.0,0.0,0.0,0.0,0.0,0.0,0.0,0.0,0.0,0.0,0.0,0.0,0.0,0.0,0.0,0.0,0.0,0.0,0.0,0.0,0.0,0.0,0.0,0.0,0.0,0.0,0.0,0.0,0.0,0.0,0.0,0.0,0.0,0.0,0.0,0.0,0.0,0.0,0.0,0.0,0.0,0.0,0.0,0.0,0.0,0.0,0.0,0.0,0.0,0.0,0.0,0.0,0.0,0.0,0.0,0.0,0.0,0.0,0.0,0.0,0.0,0.0,0.0,0.0,0.0,0.0,0.0,0.0,0.0,0.0,0.0,0.0,0.0,0.0,0.0,0.0,0.0,0.0,0.0,0.0,0.0,0.0,0.0,0.0,0.0,0.0,0.0,0.0,0.0,0.0,0.0,0.0,0.0,0.3352,0.413,-0.8038,-0.8038,-0.8038,-0.8075,-0.8133,-0.8046,-0.8046,-0.814,-0.8056,-0.8109,-0.7223,-0.4187,-0.226,-0.1883,0.0,0.0,0.0,0.0,0.0,0.0,0.0,0.0,0.0,0.0,0.0,0.0,0.0,0.0,0.0,0.0,0.0,0.0,0.0,0.0,0.0,0.0,0.0,0.0,0.0,0.0,0.0,0.0,0.0,0.0,0.0,0.0,0.0,0.0,0.0,0.0,0.0,0.0,0.0,0.0,0.0,0.0,0.0,0.0,0.0,0.0,0.0,0.0,0.0,0.0,0.0,0.0,0.0,0.0,0.0,0.0,0.0,0.0,0.0,0.0,0.0,0.0,0.0,0.0,0.0,0.0,0.0,0.0,0.0,0.0,0.0,0.0,0.0,0.0,0.0,0.0,0.0,0.0,0.0,0.0,0.0,0.0,0.0,0.0,0.0,0.0,0.0,0.0,0.0,0.0,0.0,0.0,0.0,0.0,0.0,0.0,0.0,0.0,0.0,0.3019,0.3796,-0.8062,-0.8065,-0.8065,-0.814,-0.8255,-0.818,-0.817,-0.8265,-0.8051,-0.8074,-0.7888,-0.6616,-0.5424,-0.5002,-0.4902,0.0,0.0,0.0,0.0,0.0,0.0,0.0,0.0,0.0,0.0,0.0,0.0,0.0,0.0,0.0,0.0,0.0,0.0,0.0,0.0,0.0,0.0,0.0,0.0,0.0,0.0,0.0,0.0,0.0,0.0,0.0,0.0,0.0,0.0,0.0,0.0,0.0,0.0,0.0,0.0,0.0,0.0,0.0,0.0,0.0,0.0,0.0,0.0,0.0,0.0,0.0,0.0,0.0,0.0,0.0,0.0,0.0,0.0,0.0,0.0,0.0,0.0,-0.0379,-0.053,0.0,0.0,0.0,0.0,0.0,0.0,0.0,0.0,0.0,0.0,0.0,0.0,0.0,0.0,0.0,0.0,0.0,0.0,0.0,0.0,0.0,0.0,0.0,0.0,0.0,0.0,0.0,0.0,0.0,0.0,0.0,0.0,0.0,0.0,0.0,0.3545,-0.8218,-0.8221,-0.8225,-0.8238,-0.8286,-0.8384,-0.8374,-0.8275,-0.8067,-0.8143,-0.82,-0.8024,-0.7824,-0.7843,-0.7726,-0.7513,-0.5865,0.0,0.0,0.0,0.0,0.0,0.0,0.0,0.0,0.0,0.0,0.0,0.0,0.0,0.0,0.0,0.0,0.0,0.0,0.0,0.0,0.0,0.0,0.0,0.0,0.0,0.0,0.0,0.0,0.0,0.0,0.0,0.0,0.0,0.0,0.0,0.0,0.0,0.0,0.0,0.0,0.0,0.0,0.0,0.0,0.0,0.0,0.0,0.0,0.0,0.0,0.0,0.0,0.0,0.0,0.0,0.0,0.0,0.0,0.0,0.0,-0.2836,-0.312,0.0,0.0,0.0,0.0,0.0,0.0,0.0,0.0,0.0,0.0,0.0,0.0,0.0,0.0,0.0,0.0,0.0,0.0,0.0,0.0,0.0,0.0,0.0,0.0,0.0,0.0,0.0,0.0,0.0,0.0,0.0,0.0,0.0,0.0,0.0,0.3411,-0.837,-0.837,-0.8367,-0.8411,-0.8482,-0.8448,-0.8503,-0.8404,-0.8236,-0.8266,-0.8391,-0.8584,-0.8738,-0.8849,-0.8859,-0.8859,-0.8307,-0.585,0.0,0.0,0.0,0.0,0.0,0.0,0.0,0.0,0.0,0.0,0.0,0.0,0.0,0.0,0.0,0.0,0.0,0.0,0.0,0.0,0.0,0.0,0.0,0.0,0.0,0.0,0.0,0.0,0.0,0.0,0.0,0.0,0.0,0.0,0.0,0.0,0.0,0.0,0.0,0.0,0.0,0.0,0.0,0.0,0.0,0.0,0.0,0.0,0.0,0.0,0.0,0.0,0.0,0.0,-0.2643,-0.2735,-0.196,-0.1173,-0.0936,-0.3724,-0.5653,-0.3211,0.0,0.0,0.0,0.0,0.0,0.0,0.0,0.0,0.0,0.0,0.0,0.0,0.0,0.0,0.0,0.0,0.0,0.0,0.0,0.0,0.0,0.0,0.0,0.0,0.0,0.0,0.0,0.0,0.0,0.0,0.0,0.0,0.0,0.0,0.2963,-0.8496,-0.8516,-0.8516,-0.8594,-0.8703,-0.8618,-0.8548,-0.855,-0.8541,-0.8508,-0.8557,-0.8662,-0.8764,-0.891,-0.893,-0.8947,-0.885,-0.852,-0.5757,0.0,0.0,0.0,0.0,0.0,0.0,0.0,0.0,0.0,0.0,0.0,0.0,0.0,0.0,0.0,0.0,0.0,0.0,0.0,0.0,0.0,0.0,0.0,0.0,0.0,0.0,0.0,0.0,0.0,0.0,0.0,0.0,0.0,0.0,0.0,0.0,0.0,0.0,0.0,0.0,0.0,0.0,0.0,0.0,0.0,0.0,0.0,0.0,0.0,0.0,0.0,0.0,-0.2113,-0.4638,-0.5526,-0.4474,-0.2891,-0.2106,-0.4238,-0.5652,-0.5786,-0.4412,-0.3204,-0.1777,0.0,0.0,0.0,0.0,0.0,0.0,0.0,0.0,0.0,0.0,0.0,0.0,0.0,0.0,0.0,0.0,0.0,0.0,0.0,0.0,0.0,0.0,0.0,0.0,0.0,0.0,0.0,0.0,0.0,0.0,0.0,0.246,-0.8557,-0.8672,-0.8672,-0.8689,-0.873,-0.8732,-0.8801,-0.8689,-0.8588,-0.8588,-0.8676,-0.8703,-0.8808,-0.8906,-0.8937,-0.894,-0.895,-0.8739,-0.8168,-0.6337,-0.4998,-0.4541,-0.5526,0.0,0.0,0.0,0.0,0.0,0.0,0.0,0.0,0.0,-0.4234,-0.6062,-0.4834,0.0,0.0,0.0,0.0,0.0,0.0,0.0,0.0,0.0,0.0,0.0,0.0,0.0,0.0,0.0,0.0,0.0,0.0,0.0,0.0,0.0,0.0,0.0,0.0,0.0,0.0,0.0,0.0,0.0,0.0,0.0,0.0,0.0,0.0,0.0,0.0,-0.1412,-0.2986,-0.4807,-0.5839,-0.5347,-0.5171,-0.5646,-0.6291,-0.6197,-0.5768,-0.5379,-0.3845,-0.2398,0.0,0.0,0.0,0.0,0.0,0.0,0.0,0.0,0.0,0.0,0.0,0.0,0.0,0.0,0.0,0.0,0.0,0.0,0.0,0.0,0.0,0.0,0.0,0.0,0.0,0.0,0.0,0.0,0.0,0.0894,0.2012,-0.8689,-0.8825,-0.8832,-0.8828,-0.8842,-0.8903,-0.8852,-0.8737,-0.8679,-0.8672,-0.8754,-0.8791,-0.8866,-0.8927,-0.8937,-0.8937,-0.8944,-0.895,-0.896,-0.8402,-0.7616,-0.7287,-0.889,-0.555,0.0,0.0,0.0,-0.1246,0.0,0.0,0.0,0.0,-0.5336,-0.7992,-0.7675,-0.5641,-0.2513,0.0,0.0,0.0,0.0,0.0,0.0,0.0,0.0,0.0,0.0,0.0,0.0,0.0,0.0,0.0,0.0,0.0,0.0,0.0,0.0,0.0,0.0,0.0,0.0,0.0,0.0,0.0,0.0,0.0,0.0,0.0,0.0,0.0,0.0,0.0,-0.2584,-0.4157,-0.5581,-0.6207,-0.6274,-0.6271,-0.6271,-0.6278,-0.606,-0.586,-0.587,-0.4439,-0.303,0.0,-0.1734,-0.113,-0.0526,0.0,0.0,0.0,0.0,0.0,0.0,0.0,0.0,0.0,0.0,0.0,0.0,0.0,0.0,0.0,0.0,0.0,0.0,0.0,0.0,0.0,0.0,0.0,0.0,0.0784,0.1902,-0.8771,-0.8937,-0.8937,-0.8937,-0.8937,-0.8937,-0.8872,-0.8798,-0.8879,-0.8866,-0.8788,-0.8876,-0.893,-0.8937,-0.8937,-0.8937,-0.8937,-0.894,-0.895,-0.8846,-0.8739,-0.8863,-0.8876,-0.8651,-0.7368,-0.5604,-0.5094,-0.3148,-0.0821,0.0,0.0,-0.3107,-0.6539,-0.7972,-0.7762,-0.7363,-0.4726,-0.2514,0.0,0.0,0.0,0.0,0.0,0.0,0.0,0.0,0.0,0.0,0.0,0.0,0.0,0.0,0.0,0.0,0.0,0.0,0.0,0.0,0.0,0.0,0.0,0.0,0.0,0.0,0.0,0.0,0.0,0.0,0.0,0.0,0.0,0.0,-0.3553,-0.4254,-0.543,-0.6264,-0.6264,-0.6261,-0.6261,-0.6261,-0.6261,-0.6251,-0.6157,-0.6002,-0.4543,-0.4232,-0.3766,-0.3542,-0.2835,-0.142,0.0,0.0,0.0,0.0,0.0,0.0,0.0,0.0,0.0,0.0,0.0,0.0,0.0,0.0,0.0,0.0,0.0,0.0,0.0,0.0,0.0,0.0,0.0,0.0,0.2017,-0.8676,-0.8937,-0.8937,-0.8937,-0.8937,-0.8937,-0.893,-0.8913,-0.8927,-0.893,-0.8893,-0.8923,-0.8937,-0.8937,-0.8937,-0.8937,-0.8937,-0.8937,-0.894,-0.8947,-0.8947,-0.895,-0.8954,-0.8856,-0.8689,-0.7713,-0.7871,-0.4949,-0.2719,-0.4898,-0.6556,-0.6951,-0.6942,-0.7965,-0.7952,-0.7969,-0.6848,-0.4518,-0.1608,0.0,0.0,0.0,0.0,0.0,0.0,0.0,0.0,0.0,0.0,0.0,0.0,0.0,0.0,0.0,0.0,0.0,0.0,0.0,0.0,0.0,0.0,0.0,0.0,0.0,0.0,0.0,0.0,0.0,0.0,0.0,0.0,0.0,-0.5214,-0.5713,-0.5962,-0.6302,-0.6345,-0.6261,-0.6261,-0.6261,-0.6261,-0.6261,-0.6251,-0.6264,-0.6116,-0.6041,-0.5808,-0.5416,-0.4894,-0.3471,-0.2634,-0.2564,-0.2463,-0.2481,-0.2463,-0.2539,-0.2464,-0.2367,-0.2372,-0.2327,-0.2169,-0.1746,0.0,0.0,0.0,0.0,0.0,0.0,0.0,0.0,0.0,0.0,0.0,0.0,0.0,-0.8662,-0.8937,-0.8937,-0.8937,-0.8937,-0.8937,-0.8937,-0.8937,-0.8937,-0.8937,-0.8937,-0.8937,-0.8937,-0.8937,-0.8937,-0.8937,-0.8937,-0.8937,-0.8937,-0.8937,-0.8937,-0.8937,-0.8944,-0.8947,-0.8899,-0.8825,-0.8693,-0.7918,-0.62,-0.6421,-0.7961,-0.7962,-0.7952,-0.7952,-0.8041,-0.7959,-0.7559,-0.5734,0.0,0.0,0.0,0.0,0.0,0.0,0.0,0.0,0.0,0.0,0.0,0.0,0.0,0.0,0.0,0.0,0.0,0.0,0.0,0.0,0.0,0.0,0.0,0.0,0.0,0.0,0.0,0.0,0.0,0.0,0.0,0.0,0.0,0.0,-0.4782,-0.5866,-0.6354,-0.6339,-0.6359,-0.6264,-0.6261,-0.6261,-0.6261,-0.6261,-0.6261,-0.6264,-0.6271,-0.619,-0.6109,-0.5948,-0.5717,-0.5121,-0.467,-0.4518,-0.449,-0.4463,-0.4452,-0.4386,-0.4322,-0.4209,-0.4131,-0.4152,-0.4123,-0.3491,-0.2144,-0.0732,0.0,0.0,0.0,0.0,0.0,0.0,0.0,0.0,0.0,0.0,0.2357,-0.8638,-0.8882,-0.8923,-0.8937,-0.8937,-0.8937,-0.8937,-0.8937,-0.8937,-0.8937,-0.8937,-0.8937,-0.8937,-0.8937,-0.8937,-0.8937,-0.8937,-0.8937,-0.8937,-0.8937,-0.8937,-0.8937,-0.892,-0.8913,-0.8872,-0.8882,-0.8686,-0.8309,-0.8317,-0.835,-0.8133,-0.8052,-0.8041,-0.8041,-0.8041,-0.7952,-0.7862,-0.7366,-0.3497,0.0,0.0,0.0,0.0,0.0,0.0,0.0,0.0,0.0,0.0,0.0,0.0,0.0,0.0,0.0,0.0,0.0,0.0,0.0,0.0,0.0,0.0,0.0,0.0,0.0,0.0,0.0,0.0,0.0,0.0,0.0,-0.1717,-0.3406,-0.4356,-0.5703,-0.6428,-0.64,-0.6302,-0.6278,-0.6261,-0.6261,-0.6261,-0.6261,-0.6261,-0.6261,-0.6261,-0.6261,-0.6254,-0.6251,-0.6149,-0.5946,-0.5739,-0.5429,-0.5335,-0.5329,-0.5393,-0.553,-0.5677,-0.5627,-0.5521,-0.54,-0.5113,-0.4806,-0.3969,-0.2457,-0.0785,0.0,0.0,0.0,0.0,0.0,0.0,0.0,0.0,0.1909,0.2637,-0.8577,-0.874,-0.8876,-0.8927,-0.893,-0.8937,-0.8937,-0.892,-0.8933,-0.8937,-0.8937,-0.8937,-0.8937,-0.8937,-0.8937,-0.8937,-0.8937,-0.8937,-0.8937,-0.8937,-0.8937,-0.8937,-0.8903,-0.8828,-0.8743,-0.874,-0.8618,-0.858,-0.8577,-0.8464,-0.8235,-0.8082,-0.8045,-0.8038,-0.8038,-0.8045,-0.7962,-0.7447,-0.4775,-0.2052,0.0,0.0,0.0,0.0,0.0,0.0,0.0,0.0,0.0,0.0,0.0,0.0,0.0,0.0,0.0,0.0,0.0,0.0,0.0,0.0,0.0,0.0,0.0,0.0,0.0,0.0,0.0,0.0,0.0,0.0,-0.416,-0.5269,-0.532,-0.5802,-0.6525,-0.6461,-0.6359,-0.6278,-0.6261,-0.6261,-0.6261,-0.6261,-0.6261,-0.6261,-0.6261,-0.6261,-0.6254,-0.6247,-0.6235,-0.6119,-0.6029,-0.5844,-0.5738,-0.5724,-0.5724,-0.5789,-0.5766,-0.5688,-0.5586,-0.5559,-0.548,-0.5222,-0.4928,-0.3791,0.0,0.0,0.0,0.0,0.0,0.0,0.0,0.0,0.2308,0.286,0.3474,-0.8516,-0.8574,-0.8635,-0.8713,-0.8808,-0.8899,-0.8886,-0.8825,-0.8896,-0.8937,-0.8937,-0.8937,-0.8937,-0.8937,-0.8937,-0.8937,-0.8937,-0.8937,-0.8937,-0.8937,-0.8937,-0.8937,-0.8886,-0.8801,-0.8713,-0.8665,-0.855,-0.8522,-0.8511,-0.8381,-0.817,-0.8058,-0.8038,-0.8038,-0.8038,-0.8041,-0.7959,-0.745,-0.5889,-0.3348,0.0,0.0,0.0,0.0,0.0,0.0,0.0,0.0,0.0,0.0,0.0,0.0,0.0,0.0,0.0,0.0,0.0,0.0,-0.3595,-0.378,-0.3138,0.0,0.0,0.0,0.0,0.0,0.0,0.0,-0.2604,-0.5131,-0.593,-0.6325,-0.6231,-0.6528,-0.6632,-0.6559,-0.6424,-0.6332,-0.6268,-0.6268,-0.6261,-0.6261,-0.6261,-0.6261,-0.6261,-0.6257,-0.6254,-0.6307,-0.6218,-0.6149,-0.6064,-0.6019,-0.5911,-0.5888,-0.5884,-0.5867,-0.5844,-0.5762,-0.5667,-0.5682,-0.5652,-0.5484,-0.5055,-0.4119,0.0,0.0,0.0,0.0,0.0,0.0,0.0,0.0,0.3713,0.3828,0.4089,-0.8381,-0.8418,-0.8421,-0.8506,-0.8648,-0.8645,-0.8767,-0.874,-0.8818,-0.8903,-0.8937,-0.8937,-0.8937,-0.8937,-0.8937,-0.8937,-0.8937,-0.8937,-0.8937,-0.8937,-0.8937,-0.8937,-0.8869,-0.8754,-0.8615,-0.8581,-0.8421,-0.8367,-0.839,-0.8234,-0.8096,-0.8065,-0.8038,-0.8038,-0.8038,-0.8041,-0.7952,-0.7659,-0.6736,-0.5259,0.0,0.0,0.0,0.0,0.0,0.0,0.0,0.0,0.0,0.0,0.0,0.0,0.0,0.0,-0.1887,-0.1885,-0.1882,-0.3135,-0.576,-0.5947,-0.4954,0.0,0.0,0.0,-0.0986,0.0,0.0,0.0,-0.4041,-0.7131,-0.7128,-0.6808,-0.6718,-0.683,-0.6763,-0.6705,-0.6431,-0.6311,-0.6318,-0.6352,-0.6268,-0.6261,-0.6261,-0.6261,-0.6261,-0.6261,-0.6257,-0.6294,-0.6273,-0.6218,-0.6108,-0.6084,-0.6077,-0.5979,-0.5962,-0.5945,-0.5935,-0.5942,-0.5902,-0.579,-0.5714,-0.542,-0.426,-0.2541,0.0,0.0,0.0,0.0,0.0,0.0,0.0,0.3972,0.4164,0.4216,0.4268,-0.815,-0.8269,-0.8275,-0.8353,-0.8472,-0.8384,-0.8468,-0.8679,-0.8612,-0.8702,-0.8927,-0.893,-0.893,-0.8933,-0.8937,-0.8937,-0.8937,-0.8937,-0.8937,-0.8937,-0.8937,-0.8937,-0.8835,-0.8693,-0.8533,-0.8462,-0.8319,-0.8167,-0.8072,-0.8244,-0.823,-0.8072,-0.8038,-0.8038,-0.8038,-0.8038,-0.7952,-0.7969,-0.7766,-0.7334,-0.6055,-0.2729,0.0,0.0,0.0,0.0,0.0,0.0,0.0,0.0,0.0,0.0,0.0,-0.416,-0.552,-0.6079,-0.4416,-0.4942,-0.6748,-0.4926,-0.4933,-0.5565,-0.4115,-0.3573,-0.3037,0.0,0.0,-0.1431,-0.4489,-0.6758,-0.7111,-0.7084,-0.6984,-0.6907,-0.6926,-0.679,-0.6512,-0.6317,-0.6318,-0.6271,-0.6264,-0.6261,-0.6261,-0.6261,-0.6261,-0.6261,-0.6261,-0.6283,-0.628,-0.6256,-0.617,-0.6098,-0.6098,-0.6061,-0.604,-0.6027,-0.6027,-0.6051,-0.5818,-0.5402,-0.4996,-0.4591,-0.3084,0.0,0.0,0.0,0.0,0.0,0.0,0.0,0.0,0.4057,0.4311,0.4485,0.4514,-0.816,-0.8116,-0.8116,-0.8147,-0.8214,-0.8401,-0.8513,-0.8567,-0.8665,-0.8794,-0.8889,-0.8842,-0.8852,-0.8906,-0.8937,-0.8937,-0.8937,-0.8937,-0.8937,-0.8933,-0.8927,-0.8937,-0.8838,-0.8635,-0.8479,-0.8411,-0.8265,-0.8113,-0.8045,-0.8119,-0.8102,-0.8048,-0.8038,-0.8038,-0.8038,-0.8038,-0.8045,-0.7949,-0.7945,-0.7809,-0.7546,-0.465,-0.3336,-0.4895,-0.4888,-0.3523,-0.0848,0.0,0.0,0.0,0.0,-0.4092,-0.4177,-0.6492,-0.5901,-0.6987,-0.6244,-0.6474,-0.7164,-0.6472,-0.6439,-0.6591,-0.6388,-0.5662,-0.5649,-0.5285,0.0,-0.322,-0.5213,-0.6936,-0.7091,-0.7074,-0.7095,-0.7041,-0.6953,-0.679,-0.6603,-0.641,-0.6281,-0.6268,-0.6261,-0.6261,-0.6261,-0.6261,-0.6261,-0.6261,-0.6261,-0.6261,-0.6276,-0.628,-0.6203,-0.6207,-0.6196,-0.6149,-0.6112,-0.6071,-0.5956,-0.5946,-0.5211,-0.4222,-0.3932,-0.3459,0.0,0.0,0.0,0.0,0.0,0.0,0.0,0.0,0.3709,0.4192,0.4432,0.4508,0.449,-0.8133,-0.8041,-0.8038,-0.8038,-0.8079,-0.8306,-0.8428,-0.8492,-0.8591,-0.8693,-0.8747,-0.8723,-0.876,-0.8852,-0.8913,-0.8937,-0.8937,-0.8937,-0.8763,-0.8759,-0.8746,-0.8808,-0.8693,-0.855,-0.8414,-0.8336,-0.8194,-0.8038,-0.8038,-0.8038,-0.8041,-0.8041,-0.8038,-0.8038,-0.8038,-0.8038,-0.8038,-0.8041,-0.8038,-0.8014,-0.7486,-0.6575,-0.6168,-0.7186,-0.7243,-0.633,-0.3854,-0.2782,-0.2682,-0.3431,-0.4658,-0.6838,-0.6759,-0.6726,-0.6109,-0.7221,-0.7611,-0.7543,-0.7382,-0.7359,-0.723,-0.7184,-0.7235,-0.7235,-0.7242,-0.681,-0.6116,-0.5729,-0.6523,-0.685,-0.7104,-0.7081,-0.7122,-0.7068,-0.7007,-0.6851,-0.6725,-0.6539,-0.6396,-0.6369,-0.6295,-0.6285,-0.6278,-0.6261,-0.6261,-0.6261,-0.6261,-0.6261,-0.6261,-0.6261,-0.6261,-0.6257,-0.6254,-0.6213,-0.6146,-0.6081,-0.5966,-0.5925,-0.5052,-0.412,-0.2254,0.0,0.0,0.0,0.0,0.0,0.0,0.0,0.0,0.3002,0.4209,0.4522,0.4581,0.4541,0.4497,-0.8038,-0.8038,-0.8038,-0.8038,-0.8065,-0.8201,-0.834,-0.8472,-0.8476,-0.8486,-0.8503,-0.8638,-0.8672,-0.8726,-0.8845,-0.8896,-0.8889,-0.8893,-0.8716,-0.8524,-0.8497,-0.8521,-0.852,-0.8377,-0.8326,-0.8241,-0.813,-0.8038,-0.8038,-0.8038,-0.8038,-0.8038,-0.8038,-0.8038,-0.8038,-0.8038,-0.8038,-0.8038,-0.8035,-0.8001,-0.7671,-0.7793,-0.7575,-0.8024,-0.7784,-0.7586,-0.6669,-0.6675,-0.6921,-0.6699,-0.5815,-0.6283,-0.6831,-0.7645,-0.7725,-0.7732,-0.7648,-0.7617,-0.7611,-0.7604,-0.76,-0.7573,-0.7607,-0.7611,-0.7567,-0.7433,-0.7003,-0.6759,-0.7093,-0.7105,-0.7138,-0.7094,-0.7139,-0.7115,-0.7099,-0.6993,-0.6895,-0.6753,-0.661,-0.6508,-0.6396,-0.6359,-0.6363,-0.6342,-0.6312,-0.6305,-0.6302,-0.6261,-0.6261,-0.6261,-0.6261,-0.6257,-0.6257,-0.6257,-0.62,-0.6059,-0.6146,-0.6059,-0.5673,-0.4641,-0.2442,0.0,0.0,0.0,0.0,0.0,0.0,0.0,0.0,0.2761,0.4193,0.4721,0.4813,0.4619,0.4524,-0.8038,-0.8038,-0.8038,-0.8038,-0.8045,-0.8089,-0.8248,-0.8455,-0.8384,-0.8377,-0.8482,-0.8418,-0.8469,-0.855,-0.8594,-0.8686,-0.8814,-0.8908,-0.8689,-0.8531,-0.8255,-0.8312,-0.833,-0.8326,-0.8282,-0.8214,-0.813,-0.8038,-0.8038,-0.8038,-0.8038,-0.8038,-0.8038,-0.8038,-0.8038,-0.8038,-0.8038,-0.8038,-0.8038,-0.8007,-0.7984,-0.8018,-0.8001,-0.798,-0.7967,-0.7974,-0.7987,-0.7994,-0.796,-0.7572,-0.7082,-0.7349,-0.7661,-0.7845,-0.778,-0.7896,-0.7834,-0.775,-0.7753,-0.7753,-0.775,-0.7777,-0.7831,-0.7756,-0.7682,-0.7624,-0.7513,-0.746,-0.7369,-0.7275,-0.7182,-0.7125,-0.7074,-0.7132,-0.7105,-0.7031,-0.6932,-0.6837,-0.6705,-0.662,-0.6508,-0.6502,-0.6495,-0.6424,-0.6393,-0.638,-0.6342,-0.6288,-0.6261,-0.6261,-0.6261,-0.6261,-0.6261,-0.6261,-0.6187,-0.6063,-0.6177,-0.619,-0.5322,0.0,0.0,0.0,0.0,0.0,0.0,0.0,0.0,0.0,0.0,0.2699,0.407,0.4546,0.4918,0.4724,0.4568,-0.8038,-0.8038,-0.8038,-0.8072,-0.8113,-0.8065,-0.818,-0.8347,-0.8241,-0.8235,-0.8299,-0.8286,-0.8316,-0.8397,-0.8465,-0.8543,-0.8714,-0.8878,-0.8734,-0.8246,-0.8118,-0.8143,-0.8183,-0.8235,-0.818,-0.814,-0.8106,-0.8038,-0.8038,-0.8038,-0.8038,-0.8038,-0.8038,-0.8038,-0.8038,-0.8038,-0.8038,-0.8038,-0.8038,-0.8038,-0.8038,-0.8038,-0.8038,-0.8038,-0.8038,-0.7949,-0.7959,-0.7962,-0.7965,-0.7969,-0.7848,-0.7861,-0.7949,-0.7957,-0.7916,-0.8001,-0.796,-0.7906,-0.7902,-0.7899,-0.7899,-0.7919,-0.798,-0.7933,-0.7868,-0.7814,-0.7756,-0.7692,-0.7556,-0.7431,-0.7245,-0.7065,-0.7101,-0.7139,-0.7085,-0.7027,-0.6953,-0.6875,-0.6793,-0.6715,-0.6681,-0.6678,-0.663,-0.6546,-0.6461,-0.642,-0.6356,-0.6281,-0.6261,-0.6261,-0.6261,-0.6261,-0.6261,-0.6261,-0.6187,-0.5799,-0.5174,-0.4553,-0.3203,0.0,0.0,0.0,0.0,0.0,0.0,0.0,0.0,0.0,0.0663,0.2364,0.3916,0.4671,0.4979,0.4838,0.4707,-0.8038,-0.8038,-0.8038,-0.8109,-0.8221,-0.8096,-0.8123,-0.8228,-0.8109,-0.8045,-0.8082,-0.8187,-0.8238,-0.8265,-0.834,-0.8411,-0.8438,-0.8619,-0.846,-0.8057,-0.8051,-0.8096,-0.8022,-0.8045,-0.8082,-0.8058,-0.8038,-0.8038,-0.8038,-0.8038,-0.8038,-0.8038,-0.8038,-0.8038,-0.8038,-0.8038,-0.8038,-0.8038,-0.8038,-0.8038,-0.8038,-0.8038,-0.8038,-0.8038,-0.8038,-0.8041,-0.8041,-0.8038,-0.8038,-0.8038,-0.8038,-0.8035,-0.8031,-0.8031,-0.8031,-0.8028,-0.8014,-0.8007,-0.7997,-0.7997,-0.8007,-0.8018,-0.8038,-0.8014,-0.7967,-0.7946,-0.7889,-0.7824,-0.7702,-0.76,-0.7413,-0.7249,-0.7241,-0.7193,-0.7146,-0.7102,-0.7051,-0.6987,-0.6932,-0.6871,-0.6854,-0.6848,-0.6817,-0.6739,-0.6661,-0.6539,-0.6447,-0.6366,-0.6325,-0.6329,-0.6291,-0.6288,-0.6264,-0.6268,-0.6035,-0.5407,-0.3834,-0.274,-0.1647,0.0,0.0,0.0,0.0,0.0,0.0,0.0,0.0,0.0,0.0,0.235,0.3786,0.4816,0.5047,0.4917,0.4783,-0.8038,-0.8038,-0.8038,-0.8065,-0.8089,-0.8058,-0.8058,-0.8089,-0.8058,-0.8038,-0.8048,-0.8079,-0.8102,-0.813,-0.8258,-0.8323,-0.8186,-0.8248,-0.8113,-0.8089,-0.7958,-0.8009,-0.7949,-0.8038,-0.8038,-0.8038,-0.8038,-0.8038,-0.8038,-0.8038,-0.8038,-0.8038,-0.8038,-0.8038,-0.8038,-0.8038,-0.8038,-0.8038,-0.8038,-0.8038,-0.8038,-0.8038,-0.8038,-0.8038,-0.8038,-0.8038,-0.8038,-0.8038,-0.8038,-0.8038,-0.8038,-0.8038,-0.8038,-0.8038,-0.8038,-0.8038,-0.8038,-0.8038,-0.8038,-0.8038,-0.8038,-0.8038,-0.8038,-0.8038,-0.8035,-0.8038,-0.8007,-0.794,-0.7858,-0.7756,-0.7631,-0.7444,-0.7285,-0.7244,-0.7221,-0.7187,-0.7153,-0.7112,-0.7071,-0.7041,-0.7021,-0.7,-0.6973,-0.6919,-0.6851,-0.6766,-0.6675,-0.6597,-0.6536,-0.6502,-0.639,-0.6359,-0.6288,-0.62,-0.6045,-0.5655,-0.4394,-0.2507,-0.1177,0.0,0.0,0.0,0.0,0.0,0.0,0.0,0.0,0.0,0.0,0.0,0.3892,0.5045,0.5135,0.4965,0.483,-0.8038,-0.8038,-0.8038,-0.8038,-0.8038,-0.8038,-0.8038,-0.8038,-0.8038,-0.8038,-0.8137,-0.8531,-0.8627,-0.8333,-0.8531,-0.8364,-0.815,-0.7982,-0.7999,-0.8009,-0.8002,-0.7962,-0.8038,-0.8038,-0.8038,-0.8038,-0.8038,-0.8038,-0.8038,-0.8038,-0.8038,-0.8038,-0.8038,-0.8038,-0.8038,-0.8038,-0.8038,-0.8038,-0.8038,-0.8038,-0.8038,-0.8038,-0.8038,-0.8038,-0.8038,-0.8038,-0.8038,-0.8038,-0.8038,-0.8038,-0.8038,-0.8038,-0.8038,-0.8038,-0.8038,-0.8038,-0.8038,-0.8038,-0.8038,-0.8038,-0.8038,-0.8038,-0.8038,-0.8038,-0.8038,-0.8038,-0.8038,-0.797,-0.7868,-0.7767,-0.7628,-0.7455,-0.7299,-0.7214,-0.7265,-0.7282,-0.7272,-0.7255,-0.718,-0.7099,-0.7088,-0.7085,-0.7041,-0.6959,-0.6898,-0.6854,-0.6787,-0.6725,-0.6681,-0.6664,-0.6552,-0.6447,-0.6383,-0.6305,-0.62,-0.598,-0.552,-0.3381,-0.0867,0.0,0.0,0.0,0.0,0.0,0.0,0.0,0.0,0.0,0.0,0.0,0.3131,0.5325,0.5229,0.5087,0.4869,-0.8018,-0.8035,-0.8038,-0.8038,-0.8038,-0.8038,-0.8038,-0.8038,-0.8038,-0.8038,-0.8134,-0.9316,-0.9118,-0.9019,-0.9312,-0.8924,-0.8531,-0.8144,-0.8052,-0.7952,-0.7949,-0.8038,-0.8038,-0.8038,-0.8038,-0.8038,-0.8038,-0.8038,-0.8038,-0.8038,-0.8038,-0.8038,-0.8038,-0.8038,-0.8038,-0.8038,-0.8038,-0.8038,-0.8038,-0.8038,-0.8038,-0.8038,-0.8038,-0.8038,-0.8038,-0.8038,-0.8038,-0.8038,-0.8038,-0.8038,-0.8038,-0.8038,-0.8038,-0.8038,-0.8038,-0.8038,-0.8038,-0.8038,-0.8038,-0.8038,-0.8038,-0.8038,-0.8038,-0.8038,-0.8038,-0.8038,-0.8038,-0.7987,-0.7882,-0.777,-0.7628,-0.7482,-0.7333,-0.7238,-0.7309,-0.7387,-0.739,-0.7366,-0.7258,-0.716,-0.7156,-0.7156,-0.7088,-0.7007,-0.6966,-0.6922,-0.6875,-0.6807,-0.6763,-0.677,-0.6722,-0.66,-0.6502,-0.642,-0.5937,0.0,0.0,-0.3197,0.0,0.0,0.0,0.0,0.0,0.0,0.0,0.0,0.0,0.0,0.0,0.0,0.1467,0.357,0.5322,0.5189,0.4906,-0.7929,-0.8038,-0.8038,-0.8038,-0.8038,-0.8038,-0.8038,-0.8038,-0.8038,-0.8038,-0.8333,-0.9312,-0.9805,-0.9608,-0.9805,-0.9509,-0.9019,-0.8432,-0.8038,-0.8038,-0.8038,-0.8038,-0.8038,-0.8038,-0.8038,-0.8038,-0.8038,-0.8038,-0.8038,-0.8038,-0.8038,-0.8038,-0.8038,-0.8038,-0.8038,-0.8038,-0.8038,-0.8038,-0.8038,-0.8038,-0.8038,-0.8038,-0.8038,-0.8038,-0.8038,-0.8038,-0.8038,-0.8038,-0.8038,-0.8038,-0.8038,-0.8038,-0.8038,-0.8038,-0.8038,-0.8038,-0.8038,-0.8038,-0.8038,-0.8038,-0.8038,-0.8038,-0.8038,-0.8038,-0.8038,-0.8038,-0.8031,-0.8014,-0.7916,-0.7814,-0.7678,-0.7522,-0.7377,-0.7343,-0.737,-0.7455,-0.7502,-0.7394,-0.7272,-0.7231,-0.7221,-0.7187,-0.7129,-0.7085,-0.7085,-0.7054,-0.7051,-0.699,-0.6966,-0.6932,-0.6881,-0.6689,-0.6569,-0.5224,0.0,0.0,0.0,0.0,0.0,0.0,0.0,0.0,0.0,0.0,0.0,0.0,0.0,0.0,0.0,0.0,0.0,0.1399,0.364,0.5219,0.486]}]]